<?xml version='1.0' encoding='UTF-8'?><gpx version="1.1" creator="JPX - https://github.com/jenetics/jpx" xmlns="http://www.topografix.com/GPX/1/1"><trk><trkseg><trkpt lat="46.52657984919977" lon="12.132812391285675"><ele>1171.0</ele><time>2026-05-03T15:16:16Z</time></trkpt><trkpt lat="46.526630298480036" lon="12.132721018681538"><ele>1171.0</ele><time>2026-05-03T15:16:18Z</time></trkpt><trkpt lat="46.52668813885297" lon="12.132624809799982"><ele>1171.0</ele><time>2026-05-03T15:16:20Z</time></trkpt><trkpt lat="46.52673145339724" lon="12.13252255341686"><ele>1171.0</ele><time>2026-05-03T15:16:22Z</time></trkpt><trkpt lat="46.52677084954949" lon="12.132422673212677"><ele>1171.0</ele><time>2026-05-03T15:16:24Z</time></trkpt><trkpt lat="46.52680003510131" lon="12.132327560866964"><ele>1171.0</ele><time>2026-05-03T15:16:26Z</time></trkpt><trkpt lat="46.52681913189196" lon="12.13223652258148"><ele>1172.3333333333333</ele><time>2026-05-03T15:16:28Z</time></trkpt><trkpt lat="46.52686352621965" lon="12.132163018477968"><ele>1173.6666666666665</ele><time>2026-05-03T15:16:30Z</time></trkpt><trkpt lat="46.52692179899365" lon="12.13209718875894"><ele>1175.0</ele><time>2026-05-03T15:16:32Z</time></trkpt><trkpt lat="46.526976949917106" lon="12.132012090975547"><ele>1176.3333333333333</ele><time>2026-05-03T15:16:34Z</time></trkpt><trkpt lat="46.527030408547766" lon="12.131917867972922"><ele>1177.6666666666667</ele><time>2026-05-03T15:16:37Z</time></trkpt><trkpt lat="46.52710190102947" lon="12.131848243125143"><ele>1179.0</ele><time>2026-05-03T15:16:41Z</time></trkpt><trkpt lat="46.52718820954866" lon="12.1317853931451"><ele>1180.5714285714284</ele><time>2026-05-03T15:16:44Z</time></trkpt><trkpt lat="46.52723603902047" lon="12.131686070878466"><ele>1182.142857142857</ele><time>2026-05-03T15:16:46Z</time></trkpt><trkpt lat="46.52728408855242" lon="12.13161288378252"><ele>1183.7142857142858</ele><time>2026-05-03T15:16:48Z</time></trkpt><trkpt lat="46.527342243754184" lon="12.13156788303918"><ele>1185.2857142857142</ele><time>2026-05-03T15:16:50Z</time></trkpt><trkpt lat="46.52742711512608" lon="12.131506779143582"><ele>1186.857142857143</ele><time>2026-05-03T15:16:53Z</time></trkpt><trkpt lat="46.52748879891134" lon="12.131480389846333"><ele>1188.4285714285713</ele><time>2026-05-03T15:16:55Z</time></trkpt><trkpt lat="46.52755479761877" lon="12.131451656215791"><ele>1190.0</ele><time>2026-05-03T15:16:57Z</time></trkpt><trkpt lat="46.52761963046943" lon="12.131400134272843"><ele>1190.8333333333335</ele><time>2026-05-03T15:16:59Z</time></trkpt><trkpt lat="46.527678251455235" lon="12.131356500056386"><ele>1191.6666666666667</ele><time>2026-05-03T15:17:01Z</time></trkpt><trkpt lat="46.527764675129724" lon="12.131319127504339"><ele>1192.5</ele><time>2026-05-03T15:17:04Z</time></trkpt><trkpt lat="46.52785807131674" lon="12.131288991008963"><ele>1193.3333333333333</ele><time>2026-05-03T15:17:07Z</time></trkpt><trkpt lat="46.52792189325448" lon="12.131240368107477"><ele>1194.1666666666665</ele><time>2026-05-03T15:17:09Z</time></trkpt><trkpt lat="46.527978106366206" lon="12.13119178174493"><ele>1195.0</ele><time>2026-05-03T15:17:11Z</time></trkpt><trkpt lat="46.52804411585354" lon="12.131153196234463"><ele>1196.142857142857</ele><time>2026-05-03T15:17:13Z</time></trkpt><trkpt lat="46.52811142619371" lon="12.131126652536889"><ele>1197.2857142857144</ele><time>2026-05-03T15:17:15Z</time></trkpt><trkpt lat="46.528204733561346" lon="12.131076548400845"><ele>1198.4285714285716</ele><time>2026-05-03T15:17:18Z</time></trkpt><trkpt lat="46.52826942861708" lon="12.131052028939944"><ele>1199.5714285714284</ele><time>2026-05-03T15:17:20Z</time></trkpt><trkpt lat="46.52833133912269" lon="12.131030026125645"><ele>1200.7142857142858</ele><time>2026-05-03T15:17:22Z</time></trkpt><trkpt lat="46.52839385757033" lon="12.131001985809762"><ele>1201.857142857143</ele><time>2026-05-03T15:17:24Z</time></trkpt><trkpt lat="46.52845839946488" lon="12.130972271004554"><ele>1203.0</ele><time>2026-05-03T15:17:26Z</time></trkpt><trkpt lat="46.528521084449" lon="12.130937678109568"><ele>1203.0</ele><time>2026-05-03T15:17:28Z</time></trkpt><trkpt lat="46.52857651955692" lon="12.130884976740342"><ele>1203.0</ele><time>2026-05-03T15:17:30Z</time></trkpt><trkpt lat="46.52862979977121" lon="12.130822476702376"><ele>1203.0</ele><time>2026-05-03T15:17:32Z</time></trkpt><trkpt lat="46.528689490072274" lon="12.130782008411243"><ele>1203.0</ele><time>2026-05-03T15:17:34Z</time></trkpt><trkpt lat="46.52874177755627" lon="12.130717127220288"><ele>1203.0</ele><time>2026-05-03T15:17:36Z</time></trkpt><trkpt lat="46.528791123267844" lon="12.130657602030476"><ele>1203.0</ele><time>2026-05-03T15:17:38Z</time></trkpt><trkpt lat="46.52884739215043" lon="12.13061326468745"><ele>1203.0</ele><time>2026-05-03T15:17:40Z</time></trkpt><trkpt lat="46.528911010724585" lon="12.1305906221341"><ele>1204.857142857143</ele><time>2026-05-03T15:17:42Z</time></trkpt><trkpt lat="46.52897131198542" lon="12.13056098240761"><ele>1206.7142857142858</ele><time>2026-05-03T15:17:44Z</time></trkpt><trkpt lat="46.52906472994504" lon="12.130538820997616"><ele>1208.5714285714284</ele><time>2026-05-03T15:17:47Z</time></trkpt><trkpt lat="46.529133500167276" lon="12.130526759356215"><ele>1210.4285714285716</ele><time>2026-05-03T15:17:49Z</time></trkpt><trkpt lat="46.52920461409115" lon="12.130519573029668"><ele>1212.2857142857144</ele><time>2026-05-03T15:17:51Z</time></trkpt><trkpt lat="46.52927029273291" lon="12.130512373523725"><ele>1214.142857142857</ele><time>2026-05-03T15:17:53Z</time></trkpt><trkpt lat="46.529335839442616" lon="12.130507871774567"><ele>1216.0</ele><time>2026-05-03T15:17:55Z</time></trkpt><trkpt lat="46.529402934571706" lon="12.130494544133729"><ele>1216.0</ele><time>2026-05-03T15:17:57Z</time></trkpt><trkpt lat="46.529470971051104" lon="12.130479948789572"><ele>1216.0</ele><time>2026-05-03T15:17:59Z</time></trkpt><trkpt lat="46.52953687863743" lon="12.130450434305704"><ele>1216.0</ele><time>2026-05-03T15:18:01Z</time></trkpt><trkpt lat="46.52959810477775" lon="12.130425985600018"><ele>1216.0</ele><time>2026-05-03T15:18:03Z</time></trkpt><trkpt lat="46.52965665019175" lon="12.130391832139615"><ele>1216.0</ele><time>2026-05-03T15:18:05Z</time></trkpt><trkpt lat="46.52971579639235" lon="12.130349982388896"><ele>1216.0</ele><time>2026-05-03T15:18:07Z</time></trkpt><trkpt lat="46.52977634018408" lon="12.13030319742605"><ele>1216.0</ele><time>2026-05-03T15:18:09Z</time></trkpt><trkpt lat="46.5298622971821" lon="12.130235759434033"><ele>1216.857142857143</ele><time>2026-05-03T15:18:12Z</time></trkpt><trkpt lat="46.52992053909827" lon="12.130190406093496"><ele>1217.7142857142858</ele><time>2026-05-03T15:18:14Z</time></trkpt><trkpt lat="46.52998433331875" lon="12.130157723330994"><ele>1218.5714285714287</ele><time>2026-05-03T15:18:16Z</time></trkpt><trkpt lat="46.5300455861658" lon="12.13010985201206"><ele>1219.4285714285716</ele><time>2026-05-03T15:18:18Z</time></trkpt><trkpt lat="46.53010313677234" lon="12.130055367875313"><ele>1220.2857142857142</ele><time>2026-05-03T15:18:20Z</time></trkpt><trkpt lat="46.53016040103077" lon="12.129994517480025"><ele>1221.1428571428573</ele><time>2026-05-03T15:18:22Z</time></trkpt><trkpt lat="46.53021409271732" lon="12.129930751489349"><ele>1222.0</ele><time>2026-05-03T15:18:24Z</time></trkpt><trkpt lat="46.53025733425998" lon="12.12985153498487"><ele>1223.0000000000002</ele><time>2026-05-03T15:18:26Z</time></trkpt><trkpt lat="46.530300438050354" lon="12.12977320911224"><ele>1224.0</ele><time>2026-05-03T15:18:28Z</time></trkpt><trkpt lat="46.53034795906415" lon="12.129702017653669"><ele>1225.0</ele><time>2026-05-03T15:18:30Z</time></trkpt><trkpt lat="46.530400416221894" lon="12.12963776417861"><ele>1226.0</ele><time>2026-05-03T15:18:32Z</time></trkpt><trkpt lat="46.530464376302135" lon="12.129592569175081"><ele>1227.0</ele><time>2026-05-03T15:18:34Z</time></trkpt><trkpt lat="46.53052530515549" lon="12.129547860173865"><ele>1228.0000000000002</ele><time>2026-05-03T15:18:36Z</time></trkpt><trkpt lat="46.530594762889216" lon="12.129528400719792"><ele>1229.0</ele><time>2026-05-03T15:18:38Z</time></trkpt><trkpt lat="46.530654880566324" lon="12.12949354912743"><ele>1230.0000000000002</ele><time>2026-05-03T15:18:40Z</time></trkpt><trkpt lat="46.53071584831591" lon="12.12946175400716"><ele>1231.0</ele><time>2026-05-03T15:18:42Z</time></trkpt><trkpt lat="46.53077528855697" lon="12.129413264274206"><ele>1232.0</ele><time>2026-05-03T15:18:44Z</time></trkpt><trkpt lat="46.53081939703223" lon="12.12934467779299"><ele>1233.0</ele><time>2026-05-03T15:18:46Z</time></trkpt><trkpt lat="46.53086258007929" lon="12.129229018358618"><ele>1234.0</ele><time>2026-05-03T15:18:49Z</time></trkpt><trkpt lat="46.53088184727878" lon="12.129136498568542"><ele>1235.0000000000002</ele><time>2026-05-03T15:18:51Z</time></trkpt><trkpt lat="46.530900862976424" lon="12.129042261910744"><ele>1236.0</ele><time>2026-05-03T15:18:53Z</time></trkpt><trkpt lat="46.5309294526898" lon="12.128921058481623"><ele>1236.857142857143</ele><time>2026-05-03T15:18:56Z</time></trkpt><trkpt lat="46.53097447195742" lon="12.128843859929958"><ele>1237.7142857142858</ele><time>2026-05-03T15:18:58Z</time></trkpt><trkpt lat="46.531036945251266" lon="12.128737369705863"><ele>1238.5714285714284</ele><time>2026-05-03T15:19:01Z</time></trkpt><trkpt lat="46.531086819736835" lon="12.128671838372773"><ele>1239.4285714285716</ele><time>2026-05-03T15:19:03Z</time></trkpt><trkpt lat="46.53113615609434" lon="12.128608855511706"><ele>1240.2857142857142</ele><time>2026-05-03T15:19:05Z</time></trkpt><trkpt lat="46.53118550636611" lon="12.128535801225276"><ele>1241.142857142857</ele><time>2026-05-03T15:19:07Z</time></trkpt><trkpt lat="46.53122957531449" lon="12.12845145394819"><ele>1242.0</ele><time>2026-05-03T15:19:09Z</time></trkpt><trkpt lat="46.53121765748084" lon="12.12832794536251"><ele>1242.8</ele><time>2026-05-03T15:19:11Z</time></trkpt><trkpt lat="46.53115510804298" lon="12.128221778824363"><ele>1243.6</ele><time>2026-05-03T15:19:13Z</time></trkpt><trkpt lat="46.53106051250036" lon="12.12815210006223"><ele>1244.3999999999999</ele><time>2026-05-03T15:19:15Z</time></trkpt><trkpt lat="46.530971539745345" lon="12.128101602043623"><ele>1245.2</ele><time>2026-05-03T15:19:17Z</time></trkpt><trkpt lat="46.53088561574387" lon="12.12805898186962"><ele>1246.0</ele><time>2026-05-03T15:19:19Z</time></trkpt><trkpt lat="46.53080483103025" lon="12.128004310551574"><ele>1246.0</ele><time>2026-05-03T15:19:21Z</time></trkpt><trkpt lat="46.53070861017249" lon="12.127954309486473"><ele>1246.0</ele><time>2026-05-03T15:19:23Z</time></trkpt><trkpt lat="46.53062021237358" lon="12.12789628349826"><ele>1246.0</ele><time>2026-05-03T15:19:25Z</time></trkpt><trkpt lat="46.530528802839584" lon="12.12780775497417"><ele>1246.0</ele><time>2026-05-03T15:19:27Z</time></trkpt><trkpt lat="46.53043945819827" lon="12.127688002771675"><ele>1246.0</ele><time>2026-05-03T15:19:29Z</time></trkpt><trkpt lat="46.53038379159644" lon="12.127629517921074"><ele>1245.5</ele><time>2026-05-03T15:19:30Z</time></trkpt><trkpt lat="46.530327770089876" lon="12.127580650884623"><ele>1245.0</ele><time>2026-05-03T15:19:31Z</time></trkpt><trkpt lat="46.530212411398026" lon="12.127478595167416"><ele>1244.5</ele><time>2026-05-03T15:19:33Z</time></trkpt><trkpt lat="46.530162586250775" lon="12.127415872155034"><ele>1244.0</ele><time>2026-05-03T15:19:34Z</time></trkpt><trkpt lat="46.53010479907931" lon="12.12733644547043"><ele>1243.5</ele><time>2026-05-03T15:19:35Z</time></trkpt><trkpt lat="46.530043575692225" lon="12.127274450122075"><ele>1243.0</ele><time>2026-05-03T15:19:36Z</time></trkpt><trkpt lat="46.53000304312673" lon="12.127179662956593"><ele>1243.0</ele><time>2026-05-03T15:19:37Z</time></trkpt><trkpt lat="46.52997132035317" lon="12.127083814742164"><ele>1243.0</ele><time>2026-05-03T15:19:38Z</time></trkpt><trkpt lat="46.529953307027164" lon="12.126985093498643"><ele>1243.0</ele><time>2026-05-03T15:19:39Z</time></trkpt><trkpt lat="46.5299267485564" lon="12.126885365719405"><ele>1243.0</ele><time>2026-05-03T15:19:40Z</time></trkpt><trkpt lat="46.529874981556894" lon="12.12672934043822"><ele>1243.0</ele><time>2026-05-03T15:19:42Z</time></trkpt><trkpt lat="46.52978420749546" lon="12.12672404316557"><ele>1243.0</ele><time>2026-05-03T15:19:43Z</time></trkpt><trkpt lat="46.529717493593246" lon="12.126791014908042"><ele>1243.0</ele><time>2026-05-03T15:19:44Z</time></trkpt><trkpt lat="46.52967517924951" lon="12.126865516386017"><ele>1243.0</ele><time>2026-05-03T15:19:45Z</time></trkpt><trkpt lat="46.529583965435485" lon="12.126895266569292"><ele>1243.0</ele><time>2026-05-03T15:19:47Z</time></trkpt><trkpt lat="46.52948007147555" lon="12.12695743774957"><ele>1243.0</ele><time>2026-05-03T15:19:49Z</time></trkpt><trkpt lat="46.52936538710117" lon="12.126993563445874"><ele>1243.0</ele><time>2026-05-03T15:19:50.999Z</time></trkpt><trkpt lat="46.52927100350169" lon="12.127030047464725"><ele>1244.0</ele><time>2026-05-03T15:19:52.999Z</time></trkpt><trkpt lat="46.52918589970567" lon="12.127066040483578"><ele>1245.0</ele><time>2026-05-03T15:19:54.999Z</time></trkpt><trkpt lat="46.529095203621736" lon="12.127096837223938"><ele>1246.0</ele><time>2026-05-03T15:19:57Z</time></trkpt><trkpt lat="46.52898430970197" lon="12.127132119771035"><ele>1247.0</ele><time>2026-05-03T15:19:59Z</time></trkpt><trkpt lat="46.52892108292026" lon="12.127152478730444"><ele>1248.0</ele><time>2026-05-03T15:20:00Z</time></trkpt><trkpt lat="46.528858612488015" lon="12.127171761498964"><ele>1249.0</ele><time>2026-05-03T15:20:01Z</time></trkpt><trkpt lat="46.528797209941835" lon="12.127192666460346"><ele>1247.6666666666665</ele><time>2026-05-03T15:20:02Z</time></trkpt><trkpt lat="46.5286682486299" lon="12.127213494371755"><ele>1246.3333333333333</ele><time>2026-05-03T15:20:04Z</time></trkpt><trkpt lat="46.52859209400647" lon="12.127214227079198"><ele>1245.0</ele><time>2026-05-03T15:20:05Z</time></trkpt><trkpt lat="46.52851836013458" lon="12.12720932174144"><ele>1243.6666666666667</ele><time>2026-05-03T15:20:06Z</time></trkpt><trkpt lat="46.52843891066576" lon="12.127204594329754"><ele>1242.3333333333335</ele><time>2026-05-03T15:20:07Z</time></trkpt><trkpt lat="46.52835987713958" lon="12.127215418373511"><ele>1241.0</ele><time>2026-05-03T15:20:08Z</time></trkpt><trkpt lat="46.52827792267703" lon="12.127232425621308"><ele>1241.0</ele><time>2026-05-03T15:20:09Z</time></trkpt><trkpt lat="46.528186868944275" lon="12.127250929310566"><ele>1241.0</ele><time>2026-05-03T15:20:10Z</time></trkpt><trkpt lat="46.52809636459139" lon="12.12727326625669"><ele>1241.0</ele><time>2026-05-03T15:20:11Z</time></trkpt><trkpt lat="46.52800629624213" lon="12.127306452220896"><ele>1241.0</ele><time>2026-05-03T15:20:12Z</time></trkpt><trkpt lat="46.52791906221716" lon="12.127330448342782"><ele>1241.0</ele><time>2026-05-03T15:20:13Z</time></trkpt><trkpt lat="46.52782210993247" lon="12.127340482267892"><ele>1239.5</ele><time>2026-05-03T15:20:14Z</time></trkpt><trkpt lat="46.52773872844577" lon="12.12737513321828"><ele>1238.0</ele><time>2026-05-03T15:20:15Z</time></trkpt><trkpt lat="46.52766067834838" lon="12.127409235829278"><ele>1236.5</ele><time>2026-05-03T15:20:16Z</time></trkpt><trkpt lat="46.52758210978222" lon="12.127453833594965"><ele>1235.0</ele><time>2026-05-03T15:20:17Z</time></trkpt><trkpt lat="46.527512533617994" lon="12.127499166277012"><ele>1233.5</ele><time>2026-05-03T15:20:18Z</time></trkpt><trkpt lat="46.52744339824657" lon="12.127509208748345"><ele>1232.0</ele><time>2026-05-03T15:20:19Z</time></trkpt><trkpt lat="46.527355107220444" lon="12.127496877809818"><ele>1232.0</ele><time>2026-05-03T15:20:21Z</time></trkpt><trkpt lat="46.52726544186198" lon="12.127452003693255"><ele>1232.0</ele><time>2026-05-03T15:20:23Z</time></trkpt><trkpt lat="46.52718028538072" lon="12.127435270166178"><ele>1232.0</ele><time>2026-05-03T15:20:25Z</time></trkpt><trkpt lat="46.52711687928794" lon="12.127457421766033"><ele>1232.0</ele><time>2026-05-03T15:20:26Z</time></trkpt><trkpt lat="46.52700630895197" lon="12.12749276958686"><ele>1232.0</ele><time>2026-05-03T15:20:28Z</time></trkpt><trkpt lat="46.52690176767401" lon="12.12746119944029"><ele>1233.3333333333335</ele><time>2026-05-03T15:20:30Z</time></trkpt><trkpt lat="46.52681470702087" lon="12.127426256330974"><ele>1234.6666666666667</ele><time>2026-05-03T15:20:32Z</time></trkpt><trkpt lat="46.526750295336356" lon="12.127351620210222"><ele>1236.0</ele><time>2026-05-03T15:20:34Z</time></trkpt><trkpt lat="46.52668163559449" lon="12.127293897720042"><ele>1237.3333333333333</ele><time>2026-05-03T15:20:36Z</time></trkpt><trkpt lat="46.52660964159431" lon="12.12730860185339"><ele>1238.6666666666665</ele><time>2026-05-03T15:20:38Z</time></trkpt><trkpt lat="46.526529015460476" lon="12.12731993137745"><ele>1240.0</ele><time>2026-05-03T15:20:39Z</time></trkpt><trkpt lat="46.526462537204694" lon="12.1272952703523"><ele>1244.4</ele><time>2026-05-03T15:20:40Z</time></trkpt><trkpt lat="46.526364447633874" lon="12.127194995399288"><ele>1248.8</ele><time>2026-05-03T15:20:42Z</time></trkpt><trkpt lat="46.52629287604394" lon="12.127081514196682"><ele>1253.2</ele><time>2026-05-03T15:20:44Z</time></trkpt><trkpt lat="46.52623161868223" lon="12.127014738649258"><ele>1257.6</ele><time>2026-05-03T15:20:46Z</time></trkpt><trkpt lat="46.5261555659582" lon="12.12694723698865"><ele>1262.0</ele><time>2026-05-03T15:20:48Z</time></trkpt><trkpt lat="46.52607481096856" lon="12.126905946133498"><ele>1262.5</ele><time>2026-05-03T15:20:50Z</time></trkpt><trkpt lat="46.52599130291164" lon="12.126889000599398"><ele>1263.0</ele><time>2026-05-03T15:20:52Z</time></trkpt><trkpt lat="46.525902428787745" lon="12.126892617395363"><ele>1263.5</ele><time>2026-05-03T15:20:54Z</time></trkpt><trkpt lat="46.525836237302016" lon="12.126929844260804"><ele>1264.0</ele><time>2026-05-03T15:20:56Z</time></trkpt><trkpt lat="46.52576895431653" lon="12.126951679043964"><ele>1264.5</ele><time>2026-05-03T15:20:59Z</time></trkpt><trkpt lat="46.52570579703102" lon="12.126981760020106"><ele>1265.0</ele><time>2026-05-03T15:21:02Z</time></trkpt><trkpt lat="46.52564663184909" lon="12.127057063694556"><ele>1265.0</ele><time>2026-05-03T15:21:05Z</time></trkpt><trkpt lat="46.52555991760698" lon="12.127120043297069"><ele>1265.0</ele><time>2026-05-03T15:21:07Z</time></trkpt><trkpt lat="46.52549017372268" lon="12.127158686357467"><ele>1265.0</ele><time>2026-05-03T15:21:09Z</time></trkpt><trkpt lat="46.52540036281602" lon="12.127184012025038"><ele>1265.0</ele><time>2026-05-03T15:21:12Z</time></trkpt><trkpt lat="46.52532577617275" lon="12.127189909458686"><ele>1265.0</ele><time>2026-05-03T15:21:15Z</time></trkpt><trkpt lat="46.525228721203554" lon="12.127158580119229"><ele>1265.0</ele><time>2026-05-03T15:21:17Z</time></trkpt><trkpt lat="46.52514935174273" lon="12.127049064077871"><ele>1265.1666666666667</ele><time>2026-05-03T15:21:19Z</time></trkpt><trkpt lat="46.525086923680114" lon="12.12701660042794"><ele>1265.3333333333335</ele><time>2026-05-03T15:21:21Z</time></trkpt><trkpt lat="46.52499975033856" lon="12.126984221282754"><ele>1265.5</ele><time>2026-05-03T15:21:23Z</time></trkpt><trkpt lat="46.524915000499256" lon="12.126953909064905"><ele>1265.6666666666667</ele><time>2026-05-03T15:21:25Z</time></trkpt><trkpt lat="46.524821388990624" lon="12.126935340457205"><ele>1265.8333333333333</ele><time>2026-05-03T15:21:27Z</time></trkpt><trkpt lat="46.52473838366808" lon="12.126885529298914"><ele>1266.0</ele><time>2026-05-03T15:21:29Z</time></trkpt><trkpt lat="46.52465879875586" lon="12.126803488466683"><ele>1266.0</ele><time>2026-05-03T15:21:31Z</time></trkpt><trkpt lat="46.5246112235562" lon="12.126724571460253"><ele>1266.0</ele><time>2026-05-03T15:21:33Z</time></trkpt><trkpt lat="46.524540197446505" lon="12.126620661371689"><ele>1266.0</ele><time>2026-05-03T15:21:35Z</time></trkpt><trkpt lat="46.524467442424154" lon="12.126533697931826"><ele>1266.0</ele><time>2026-05-03T15:21:37Z</time></trkpt><trkpt lat="46.524412654643854" lon="12.126467888826104"><ele>1266.0</ele><time>2026-05-03T15:21:39Z</time></trkpt><trkpt lat="46.52434495099517" lon="12.126406768680898"><ele>1266.0</ele><time>2026-05-03T15:21:41Z</time></trkpt><trkpt lat="46.524272420052874" lon="12.126340847933001"><ele>1268.8333333333333</ele><time>2026-05-03T15:21:43Z</time></trkpt><trkpt lat="46.5241815398042" lon="12.126289997409948"><ele>1271.6666666666667</ele><time>2026-05-03T15:21:45Z</time></trkpt><trkpt lat="46.52410050671082" lon="12.126249905511814"><ele>1274.5</ele><time>2026-05-03T15:21:47Z</time></trkpt><trkpt lat="46.523999725695596" lon="12.126246027633048"><ele>1277.3333333333335</ele><time>2026-05-03T15:21:49Z</time></trkpt><trkpt lat="46.52392362147169" lon="12.12626143377692"><ele>1280.1666666666667</ele><time>2026-05-03T15:21:52Z</time></trkpt><trkpt lat="46.52385848859241" lon="12.126245370479245"><ele>1283.0</ele><time>2026-05-03T15:21:54Z</time></trkpt><trkpt lat="46.52379311368157" lon="12.126224901785054"><ele>1281.6666666666667</ele><time>2026-05-03T15:21:56Z</time></trkpt><trkpt lat="46.52372682751942" lon="12.126160744883082"><ele>1280.3333333333335</ele><time>2026-05-03T15:21:58Z</time></trkpt><trkpt lat="46.523645660488995" lon="12.12603784061106"><ele>1279.0</ele><time>2026-05-03T15:22:00Z</time></trkpt><trkpt lat="46.52357551966934" lon="12.126004152253806"><ele>1277.6666666666667</ele><time>2026-05-03T15:22:01Z</time></trkpt><trkpt lat="46.523513193992706" lon="12.125967819705824"><ele>1276.3333333333333</ele><time>2026-05-03T15:22:02Z</time></trkpt><trkpt lat="46.52343808326432" lon="12.12588340437732"><ele>1275.0</ele><time>2026-05-03T15:22:04Z</time></trkpt><trkpt lat="46.52337625365325" lon="12.12582790429989"><ele>1275.0</ele><time>2026-05-03T15:22:06Z</time></trkpt><trkpt lat="46.523277754530675" lon="12.125725769758336"><ele>1275.0</ele><time>2026-05-03T15:22:08Z</time></trkpt><trkpt lat="46.52318253221281" lon="12.125731350277727"><ele>1275.0</ele><time>2026-05-03T15:22:10Z</time></trkpt><trkpt lat="46.523090378178644" lon="12.125682748327835"><ele>1275.0</ele><time>2026-05-03T15:22:12Z</time></trkpt><trkpt lat="46.522991958196975" lon="12.125623137847095"><ele>1275.0</ele><time>2026-05-03T15:22:14Z</time></trkpt><trkpt lat="46.52288314631649" lon="12.125523151014587"><ele>1276.8</ele><time>2026-05-03T15:22:16Z</time></trkpt><trkpt lat="46.52278841453109" lon="12.125451007938926"><ele>1278.6</ele><time>2026-05-03T15:22:18Z</time></trkpt><trkpt lat="46.522718894239176" lon="12.12537158133024"><ele>1280.4</ele><time>2026-05-03T15:22:20Z</time></trkpt><trkpt lat="46.522685354594394" lon="12.12526760147126"><ele>1282.2</ele><time>2026-05-03T15:22:23Z</time></trkpt><trkpt lat="46.52263166170015" lon="12.12521716786767"><ele>1284.0</ele><time>2026-05-03T15:22:25Z</time></trkpt><trkpt lat="46.52236257029363" lon="12.125073896085118"><ele>1284.0</ele><time>2026-05-03T15:22:29Z</time></trkpt><trkpt lat="46.52226221094258" lon="12.125156052614958"><ele>1284.0</ele><time>2026-05-03T15:22:31Z</time></trkpt><trkpt lat="46.52214650252245" lon="12.125167795978783"><ele>1284.0</ele><time>2026-05-03T15:22:33Z</time></trkpt><trkpt lat="46.52204221371414" lon="12.125128883059979"><ele>1284.0</ele><time>2026-05-03T15:22:35Z</time></trkpt><trkpt lat="46.521951450895784" lon="12.125072425243733"><ele>1284.0</ele><time>2026-05-03T15:22:37Z</time></trkpt><trkpt lat="46.521875133506434" lon="12.12501674688093"><ele>1282.3333333333333</ele><time>2026-05-03T15:22:39Z</time></trkpt><trkpt lat="46.52179787766463" lon="12.124945808844988"><ele>1280.6666666666667</ele><time>2026-05-03T15:22:41Z</time></trkpt><trkpt lat="46.52175488654714" lon="12.124878526900902"><ele>1279.0</ele><time>2026-05-03T15:22:43Z</time></trkpt><trkpt lat="46.521707471096796" lon="12.124791460549638"><ele>1277.3333333333335</ele><time>2026-05-03T15:22:45Z</time></trkpt><trkpt lat="46.52163082497299" lon="12.124723460056064"><ele>1275.6666666666667</ele><time>2026-05-03T15:22:47Z</time></trkpt><trkpt lat="46.521539075228006" lon="12.124682371288404"><ele>1274.0</ele><time>2026-05-03T15:22:49Z</time></trkpt><trkpt lat="46.52146400894745" lon="12.124634211707077"><ele>1277.5</ele><time>2026-05-03T15:22:51Z</time></trkpt><trkpt lat="46.521389702183846" lon="12.124549418048897"><ele>1281.0</ele><time>2026-05-03T15:22:53Z</time></trkpt><trkpt lat="46.5213765774208" lon="12.12443692782349"><ele>1284.5</ele><time>2026-05-03T15:22:55Z</time></trkpt><trkpt lat="46.521314370850284" lon="12.124342395212974"><ele>1288.0</ele><time>2026-05-03T15:22:58Z</time></trkpt><trkpt lat="46.521244514759886" lon="12.124289439613854"><ele>1291.5</ele><time>2026-05-03T15:23:00Z</time></trkpt><trkpt lat="46.521173214738965" lon="12.12424725462906"><ele>1295.0</ele><time>2026-05-03T15:23:02Z</time></trkpt><trkpt lat="46.52107175541656" lon="12.124207457695293"><ele>1295.0</ele><time>2026-05-03T15:23:04Z</time></trkpt><trkpt lat="46.52099918785099" lon="12.124198073653526"><ele>1295.0</ele><time>2026-05-03T15:23:06Z</time></trkpt><trkpt lat="46.520917916441675" lon="12.12422525036584"><ele>1295.0</ele><time>2026-05-03T15:23:09Z</time></trkpt><trkpt lat="46.520847082769585" lon="12.124216183491125"><ele>1295.0</ele><time>2026-05-03T15:23:11Z</time></trkpt><trkpt lat="46.52078552686568" lon="12.124194915946724"><ele>1295.0</ele><time>2026-05-03T15:23:13Z</time></trkpt><trkpt lat="46.52069244162119" lon="12.124210986386458"><ele>1295.0</ele><time>2026-05-03T15:23:16Z</time></trkpt><trkpt lat="46.52061787421995" lon="12.124230163521245"><ele>1295.0</ele><time>2026-05-03T15:23:18Z</time></trkpt><trkpt lat="46.52054348024843" lon="12.124230050261417"><ele>1295.0</ele><time>2026-05-03T15:23:20Z</time></trkpt><trkpt lat="46.52046598816973" lon="12.124258519464641"><ele>1295.0</ele><time>2026-05-03T15:23:22Z</time></trkpt><trkpt lat="46.52036358545548" lon="12.124239027968866"><ele>1295.0</ele><time>2026-05-03T15:23:25Z</time></trkpt><trkpt lat="46.520341108335046" lon="12.124150873513358"><ele>1295.0</ele><time>2026-05-03T15:23:27Z</time></trkpt><trkpt lat="46.52033290462519" lon="12.124059756354145"><ele>1295.0</ele><time>2026-05-03T15:23:29Z</time></trkpt><trkpt lat="46.520332866005816" lon="12.123958448029779"><ele>1295.5</ele><time>2026-05-03T15:23:31Z</time></trkpt><trkpt lat="46.52031543681239" lon="12.123826413333006"><ele>1296.0</ele><time>2026-05-03T15:23:34Z</time></trkpt><trkpt lat="46.52030178621623" lon="12.123721825890799"><ele>1296.5</ele><time>2026-05-03T15:23:36Z</time></trkpt><trkpt lat="46.52027378539601" lon="12.123634138074593"><ele>1297.0</ele><time>2026-05-03T15:23:38Z</time></trkpt><trkpt lat="46.520234493737796" lon="12.123513459050786"><ele>1297.5</ele><time>2026-05-03T15:23:41Z</time></trkpt><trkpt lat="46.520201092079404" lon="12.12343342315908"><ele>1298.0</ele><time>2026-05-03T15:23:44Z</time></trkpt><trkpt lat="46.52016372593997" lon="12.123315235091923"><ele>1301.0</ele><time>2026-05-03T15:23:47Z</time></trkpt><trkpt lat="46.520169985233245" lon="12.123223817093683"><ele>1304.0</ele><time>2026-05-03T15:23:49Z</time></trkpt><trkpt lat="46.5200797503951" lon="12.123001064529257"><ele>1307.0</ele><time>2026-05-03T15:23:52Z</time></trkpt><trkpt lat="46.51995226209825" lon="12.12280787186249"><ele>1310.0</ele><time>2026-05-03T15:23:53Z</time></trkpt><trkpt lat="46.51984042452123" lon="12.122813993205645"><ele>1310.0</ele><time>2026-05-03T15:23:55Z</time></trkpt><trkpt lat="46.51974032038324" lon="12.122842478789684"><ele>1310.0</ele><time>2026-05-03T15:23:57Z</time></trkpt><trkpt lat="46.51965060265064" lon="12.122811129653488"><ele>1310.0</ele><time>2026-05-03T15:23:59Z</time></trkpt><trkpt lat="46.51958595357721" lon="12.122750342961503"><ele>1310.0</ele><time>2026-05-03T15:24:01Z</time></trkpt><trkpt lat="46.51954819032132" lon="12.122663326781343"><ele>1310.0</ele><time>2026-05-03T15:24:03Z</time></trkpt><trkpt lat="46.51956518598071" lon="12.122556725057803"><ele>1310.0</ele><time>2026-05-03T15:24:06Z</time></trkpt><trkpt lat="46.51959906290794" lon="12.122421895870941"><ele>1309.8</ele><time>2026-05-03T15:24:09Z</time></trkpt><trkpt lat="46.51959261651069" lon="12.12226105937548"><ele>1309.6</ele><time>2026-05-03T15:24:11Z</time></trkpt><trkpt lat="46.51961084357741" lon="12.122115511264436"><ele>1309.4</ele><time>2026-05-03T15:24:13Z</time></trkpt><trkpt lat="46.519597823676555" lon="12.121996632070303"><ele>1309.2</ele><time>2026-05-03T15:24:15Z</time></trkpt><trkpt lat="46.51952242666679" lon="12.121959780064968"><ele>1309.0</ele><time>2026-05-03T15:24:17Z</time></trkpt><trkpt lat="46.51943325327533" lon="12.121914808371542"><ele>1309.0</ele><time>2026-05-03T15:24:19Z</time></trkpt><trkpt lat="46.51936532629728" lon="12.121882120250424"><ele>1309.0</ele><time>2026-05-03T15:24:21Z</time></trkpt><trkpt lat="46.519288822907214" lon="12.121822521844464"><ele>1309.0</ele><time>2026-05-03T15:24:23Z</time></trkpt><trkpt lat="46.51923863593145" lon="12.12176423553502"><ele>1309.0</ele><time>2026-05-03T15:24:25Z</time></trkpt><trkpt lat="46.519177232875215" lon="12.121700286675418"><ele>1309.0</ele><time>2026-05-03T15:24:27Z</time></trkpt><trkpt lat="46.51913861651026" lon="12.121595925507163"><ele>1309.0</ele><time>2026-05-03T15:24:29Z</time></trkpt><trkpt lat="46.51914767020091" lon="12.12149177942936"><ele>1310.1666666666665</ele><time>2026-05-03T15:24:31Z</time></trkpt><trkpt lat="46.519130499491745" lon="12.12140198274085"><ele>1311.3333333333333</ele><time>2026-05-03T15:24:33Z</time></trkpt><trkpt lat="46.519069174286116" lon="12.121328105376508"><ele>1312.5</ele><time>2026-05-03T15:24:35Z</time></trkpt><trkpt lat="46.518984938425554" lon="12.12125428756884"><ele>1313.6666666666667</ele><time>2026-05-03T15:24:37Z</time></trkpt><trkpt lat="46.51891780654181" lon="12.121157190354873"><ele>1314.8333333333335</ele><time>2026-05-03T15:24:39Z</time></trkpt><trkpt lat="46.51887248815818" lon="12.1210361184544"><ele>1316.0</ele><time>2026-05-03T15:24:42Z</time></trkpt><trkpt lat="46.51885266009733" lon="12.120949241323956"><ele>1316.0</ele><time>2026-05-03T15:24:45Z</time></trkpt><trkpt lat="46.51881218886297" lon="12.120869945988842"><ele>1316.0</ele><time>2026-05-03T15:24:47Z</time></trkpt><trkpt lat="46.51875723866387" lon="12.120764619783793"><ele>1316.0</ele><time>2026-05-03T15:24:51Z</time></trkpt><trkpt lat="46.518717419189194" lon="12.120687216730026"><ele>1316.0</ele><time>2026-05-03T15:24:54Z</time></trkpt><trkpt lat="46.51868801239948" lon="12.120600792019758"><ele>1316.0</ele><time>2026-05-03T15:24:57Z</time></trkpt><trkpt lat="46.518612019691545" lon="12.120595955925703"><ele>1316.0</ele><time>2026-05-03T15:25:00Z</time></trkpt><trkpt lat="46.51861387247974" lon="12.12072466954781"><ele>1319.0</ele><time>2026-05-03T15:25:03Z</time></trkpt><trkpt lat="46.51864269499734" lon="12.120859391922696"><ele>1322.0</ele><time>2026-05-03T15:25:06Z</time></trkpt><trkpt lat="46.51867185836585" lon="12.120961642761989"><ele>1325.0</ele><time>2026-05-03T15:25:08Z</time></trkpt><trkpt lat="46.518686037543745" lon="12.121055226735752"><ele>1328.0</ele><time>2026-05-03T15:25:10Z</time></trkpt><trkpt lat="46.51865703747587" lon="12.12115918998082"><ele>1331.0</ele><time>2026-05-03T15:25:12Z</time></trkpt><trkpt lat="46.51862661594755" lon="12.121301482459568"><ele>1334.0</ele><time>2026-05-03T15:25:14Z</time></trkpt><trkpt lat="46.51858837778451" lon="12.1214212173754"><ele>1334.0</ele><time>2026-05-03T15:25:16Z</time></trkpt><trkpt lat="46.51850926308337" lon="12.12151076274269"><ele>1334.0</ele><time>2026-05-03T15:25:18Z</time></trkpt><trkpt lat="46.5184562422743" lon="12.121560283867465"><ele>1334.0</ele><time>2026-05-03T15:25:19Z</time></trkpt><trkpt lat="46.51836484535058" lon="12.121654879045648"><ele>1334.0</ele><time>2026-05-03T15:25:21Z</time></trkpt><trkpt lat="46.51830138086308" lon="12.121669784182918"><ele>1334.0</ele><time>2026-05-03T15:25:22Z</time></trkpt><trkpt lat="46.51815900125979" lon="12.12164519650833"><ele>1334.0</ele><time>2026-05-03T15:25:24Z</time></trkpt><trkpt lat="46.51806666582997" lon="12.121576182839735"><ele>1334.0</ele><time>2026-05-03T15:25:26Z</time></trkpt><trkpt lat="46.5180044150421" lon="12.121549302892808"><ele>1334.0</ele><time>2026-05-03T15:25:28Z</time></trkpt><trkpt lat="46.51791273284464" lon="12.121500071860025"><ele>1334.0</ele><time>2026-05-03T15:25:31Z</time></trkpt><trkpt lat="46.51783368791728" lon="12.121473380690896"><ele>1334.0</ele><time>2026-05-03T15:25:33Z</time></trkpt><trkpt lat="46.5177574638527" lon="12.12145296086041"><ele>1334.0</ele><time>2026-05-03T15:25:35Z</time></trkpt><trkpt lat="46.517690572552674" lon="12.12144143162447"><ele>1334.8333333333335</ele><time>2026-05-03T15:25:37Z</time></trkpt><trkpt lat="46.517624948862014" lon="12.121441393429457"><ele>1335.6666666666667</ele><time>2026-05-03T15:25:39Z</time></trkpt><trkpt lat="46.51754993090774" lon="12.121455301760717"><ele>1336.5</ele><time>2026-05-03T15:25:42Z</time></trkpt><trkpt lat="46.517484116703905" lon="12.121429261443982"><ele>1337.3333333333333</ele><time>2026-05-03T15:25:44Z</time></trkpt><trkpt lat="46.517390676972845" lon="12.121404827408629"><ele>1338.1666666666665</ele><time>2026-05-03T15:25:47Z</time></trkpt><trkpt lat="46.51732430564227" lon="12.121394610175484"><ele>1339.0</ele><time>2026-05-03T15:25:49Z</time></trkpt><trkpt lat="46.51724464890213" lon="12.121406526318149"><ele>1339.0</ele><time>2026-05-03T15:25:52Z</time></trkpt><trkpt lat="46.51716088465667" lon="12.121437962429868"><ele>1339.0</ele><time>2026-05-03T15:25:55Z</time></trkpt><trkpt lat="46.51710555285229" lon="12.121526192937585"><ele>1339.0</ele><time>2026-05-03T15:25:59Z</time></trkpt><trkpt lat="46.51702600509794" lon="12.121563336004327"><ele>1339.0</ele><time>2026-05-03T15:26:03Z</time></trkpt><trkpt lat="46.51699722910983" lon="12.12140382099305"><ele>1339.0</ele><time>2026-05-03T15:27:13Z</time></trkpt><trkpt lat="46.51703942860292" lon="12.121331133356474"><ele>1339.0</ele><time>2026-05-03T15:27:15Z</time></trkpt><trkpt lat="46.51710990919535" lon="12.121258985722061"><ele>1339.0</ele><time>2026-05-03T15:27:19Z</time></trkpt><trkpt lat="46.51717145520278" lon="12.121182075412081"><ele>1339.0</ele><time>2026-05-03T15:27:22Z</time></trkpt><trkpt lat="46.51721183955999" lon="12.121103398526882"><ele>1339.0</ele><time>2026-05-03T15:27:25Z</time></trkpt><trkpt lat="46.517266519747345" lon="12.12101885842769"><ele>1339.0</ele><time>2026-05-03T15:27:28Z</time></trkpt><trkpt lat="46.517323760254" lon="12.120935284243254"><ele>1339.0</ele><time>2026-05-03T15:27:31Z</time></trkpt><trkpt lat="46.51737899115453" lon="12.120883631023855"><ele>1339.0</ele><time>2026-05-03T15:27:33Z</time></trkpt><trkpt lat="46.51745836538745" lon="12.1208469632542"><ele>1339.0</ele><time>2026-05-03T15:27:35Z</time></trkpt><trkpt lat="46.517516985038746" lon="12.120803097602831"><ele>1339.0</ele><time>2026-05-03T15:27:37Z</time></trkpt><trkpt lat="46.51759143365478" lon="12.120730695598006"><ele>1339.0</ele><time>2026-05-03T15:27:39Z</time></trkpt><trkpt lat="46.51766577502742" lon="12.120672915017586"><ele>1339.0</ele><time>2026-05-03T15:27:41Z</time></trkpt><trkpt lat="46.517742897121096" lon="12.12063104659706"><ele>1339.0</ele><time>2026-05-03T15:27:43Z</time></trkpt><trkpt lat="46.51780370140082" lon="12.120554678078863"><ele>1339.0</ele><time>2026-05-03T15:27:45Z</time></trkpt><trkpt lat="46.5178860952532" lon="12.120463572334867"><ele>1339.5</ele><time>2026-05-03T15:27:48Z</time></trkpt><trkpt lat="46.517948518328495" lon="12.120391939426685"><ele>1340.0</ele><time>2026-05-03T15:27:50Z</time></trkpt><trkpt lat="46.51797480386818" lon="12.120296365194381"><ele>1340.5</ele><time>2026-05-03T15:27:52Z</time></trkpt><trkpt lat="46.51796910338033" lon="12.120176879341216"><ele>1341.0</ele><time>2026-05-03T15:27:54Z</time></trkpt><trkpt lat="46.51794570542455" lon="12.120072386115945"><ele>1341.5</ele><time>2026-05-03T15:27:59Z</time></trkpt><trkpt lat="46.5179193727" lon="12.11997764247574"><ele>1342.0</ele><time>2026-05-03T15:28:01Z</time></trkpt><trkpt lat="46.51789136710995" lon="12.119880666424528"><ele>1346.5</ele><time>2026-05-03T15:28:04Z</time></trkpt><trkpt lat="46.51784118648561" lon="12.119775508066335"><ele>1351.0</ele><time>2026-05-03T15:28:06Z</time></trkpt><trkpt lat="46.51781018915052" lon="12.119682921672984"><ele>1355.5</ele><time>2026-05-03T15:28:08Z</time></trkpt><trkpt lat="46.517791562937916" lon="12.119554558913062"><ele>1360.0</ele><time>2026-05-03T15:28:10Z</time></trkpt><trkpt lat="46.51775973153918" lon="12.119461328557405"><ele>1364.5</ele><time>2026-05-03T15:28:12Z</time></trkpt><trkpt lat="46.51770260908959" lon="12.119342052125553"><ele>1369.0</ele><time>2026-05-03T15:28:16Z</time></trkpt><trkpt lat="46.51764383658898" lon="12.11924995270437"><ele>1369.0</ele><time>2026-05-03T15:28:18Z</time></trkpt><trkpt lat="46.517606430191435" lon="12.119127495929199"><ele>1369.0</ele><time>2026-05-03T15:28:21.001Z</time></trkpt><trkpt lat="46.51756993008777" lon="12.119011912273175"><ele>1369.0</ele><time>2026-05-03T15:28:24Z</time></trkpt><trkpt lat="46.517569670294456" lon="12.11888616670574"><ele>1369.0</ele><time>2026-05-03T15:28:27Z</time></trkpt><trkpt lat="46.517560431099824" lon="12.118794312596027"><ele>1369.0</ele><time>2026-05-03T15:28:29Z</time></trkpt><trkpt lat="46.517538270564394" lon="12.118674646654148"><ele>1369.0</ele><time>2026-05-03T15:28:31Z</time></trkpt><trkpt lat="46.51754832004964" lon="12.118548648824474"><ele>1371.5</ele><time>2026-05-03T15:28:33Z</time></trkpt><trkpt lat="46.517556519029675" lon="12.118435826941717"><ele>1374.0</ele><time>2026-05-03T15:28:35Z</time></trkpt><trkpt lat="46.517568149701724" lon="12.118343701493995"><ele>1376.5</ele><time>2026-05-03T15:28:37Z</time></trkpt><trkpt lat="46.51761458191325" lon="12.118244700309674"><ele>1379.0</ele><time>2026-05-03T15:28:41Z</time></trkpt><trkpt lat="46.51768861237522" lon="12.118264357474983"><ele>1381.5</ele><time>2026-05-03T15:28:44Z</time></trkpt><trkpt lat="46.51775946608564" lon="12.118328909412263"><ele>1384.0</ele><time>2026-05-03T15:28:47Z</time></trkpt><trkpt lat="46.5178229434849" lon="12.118354559112152"><ele>1383.6666666666665</ele><time>2026-05-03T15:28:50Z</time></trkpt><trkpt lat="46.517909573752675" lon="12.118332349664943"><ele>1383.3333333333333</ele><time>2026-05-03T15:28:53Z</time></trkpt><trkpt lat="46.5179581228468" lon="12.118238334140685"><ele>1383.0</ele><time>2026-05-03T15:28:56Z</time></trkpt><trkpt lat="46.517989048370396" lon="12.118149657855488"><ele>1382.6666666666667</ele><time>2026-05-03T15:28:59Z</time></trkpt><trkpt lat="46.51802358564685" lon="12.118041751030917"><ele>1382.3333333333335</ele><time>2026-05-03T15:29:02Z</time></trkpt><trkpt lat="46.518060909984555" lon="12.117940956907589"><ele>1382.0</ele><time>2026-05-03T15:29:05Z</time></trkpt><trkpt lat="46.51808935744358" lon="12.117847449775024"><ele>1382.0</ele><time>2026-05-03T15:29:08Z</time></trkpt><trkpt lat="46.51809600932075" lon="12.117747482228102"><ele>1382.0</ele><time>2026-05-03T15:29:11Z</time></trkpt><trkpt lat="46.51810670365797" lon="12.117640240028654"><ele>1382.0</ele><time>2026-05-03T15:29:14Z</time></trkpt><trkpt lat="46.51810689389538" lon="12.117521377715903"><ele>1382.0</ele><time>2026-05-03T15:29:17Z</time></trkpt><trkpt lat="46.518106673995845" lon="12.117398556370443"><ele>1382.0</ele><time>2026-05-03T15:29:20Z</time></trkpt><trkpt lat="46.518169292035026" lon="12.117297675767103"><ele>1382.0</ele><time>2026-05-03T15:29:23Z</time></trkpt><trkpt lat="46.518223690567694" lon="12.117192341069666"><ele>1385.1666666666667</ele><time>2026-05-03T15:29:26Z</time></trkpt><trkpt lat="46.518244837663104" lon="12.117092925845391"><ele>1388.3333333333335</ele><time>2026-05-03T15:29:29Z</time></trkpt><trkpt lat="46.51826828160939" lon="12.116999634323875"><ele>1391.5</ele><time>2026-05-03T15:29:31Z</time></trkpt><trkpt lat="46.51831045582311" lon="12.116884735418454"><ele>1394.6666666666667</ele><time>2026-05-03T15:29:34Z</time></trkpt><trkpt lat="46.51833851756692" lon="12.116768547456356"><ele>1397.8333333333333</ele><time>2026-05-03T15:29:37Z</time></trkpt><trkpt lat="46.51834345767539" lon="12.116672586209546"><ele>1401.0</ele><time>2026-05-03T15:29:39Z</time></trkpt><trkpt lat="46.51833970558545" lon="12.116547245963538"><ele>1402.0</ele><time>2026-05-03T15:29:42Z</time></trkpt><trkpt lat="46.5183223679871" lon="12.11642758169192"><ele>1403.0</ele><time>2026-05-03T15:29:45Z</time></trkpt><trkpt lat="46.51829944242291" lon="12.116340760549052"><ele>1404.0</ele><time>2026-05-03T15:29:48Z</time></trkpt><trkpt lat="46.51828736534991" lon="12.116246185184748"><ele>1405.0</ele><time>2026-05-03T15:29:50Z</time></trkpt><trkpt lat="46.51827926138295" lon="12.116132679455967"><ele>1406.0</ele><time>2026-05-03T15:29:52Z</time></trkpt><trkpt lat="46.51830234974644" lon="12.116035867040182"><ele>1407.0</ele><time>2026-05-03T15:29:54Z</time></trkpt><trkpt lat="46.518306462008944" lon="12.115912452807043"><ele>1408.0</ele><time>2026-05-03T15:29:57Z</time></trkpt><trkpt lat="46.51829756459256" lon="12.115784153399847"><ele>1408.3333333333333</ele><time>2026-05-03T15:30:00Z</time></trkpt><trkpt lat="46.51829263956235" lon="12.115675699688"><ele>1408.6666666666665</ele><time>2026-05-03T15:30:02Z</time></trkpt><trkpt lat="46.51828149190186" lon="12.115572260453808"><ele>1409.0</ele><time>2026-05-03T15:30:04Z</time></trkpt><trkpt lat="46.51827209329582" lon="12.115474562409076"><ele>1409.3333333333333</ele><time>2026-05-03T15:30:06Z</time></trkpt><trkpt lat="46.5182491606445" lon="12.115369446129634"><ele>1409.6666666666667</ele><time>2026-05-03T15:30:09Z</time></trkpt><trkpt lat="46.51822309062085" lon="12.115253266398572"><ele>1410.0</ele><time>2026-05-03T15:30:12Z</time></trkpt><trkpt lat="46.51818428052776" lon="12.115121829327457"><ele>1410.0</ele><time>2026-05-03T15:30:15Z</time></trkpt><trkpt lat="46.51811618062263" lon="12.115014499193956"><ele>1410.0</ele><time>2026-05-03T15:30:18Z</time></trkpt><trkpt lat="46.51806880640892" lon="12.114914831279572"><ele>1410.0</ele><time>2026-05-03T15:30:20Z</time></trkpt><trkpt lat="46.51802442115761" lon="12.114790567819679"><ele>1410.0</ele><time>2026-05-03T15:30:23Z</time></trkpt><trkpt lat="46.51802077938466" lon="12.114693563990231"><ele>1410.0</ele><time>2026-05-03T15:30:24Z</time></trkpt><trkpt lat="46.518006373987745" lon="12.11458391423419"><ele>1410.0</ele><time>2026-05-03T15:30:26.001Z</time></trkpt><trkpt lat="46.51796942920488" lon="12.114502323325585"><ele>1410.6666666666667</ele><time>2026-05-03T15:30:28.001Z</time></trkpt><trkpt lat="46.51792079283868" lon="12.1144317265819"><ele>1411.3333333333333</ele><time>2026-05-03T15:30:31.001Z</time></trkpt><trkpt lat="46.51785398123888" lon="12.11434036465615"><ele>1412.0</ele><time>2026-05-03T15:30:34.001Z</time></trkpt><trkpt lat="46.51779522152308" lon="12.114296613785314"><ele>1412.6666666666665</ele><time>2026-05-03T15:30:36.001Z</time></trkpt><trkpt lat="46.517719277439944" lon="12.11424239735057"><ele>1413.3333333333333</ele><time>2026-05-03T15:30:39.001Z</time></trkpt><trkpt lat="46.517643063266185" lon="12.114177861798307"><ele>1414.0</ele><time>2026-05-03T15:30:42.001Z</time></trkpt><trkpt lat="46.51756996367504" lon="12.114100274378451"><ele>1415.5714285714287</ele><time>2026-05-03T15:30:45.001Z</time></trkpt><trkpt lat="46.517514160809455" lon="12.114054939992597"><ele>1417.142857142857</ele><time>2026-05-03T15:30:47.001Z</time></trkpt><trkpt lat="46.51745106756503" lon="12.114014245678092"><ele>1418.7142857142858</ele><time>2026-05-03T15:30:50.001Z</time></trkpt><trkpt lat="46.51740234196266" lon="12.113921911903766"><ele>1420.2857142857142</ele><time>2026-05-03T15:30:53Z</time></trkpt><trkpt lat="46.517334662960394" lon="12.113914197417534"><ele>1421.857142857143</ele><time>2026-05-03T15:32:35.001Z</time></trkpt><trkpt lat="46.51733907119275" lon="12.114045276093698"><ele>1423.4285714285716</ele><time>2026-05-03T15:32:37.001Z</time></trkpt><trkpt lat="46.51740695203841" lon="12.114070216865771"><ele>1425.0</ele><time>2026-05-03T15:32:40.001Z</time></trkpt><trkpt lat="46.51747830349327" lon="12.114065263573355"><ele>1423.3333333333333</ele><time>2026-05-03T15:32:45.001Z</time></trkpt><trkpt lat="46.517550496231934" lon="12.114072820011689"><ele>1421.6666666666667</ele><time>2026-05-03T15:32:48Z</time></trkpt><trkpt lat="46.51762377193118" lon="12.114125308399258"><ele>1420.0</ele><time>2026-05-03T15:32:50Z</time></trkpt><trkpt lat="46.517698224545484" lon="12.114189270126117"><ele>1418.3333333333335</ele><time>2026-05-03T15:32:52Z</time></trkpt><trkpt lat="46.51777195140449" lon="12.114252519956583"><ele>1416.6666666666667</ele><time>2026-05-03T15:32:54Z</time></trkpt><trkpt lat="46.51783181960076" lon="12.114310325734554"><ele>1415.0</ele><time>2026-05-03T15:32:56Z</time></trkpt><trkpt lat="46.51788449844591" lon="12.114242402926774"><ele>1415.0</ele><time>2026-05-03T15:32:59Z</time></trkpt><trkpt lat="46.51786588620713" lon="12.11409159658224"><ele>1415.0</ele><time>2026-05-03T15:33:05Z</time></trkpt><trkpt lat="46.517847100301395" lon="12.113990222650209"><ele>1415.0</ele><time>2026-05-03T15:33:09Z</time></trkpt><trkpt lat="46.517843821110276" lon="12.113888120765878"><ele>1415.0</ele><time>2026-05-03T15:33:12Z</time></trkpt><trkpt lat="46.5178363753181" lon="12.113785189555971"><ele>1415.0</ele><time>2026-05-03T15:33:14Z</time></trkpt><trkpt lat="46.51784269017851" lon="12.113688736493081"><ele>1415.0</ele><time>2026-05-03T15:33:16Z</time></trkpt><trkpt lat="46.51783785755017" lon="12.113594989868371"><ele>1416.6666666666667</ele><time>2026-05-03T15:33:18Z</time></trkpt><trkpt lat="46.51784031818559" lon="12.113458327615927"><ele>1418.3333333333335</ele><time>2026-05-03T15:33:21Z</time></trkpt><trkpt lat="46.51786137564062" lon="12.11335853032385"><ele>1420.0</ele><time>2026-05-03T15:33:23Z</time></trkpt><trkpt lat="46.5178643526122" lon="12.11319735382222"><ele>1421.6666666666667</ele><time>2026-05-03T15:33:26Z</time></trkpt><trkpt lat="46.51783117629875" lon="12.11309689527951"><ele>1423.3333333333333</ele><time>2026-05-03T15:33:29Z</time></trkpt><trkpt lat="46.517773437723626" lon="12.113010934454698"><ele>1425.0</ele><time>2026-05-03T15:33:32Z</time></trkpt><trkpt lat="46.517739422432776" lon="12.112910259703932"><ele>1426.6666666666667</ele><time>2026-05-03T15:33:34Z</time></trkpt><trkpt lat="46.51767336131252" lon="12.112844179544082"><ele>1428.3333333333333</ele><time>2026-05-03T15:33:36Z</time></trkpt><trkpt lat="46.51762745976944" lon="12.112775187005962"><ele>1430.0</ele><time>2026-05-03T15:33:38Z</time></trkpt><trkpt lat="46.51756115510021" lon="12.112730320079747"><ele>1431.6666666666665</ele><time>2026-05-03T15:33:41Z</time></trkpt><trkpt lat="46.51750583782443" lon="12.112661676861288"><ele>1433.3333333333333</ele><time>2026-05-03T15:33:44Z</time></trkpt><trkpt lat="46.517450954358004" lon="12.112585793269085"><ele>1435.0</ele><time>2026-05-03T15:33:47Z</time></trkpt><trkpt lat="46.51740885908567" lon="12.112482095515356"><ele>1437.1666666666665</ele><time>2026-05-03T15:33:50Z</time></trkpt><trkpt lat="46.51737831649816" lon="12.112384670306557"><ele>1439.3333333333333</ele><time>2026-05-03T15:33:53Z</time></trkpt><trkpt lat="46.51734478221247" lon="12.112303768995199"><ele>1441.5</ele><time>2026-05-03T15:33:55Z</time></trkpt><trkpt lat="46.51726649475828" lon="12.112251045672371"><ele>1443.6666666666667</ele><time>2026-05-03T15:33:58Z</time></trkpt><trkpt lat="46.51721487961218" lon="12.112164000710758"><ele>1445.8333333333335</ele><time>2026-05-03T15:34:00Z</time></trkpt><trkpt lat="46.51715858985653" lon="12.112081459005998"><ele>1448.0</ele><time>2026-05-03T15:34:03Z</time></trkpt><trkpt lat="46.51710401971579" lon="12.112025192095427"><ele>1448.8333333333335</ele><time>2026-05-03T15:34:05Z</time></trkpt><trkpt lat="46.517061027360874" lon="12.111943824769028"><ele>1449.6666666666667</ele><time>2026-05-03T15:34:08Z</time></trkpt><trkpt lat="46.51702321336367" lon="12.111861526323475"><ele>1450.5</ele><time>2026-05-03T15:34:10Z</time></trkpt><trkpt lat="46.51696932933155" lon="12.111763590811952"><ele>1451.3333333333333</ele><time>2026-05-03T15:34:13Z</time></trkpt><trkpt lat="46.51693618328069" lon="12.111658337736632"><ele>1452.1666666666665</ele><time>2026-05-03T15:34:16Z</time></trkpt><trkpt lat="46.51687678472663" lon="12.111556890102879"><ele>1453.0</ele><time>2026-05-03T15:34:19Z</time></trkpt><trkpt lat="46.51680501275587" lon="12.111497883065825"><ele>1456.0</ele><time>2026-05-03T15:34:22Z</time></trkpt><trkpt lat="46.51673951661006" lon="12.11147312976744"><ele>1459.0</ele><time>2026-05-03T15:34:24Z</time></trkpt><trkpt lat="46.51667353938186" lon="12.11140522005233"><ele>1462.0</ele><time>2026-05-03T15:34:27Z</time></trkpt><trkpt lat="46.51660684461506" lon="12.111339183116367"><ele>1465.0</ele><time>2026-05-03T15:34:29Z</time></trkpt><trkpt lat="46.516527954885994" lon="12.111246951797174"><ele>1468.0</ele><time>2026-05-03T15:34:32Z</time></trkpt><trkpt lat="46.516481618180066" lon="12.111170369888816"><ele>1471.0</ele><time>2026-05-03T15:34:34Z</time></trkpt><trkpt lat="46.51643410889212" lon="12.11106649615707"><ele>1471.0</ele><time>2026-05-03T15:34:37.001Z</time></trkpt><trkpt lat="46.51640024955801" lon="12.11098261547039"><ele>1471.0</ele><time>2026-05-03T15:34:40.001Z</time></trkpt><trkpt lat="46.51635677312895" lon="12.110899324507768"><ele>1471.0</ele><time>2026-05-03T15:34:43.001Z</time></trkpt><trkpt lat="46.51627336691734" lon="12.110819761421775"><ele>1471.0</ele><time>2026-05-03T15:34:46.001Z</time></trkpt><trkpt lat="46.51620425245075" lon="12.110799702463645"><ele>1471.0</ele><time>2026-05-03T15:34:49.001Z</time></trkpt><trkpt lat="46.516136550549696" lon="12.110785152188605"><ele>1471.0</ele><time>2026-05-03T15:34:51.001Z</time></trkpt><trkpt lat="46.51606353248129" lon="12.110808926840473"><ele>1472.142857142857</ele><time>2026-05-03T15:34:54Z</time></trkpt><trkpt lat="46.51598632028959" lon="12.11081403236713"><ele>1473.2857142857142</ele><time>2026-05-03T15:34:57Z</time></trkpt><trkpt lat="46.515908210677665" lon="12.11084115666867"><ele>1474.4285714285716</ele><time>2026-05-03T15:35:00Z</time></trkpt><trkpt lat="46.51584295600038" lon="12.110852908354202"><ele>1475.5714285714284</ele><time>2026-05-03T15:35:02Z</time></trkpt><trkpt lat="46.51576373887414" lon="12.11085825997201"><ele>1476.7142857142856</ele><time>2026-05-03T15:35:04Z</time></trkpt><trkpt lat="46.51569905971231" lon="12.110857884378131"><ele>1477.857142857143</ele><time>2026-05-03T15:35:06Z</time></trkpt><trkpt lat="46.515630457247966" lon="12.110858104434186"><ele>1479.0</ele><time>2026-05-03T15:35:08Z</time></trkpt><trkpt lat="46.51556330153515" lon="12.110852432902192"><ele>1479.0</ele><time>2026-05-03T15:35:10Z</time></trkpt><trkpt lat="46.51549694969505" lon="12.110842405092173"><ele>1479.0</ele><time>2026-05-03T15:35:13Z</time></trkpt><trkpt lat="46.5154129321356" lon="12.11081425085231"><ele>1479.0</ele><time>2026-05-03T15:35:16Z</time></trkpt><trkpt lat="46.515330699432646" lon="12.110789186743341"><ele>1479.0</ele><time>2026-05-03T15:35:19Z</time></trkpt><trkpt lat="46.51525309426374" lon="12.110784110157272"><ele>1479.0</ele><time>2026-05-03T15:35:21Z</time></trkpt><trkpt lat="46.51516845716472" lon="12.110776459843695"><ele>1479.0</ele><time>2026-05-03T15:35:24Z</time></trkpt><trkpt lat="46.5150880901001" lon="12.110780798922871"><ele>1480.6666666666667</ele><time>2026-05-03T15:35:27Z</time></trkpt><trkpt lat="46.514997589507644" lon="12.110769883212148"><ele>1482.3333333333333</ele><time>2026-05-03T15:35:30Z</time></trkpt><trkpt lat="46.51490520829228" lon="12.110741834388799"><ele>1484.0</ele><time>2026-05-03T15:35:33Z</time></trkpt><trkpt lat="46.51483481406108" lon="12.110669109290882"><ele>1485.6666666666665</ele><time>2026-05-03T15:35:36Z</time></trkpt><trkpt lat="46.51477026193057" lon="12.110628685663551"><ele>1487.3333333333333</ele><time>2026-05-03T15:35:38Z</time></trkpt><trkpt lat="46.5146965412413" lon="12.110527130565934"><ele>1489.0</ele><time>2026-05-03T15:35:41Z</time></trkpt><trkpt lat="46.51464960775141" lon="12.110459409103315"><ele>1489.5</ele><time>2026-05-03T15:35:43Z</time></trkpt><trkpt lat="46.51459735932149" lon="12.110352980689909"><ele>1490.0</ele><time>2026-05-03T15:35:46Z</time></trkpt><trkpt lat="46.51455714572456" lon="12.11022360262143"><ele>1490.5</ele><time>2026-05-03T15:35:49Z</time></trkpt><trkpt lat="46.51453789759377" lon="12.1101096942784"><ele>1491.0</ele><time>2026-05-03T15:35:52Z</time></trkpt><trkpt lat="46.51452794229078" lon="12.109996329264126"><ele>1491.5</ele><time>2026-05-03T15:35:55Z</time></trkpt><trkpt lat="46.514539750414365" lon="12.110091596385514"><ele>1492.0</ele><time>2026-05-03T15:36:02Z</time></trkpt><trkpt lat="46.51447410537256" lon="12.110146101842842"><ele>1492.6666666666665</ele><time>2026-05-03T15:36:23Z</time></trkpt><trkpt lat="46.51452921607273" lon="12.110068926075002"><ele>1493.3333333333333</ele><time>2026-05-03T15:37:22Z</time></trkpt><trkpt lat="46.514512582638716" lon="12.109931522737503"><ele>1494.0</ele><time>2026-05-03T15:37:25Z</time></trkpt><trkpt lat="46.51448000640433" lon="12.10982833324632"><ele>1494.6666666666667</ele><time>2026-05-03T15:37:27Z</time></trkpt><trkpt lat="46.514433758907316" lon="12.109722054878185"><ele>1495.3333333333335</ele><time>2026-05-03T15:37:29Z</time></trkpt><trkpt lat="46.51438280571079" lon="12.109593985321839"><ele>1496.0</ele><time>2026-05-03T15:37:31Z</time></trkpt><trkpt lat="46.51431846758247" lon="12.109456070975776"><ele>1496.1999999999998</ele><time>2026-05-03T15:37:33Z</time></trkpt><trkpt lat="46.514254375275875" lon="12.109288174173681"><ele>1496.3999999999999</ele><time>2026-05-03T15:37:35Z</time></trkpt><trkpt lat="46.514246476875705" lon="12.109186135934936"><ele>1496.6</ele><time>2026-05-03T15:37:36Z</time></trkpt><trkpt lat="46.51426712552218" lon="12.109079670466542"><ele>1496.8</ele><time>2026-05-03T15:37:37Z</time></trkpt><trkpt lat="46.51431916763169" lon="12.109003409794147"><ele>1497.0</ele><time>2026-05-03T15:37:38Z</time></trkpt><trkpt lat="46.5144247890138" lon="12.108931074782351"><ele>1499.6</ele><time>2026-05-03T15:37:40Z</time></trkpt><trkpt lat="46.51453964643919" lon="12.108949793317914"><ele>1502.1999999999998</ele><time>2026-05-03T15:37:42Z</time></trkpt><trkpt lat="46.51464519771675" lon="12.10892454589253"><ele>1504.8</ele><time>2026-05-03T15:37:44Z</time></trkpt><trkpt lat="46.51472102040628" lon="12.108886389114351"><ele>1507.4</ele><time>2026-05-03T15:37:46Z</time></trkpt><trkpt lat="46.514808652429785" lon="12.108872737549195"><ele>1510.0</ele><time>2026-05-03T15:37:48Z</time></trkpt><trkpt lat="46.51488930217827" lon="12.108830131465004"><ele>1510.0</ele><time>2026-05-03T15:37:50Z</time></trkpt><trkpt lat="46.514955256829936" lon="12.108829824046786"><ele>1510.0</ele><time>2026-05-03T15:37:52Z</time></trkpt><trkpt lat="46.51502631620377" lon="12.108803223858732"><ele>1510.0</ele><time>2026-05-03T15:37:54Z</time></trkpt><trkpt lat="46.51508810532892" lon="12.108742989909507"><ele>1510.0</ele><time>2026-05-03T15:37:57Z</time></trkpt><trkpt lat="46.51514706026262" lon="12.108709565484688"><ele>1510.0</ele><time>2026-05-03T15:37:59Z</time></trkpt><trkpt lat="46.51521689759177" lon="12.108672573311152"><ele>1510.0</ele><time>2026-05-03T15:38:00Z</time></trkpt><trkpt lat="46.51530052055415" lon="12.108623267411726"><ele>1510.0</ele><time>2026-05-03T15:38:02Z</time></trkpt><trkpt lat="46.51537352776054" lon="12.108562971738921"><ele>1508.5</ele><time>2026-05-03T15:38:04Z</time></trkpt><trkpt lat="46.51544409295505" lon="12.108491739763497"><ele>1507.0</ele><time>2026-05-03T15:38:06Z</time></trkpt><trkpt lat="46.515505590117264" lon="12.108396876918059"><ele>1505.5</ele><time>2026-05-03T15:38:08Z</time></trkpt><trkpt lat="46.515581673979646" lon="12.108320215565493"><ele>1504.0</ele><time>2026-05-03T15:38:10Z</time></trkpt><trkpt lat="46.51566328142326" lon="12.108230449165436"><ele>1502.5</ele><time>2026-05-03T15:38:12Z</time></trkpt><trkpt lat="46.51567351413473" lon="12.108134692786365"><ele>1501.0</ele><time>2026-05-03T15:38:13Z</time></trkpt><trkpt lat="46.51574367749339" lon="12.10802059727574"><ele>1500.6</ele><time>2026-05-03T15:38:15Z</time></trkpt><trkpt lat="46.515810737518315" lon="12.107886622433336"><ele>1500.1999999999998</ele><time>2026-05-03T15:38:17Z</time></trkpt><trkpt lat="46.51585735800755" lon="12.107757008826944"><ele>1499.8000000000002</ele><time>2026-05-03T15:38:19Z</time></trkpt><trkpt lat="46.515907015511935" lon="12.107638970283094"><ele>1499.4</ele><time>2026-05-03T15:38:21Z</time></trkpt><trkpt lat="46.51592696761784" lon="12.107525881992583"><ele>1499.0</ele><time>2026-05-03T15:38:23Z</time></trkpt><trkpt lat="46.51597758965742" lon="12.10742061809417"><ele>1499.6</ele><time>2026-05-03T15:38:25Z</time></trkpt><trkpt lat="46.516052201141534" lon="12.107302301632481"><ele>1500.2</ele><time>2026-05-03T15:38:27Z</time></trkpt><trkpt lat="46.51610623293077" lon="12.107160751253401"><ele>1500.8</ele><time>2026-05-03T15:38:29Z</time></trkpt><trkpt lat="46.5161186776035" lon="12.10698953072053"><ele>1501.3999999999999</ele><time>2026-05-03T15:38:31Z</time></trkpt><trkpt lat="46.51609511519945" lon="12.106854856789205"><ele>1502.0</ele><time>2026-05-03T15:38:33Z</time></trkpt><trkpt lat="46.51610360042028" lon="12.106743180408174"><ele>1502.0</ele><time>2026-05-03T15:38:35Z</time></trkpt><trkpt lat="46.51609795003712" lon="12.106607984855591"><ele>1502.0</ele><time>2026-05-03T15:38:37Z</time></trkpt><trkpt lat="46.516118218393466" lon="12.10649765053214"><ele>1502.0</ele><time>2026-05-03T15:38:39Z</time></trkpt><trkpt lat="46.51614042927527" lon="12.106391062156462"><ele>1502.0</ele><time>2026-05-03T15:38:41Z</time></trkpt><trkpt lat="46.516110658496856" lon="12.106256483918685"><ele>1502.0</ele><time>2026-05-03T15:38:43Z</time></trkpt><trkpt lat="46.516075142096845" lon="12.106131091537316"><ele>1502.0</ele><time>2026-05-03T15:38:45Z</time></trkpt><trkpt lat="46.51602593799975" lon="12.10603180520938"><ele>1502.3333333333335</ele><time>2026-05-03T15:38:47Z</time></trkpt><trkpt lat="46.51600453788576" lon="12.10591276596121"><ele>1502.6666666666667</ele><time>2026-05-03T15:38:49.001Z</time></trkpt><trkpt lat="46.51598344787199" lon="12.105794809357807"><ele>1503.0</ele><time>2026-05-03T15:38:51.001Z</time></trkpt><trkpt lat="46.51595963899339" lon="12.105670516074653"><ele>1503.3333333333333</ele><time>2026-05-03T15:38:53.001Z</time></trkpt><trkpt lat="46.51593714194742" lon="12.105541948729153"><ele>1503.6666666666665</ele><time>2026-05-03T15:38:55.001Z</time></trkpt><trkpt lat="46.51588699114105" lon="12.10544453070172"><ele>1504.0</ele><time>2026-05-03T15:38:57.001Z</time></trkpt><trkpt lat="46.515823583695976" lon="12.105318524578589"><ele>1504.0</ele><time>2026-05-03T15:38:59.001Z</time></trkpt><trkpt lat="46.5157759462256" lon="12.105229591994899"><ele>1504.0</ele><time>2026-05-03T15:39:00.001Z</time></trkpt><trkpt lat="46.51573051467417" lon="12.105134714977982"><ele>1504.0</ele><time>2026-05-03T15:39:01.001Z</time></trkpt><trkpt lat="46.51569728746652" lon="12.10503171087501"><ele>1504.0</ele><time>2026-05-03T15:39:02.001Z</time></trkpt><trkpt lat="46.51566885185508" lon="12.104896892472032"><ele>1504.0</ele><time>2026-05-03T15:39:03.001Z</time></trkpt><trkpt lat="46.51565308761135" lon="12.10477372220348"><ele>1504.0</ele><time>2026-05-03T15:39:04.001Z</time></trkpt><trkpt lat="46.515617678262736" lon="12.104649177868541"><ele>1503.0</ele><time>2026-05-03T15:39:05.001Z</time></trkpt><trkpt lat="46.5155576437567" lon="12.10456284966459"><ele>1502.0</ele><time>2026-05-03T15:39:06.001Z</time></trkpt><trkpt lat="46.51550405220964" lon="12.104482105218104"><ele>1501.0</ele><time>2026-05-03T15:39:07.001Z</time></trkpt><trkpt lat="46.51548219261622" lon="12.104378861140354"><ele>1500.0</ele><time>2026-05-03T15:39:08.001Z</time></trkpt><trkpt lat="46.51545683586989" lon="12.104293763405742"><ele>1499.0</ele><time>2026-05-03T15:39:09Z</time></trkpt><trkpt lat="46.51543037208927" lon="12.104204761547447"><ele>1498.0</ele><time>2026-05-03T15:39:10Z</time></trkpt><trkpt lat="46.51539711940429" lon="12.104067184367"><ele>1502.8000000000002</ele><time>2026-05-03T15:39:12Z</time></trkpt><trkpt lat="46.51536113560698" lon="12.103959931810065"><ele>1507.6</ele><time>2026-05-03T15:39:14Z</time></trkpt><trkpt lat="46.51529848725861" lon="12.103862138349095"><ele>1512.4</ele><time>2026-05-03T15:39:16Z</time></trkpt><trkpt lat="46.51520341920991" lon="12.103782368564946"><ele>1517.1999999999998</ele><time>2026-05-03T15:39:18Z</time></trkpt><trkpt lat="46.51512995849169" lon="12.103702817794757"><ele>1522.0</ele><time>2026-05-03T15:39:20Z</time></trkpt><trkpt lat="46.51504610495844" lon="12.103641886844288"><ele>1522.0</ele><time>2026-05-03T15:39:23Z</time></trkpt><trkpt lat="46.515019582848474" lon="12.103745923426276"><ele>1522.0</ele><time>2026-05-03T15:39:26Z</time></trkpt><trkpt lat="46.51507197961058" lon="12.103827150487225"><ele>1522.0</ele><time>2026-05-03T15:39:29Z</time></trkpt><trkpt lat="46.51509598774168" lon="12.103952512569967"><ele>1522.0</ele><time>2026-05-03T15:39:32Z</time></trkpt><trkpt lat="46.51506887633966" lon="12.104075986899012"><ele>1522.0</ele><time>2026-05-03T15:39:35Z</time></trkpt><trkpt lat="46.51497856873975" lon="12.10398664812995"><ele>1522.0</ele><time>2026-05-03T15:39:40Z</time></trkpt><trkpt lat="46.51490189361269" lon="12.103980108031724"><ele>1522.0</ele><time>2026-05-03T15:39:43Z</time></trkpt><trkpt lat="46.514833707878545" lon="12.103916713079494"><ele>1522.0</ele><time>2026-05-03T15:39:46Z</time></trkpt><trkpt lat="46.51475428174886" lon="12.103901589603344"><ele>1522.0</ele><time>2026-05-03T15:39:49Z</time></trkpt><trkpt lat="46.51467194180719" lon="12.103840636118807"><ele>1522.0</ele><time>2026-05-03T15:39:52Z</time></trkpt><trkpt lat="46.51461386933332" lon="12.103772374122661"><ele>1522.0</ele><time>2026-05-03T15:39:55Z</time></trkpt><trkpt lat="46.514595510264606" lon="12.103635669756914"><ele>1522.0</ele><time>2026-05-03T15:39:58Z</time></trkpt><trkpt lat="46.51459638974938" lon="12.10349482366049"><ele>1522.0</ele><time>2026-05-03T15:40:00Z</time></trkpt><trkpt lat="46.51462820298334" lon="12.103372998677948"><ele>1522.0</ele><time>2026-05-03T15:40:02Z</time></trkpt><trkpt lat="46.51465459128615" lon="12.103278420662726"><ele>1522.0</ele><time>2026-05-03T15:40:04Z</time></trkpt><trkpt lat="46.5146815995909" lon="12.103154417997938"><ele>1522.0</ele><time>2026-05-03T15:40:05Z</time></trkpt><trkpt lat="46.514744711820605" lon="12.103163953896845"><ele>1522.0</ele><time>2026-05-03T15:40:07Z</time></trkpt><trkpt lat="46.514830658627346" lon="12.103185909936705"><ele>1522.0</ele><time>2026-05-03T15:40:09Z</time></trkpt><trkpt lat="46.51491385245034" lon="12.103128041460241"><ele>1524.8333333333333</ele><time>2026-05-03T15:40:11Z</time></trkpt><trkpt lat="46.514970715930666" lon="12.103007000435"><ele>1527.6666666666665</ele><time>2026-05-03T15:40:13Z</time></trkpt><trkpt lat="46.51499900846733" lon="12.102888803764912"><ele>1530.5</ele><time>2026-05-03T15:40:15Z</time></trkpt><trkpt lat="46.51505586243155" lon="12.102806493135043"><ele>1533.3333333333333</ele><time>2026-05-03T15:40:17Z</time></trkpt><trkpt lat="46.515122387728326" lon="12.102719435096034"><ele>1536.1666666666667</ele><time>2026-05-03T15:40:19Z</time></trkpt><trkpt lat="46.51519565999634" lon="12.102655891239632"><ele>1539.0</ele><time>2026-05-03T15:40:21Z</time></trkpt><trkpt lat="46.5152825515202" lon="12.102607627205337"><ele>1539.0</ele><time>2026-05-03T15:40:24Z</time></trkpt><trkpt lat="46.51534919979472" lon="12.102582117287481"><ele>1539.0</ele><time>2026-05-03T15:40:26Z</time></trkpt><trkpt lat="46.515429864346544" lon="12.102522586929066"><ele>1539.0</ele><time>2026-05-03T15:40:29Z</time></trkpt><trkpt lat="46.51545943256038" lon="12.102430587894666"><ele>1539.0</ele><time>2026-05-03T15:40:31Z</time></trkpt><trkpt lat="46.5154372007465" lon="12.102341995585748"><ele>1539.0</ele><time>2026-05-03T15:40:33Z</time></trkpt><trkpt lat="46.51538771632625" lon="12.102265166557737"><ele>1539.0</ele><time>2026-05-03T15:40:35Z</time></trkpt><trkpt lat="46.515358424864" lon="12.102160384694713"><ele>1539.0</ele><time>2026-05-03T15:40:37Z</time></trkpt><trkpt lat="46.51531839982477" lon="12.102089672495412"><ele>1539.857142857143</ele><time>2026-05-03T15:40:39Z</time></trkpt><trkpt lat="46.51525587692904" lon="12.102055510374788"><ele>1540.7142857142858</ele><time>2026-05-03T15:40:41Z</time></trkpt><trkpt lat="46.51516812314936" lon="12.102018567216897"><ele>1541.5714285714284</ele><time>2026-05-03T15:40:44Z</time></trkpt><trkpt lat="46.51509440143909" lon="12.102013470309194"><ele>1542.4285714285716</ele><time>2026-05-03T15:40:46Z</time></trkpt><trkpt lat="46.51502344649186" lon="12.101969617821748"><ele>1543.2857142857144</ele><time>2026-05-03T15:40:48Z</time></trkpt><trkpt lat="46.51496154166751" lon="12.101914363730975"><ele>1544.142857142857</ele><time>2026-05-03T15:40:50Z</time></trkpt><trkpt lat="46.51491354791325" lon="12.101853946991083"><ele>1545.0</ele><time>2026-05-03T15:40:52Z</time></trkpt><trkpt lat="46.514854943769365" lon="12.101735161134256"><ele>1545.0</ele><time>2026-05-03T15:40:55.001Z</time></trkpt><trkpt lat="46.51482963186074" lon="12.101628643067075"><ele>1545.0</ele><time>2026-05-03T15:40:57.001Z</time></trkpt><trkpt lat="46.51483405848098" lon="12.101520557809165"><ele>1545.0</ele><time>2026-05-03T15:40:59.001Z</time></trkpt><trkpt lat="46.51484457001452" lon="12.101414858572541"><ele>1545.0</ele><time>2026-05-03T15:41:01.001Z</time></trkpt><trkpt lat="46.5148731140008" lon="12.101332488557109"><ele>1545.0</ele><time>2026-05-03T15:41:03.001Z</time></trkpt><trkpt lat="46.51488896153312" lon="12.101233699565775"><ele>1545.0</ele><time>2026-05-03T15:41:05.001Z</time></trkpt><trkpt lat="46.51490491618507" lon="12.101132170768597"><ele>1545.0</ele><time>2026-05-03T15:41:07.001Z</time></trkpt><trkpt lat="46.51490235617155" lon="12.101038129209202"><ele>1545.1666666666667</ele><time>2026-05-03T15:41:09.001Z</time></trkpt><trkpt lat="46.51492070580839" lon="12.10094974448517"><ele>1545.3333333333335</ele><time>2026-05-03T15:41:11.001Z</time></trkpt><trkpt lat="46.51494622028679" lon="12.100841149745841"><ele>1545.5</ele><time>2026-05-03T15:41:13.001Z</time></trkpt><trkpt lat="46.51498344784725" lon="12.10075646485147"><ele>1545.6666666666667</ele><time>2026-05-03T15:41:15Z</time></trkpt><trkpt lat="46.5149882561638" lon="12.100632028622321"><ele>1545.8333333333335</ele><time>2026-05-03T15:41:17Z</time></trkpt><trkpt lat="46.514975793512804" lon="12.100517805772796"><ele>1546.0</ele><time>2026-05-03T15:41:19Z</time></trkpt><trkpt lat="46.514945062739486" lon="12.100408536069306"><ele>1546.0</ele><time>2026-05-03T15:41:21Z</time></trkpt><trkpt lat="46.51490006501008" lon="12.100276131080417"><ele>1546.0</ele><time>2026-05-03T15:41:23Z</time></trkpt><trkpt lat="46.51483211009021" lon="12.10016147148996"><ele>1546.0</ele><time>2026-05-03T15:41:25Z</time></trkpt><trkpt lat="46.514767844170784" lon="12.10002439777465"><ele>1546.0</ele><time>2026-05-03T15:41:27Z</time></trkpt><trkpt lat="46.51472890146615" lon="12.09994244687271"><ele>1546.0</ele><time>2026-05-03T15:41:28Z</time></trkpt><trkpt lat="46.51467266934556" lon="12.099852166605382"><ele>1545.8333333333335</ele><time>2026-05-03T15:41:29Z</time></trkpt><trkpt lat="46.51460682332942" lon="12.099740266201097"><ele>1545.6666666666667</ele><time>2026-05-03T15:41:30Z</time></trkpt><trkpt lat="46.51457600668167" lon="12.099655365744937"><ele>1545.5</ele><time>2026-05-03T15:41:31Z</time></trkpt><trkpt lat="46.51454578018773" lon="12.099546842375357"><ele>1545.3333333333335</ele><time>2026-05-03T15:41:32Z</time></trkpt><trkpt lat="46.51453112183934" lon="12.099442007043978"><ele>1545.1666666666667</ele><time>2026-05-03T15:41:33Z</time></trkpt><trkpt lat="46.51449836650568" lon="12.099346085974611"><ele>1545.0</ele><time>2026-05-03T15:41:34Z</time></trkpt><trkpt lat="46.514443675592965" lon="12.09926452754963"><ele>1545.0</ele><time>2026-05-03T15:41:35Z</time></trkpt><trkpt lat="46.51437769976839" lon="12.099207238362089"><ele>1545.0</ele><time>2026-05-03T15:41:36Z</time></trkpt><trkpt lat="46.514272242632295" lon="12.0990871319495"><ele>1545.0</ele><time>2026-05-03T15:41:38Z</time></trkpt><trkpt lat="46.51423022053902" lon="12.099003929154557"><ele>1545.0</ele><time>2026-05-03T15:41:39Z</time></trkpt><trkpt lat="46.514191485995354" lon="12.098907742753564"><ele>1545.0</ele><time>2026-05-03T15:41:40Z</time></trkpt><trkpt lat="46.51416627881726" lon="12.098798948516746"><ele>1545.0</ele><time>2026-05-03T15:41:41Z</time></trkpt><trkpt lat="46.514146239665614" lon="12.098702542923146"><ele>1542.6666666666667</ele><time>2026-05-03T15:41:42Z</time></trkpt><trkpt lat="46.51403009304231" lon="12.098657440039808"><ele>1540.3333333333333</ele><time>2026-05-03T15:41:44Z</time></trkpt><trkpt lat="46.51396352790044" lon="12.098651128364086"><ele>1538.0</ele><time>2026-05-03T15:41:45Z</time></trkpt><trkpt lat="46.5138857780077" lon="12.098579238324401"><ele>1535.6666666666665</ele><time>2026-05-03T15:41:47Z</time></trkpt><trkpt lat="46.51384776607739" lon="12.098503983793837"><ele>1533.3333333333333</ele><time>2026-05-03T15:41:48Z</time></trkpt><trkpt lat="46.513843066494346" lon="12.098409442771683"><ele>1531.0</ele><time>2026-05-03T15:41:49Z</time></trkpt><trkpt lat="46.51387159750881" lon="12.098316959760488"><ele>1530.0</ele><time>2026-05-03T15:41:50Z</time></trkpt><trkpt lat="46.51391858428054" lon="12.098238896761469"><ele>1529.0</ele><time>2026-05-03T15:41:51Z</time></trkpt><trkpt lat="46.51399158069281" lon="12.098081149450856"><ele>1528.0</ele><time>2026-05-03T15:41:53Z</time></trkpt><trkpt lat="46.51399403548497" lon="12.097979263243042"><ele>1527.0</ele><time>2026-05-03T15:41:54Z</time></trkpt><trkpt lat="46.51399639853074" lon="12.097885776131236"><ele>1526.0</ele><time>2026-05-03T15:41:55Z</time></trkpt><trkpt lat="46.51403264437018" lon="12.097784383291831"><ele>1525.0</ele><time>2026-05-03T15:41:57Z</time></trkpt><trkpt lat="46.514102648847086" lon="12.097801468395886"><ele>1525.0</ele><time>2026-05-03T15:41:59Z</time></trkpt><trkpt lat="46.5141366166491" lon="12.097907595237048"><ele>1525.0</ele><time>2026-05-03T15:42:01Z</time></trkpt><trkpt lat="46.51416823939959" lon="12.098038993114836"><ele>1525.0</ele><time>2026-05-03T15:42:03Z</time></trkpt><trkpt lat="46.51425081013053" lon="12.098154970721502"><ele>1525.0</ele><time>2026-05-03T15:42:05Z</time></trkpt><trkpt lat="46.51434526958793" lon="12.098222325041688"><ele>1525.0</ele><time>2026-05-03T15:42:07Z</time></trkpt><trkpt lat="46.51440856510261" lon="12.098236238098284"><ele>1525.0</ele><time>2026-05-03T15:42:08Z</time></trkpt><trkpt lat="46.514489323927585" lon="12.098245343180151"><ele>1525.0</ele><time>2026-05-03T15:42:09Z</time></trkpt><trkpt lat="46.51456154496155" lon="12.098253305244878"><ele>1525.0</ele><time>2026-05-03T15:42:10Z</time></trkpt><trkpt lat="46.51463060979071" lon="12.098265873529238"><ele>1525.0</ele><time>2026-05-03T15:42:11Z</time></trkpt><trkpt lat="46.514698296107795" lon="12.098221952360811"><ele>1525.0</ele><time>2026-05-03T15:42:12Z</time></trkpt><trkpt lat="46.51475916828266" lon="12.098181283745019"><ele>1525.0</ele><time>2026-05-03T15:42:13Z</time></trkpt><trkpt lat="46.514825316953065" lon="12.098122457621578"><ele>1525.0</ele><time>2026-05-03T15:42:14Z</time></trkpt><trkpt lat="46.514871885222504" lon="12.098030837736678"><ele>1522.8</ele><time>2026-05-03T15:42:15Z</time></trkpt><trkpt lat="46.514876143364376" lon="12.097913684041385"><ele>1520.6</ele><time>2026-05-03T15:42:16Z</time></trkpt><trkpt lat="46.514855236543816" lon="12.097741357633247"><ele>1518.4</ele><time>2026-05-03T15:42:18Z</time></trkpt><trkpt lat="46.51485698057832" lon="12.097625631758072"><ele>1516.2</ele><time>2026-05-03T15:42:20Z</time></trkpt><trkpt lat="46.51486148763903" lon="12.097517018272127"><ele>1514.0</ele><time>2026-05-03T15:42:22Z</time></trkpt><trkpt lat="46.51486146418254" lon="12.097367926934254"><ele>1514.0</ele><time>2026-05-03T15:42:25Z</time></trkpt><trkpt lat="46.51486095686289" lon="12.097226493670513"><ele>1514.0</ele><time>2026-05-03T15:42:27Z</time></trkpt><trkpt lat="46.51487375107469" lon="12.097089889256777"><ele>1514.0</ele><time>2026-05-03T15:42:29Z</time></trkpt><trkpt lat="46.51485446899987" lon="12.09696863545237"><ele>1514.0</ele><time>2026-05-03T15:42:31Z</time></trkpt><trkpt lat="46.514838563955784" lon="12.096857780621256"><ele>1514.0</ele><time>2026-05-03T15:42:33Z</time></trkpt><trkpt lat="46.51481497655981" lon="12.09671824323071"><ele>1514.0</ele><time>2026-05-03T15:42:35Z</time></trkpt><trkpt lat="46.514796076572075" lon="12.096605307423722"><ele>1514.0</ele><time>2026-05-03T15:42:37Z</time></trkpt><trkpt lat="46.51476959084671" lon="12.096479230908304"><ele>1514.0</ele><time>2026-05-03T15:42:39Z</time></trkpt><trkpt lat="46.5147619125122" lon="12.096331745356489"><ele>1514.0</ele><time>2026-05-03T15:42:41Z</time></trkpt><trkpt lat="46.51480495469974" lon="12.096250546136897"><ele>1514.0</ele><time>2026-05-03T15:42:44Z</time></trkpt><trkpt lat="46.51483377603634" lon="12.096111175704966"><ele>1514.0</ele><time>2026-05-03T15:42:45Z</time></trkpt><trkpt lat="46.51483579476697" lon="12.09599678624747"><ele>1514.5</ele><time>2026-05-03T15:42:46Z</time></trkpt><trkpt lat="46.514835526730145" lon="12.095890924438281"><ele>1515.0</ele><time>2026-05-03T15:42:47Z</time></trkpt><trkpt lat="46.51483623085521" lon="12.095797183996392"><ele>1515.5</ele><time>2026-05-03T15:42:48Z</time></trkpt><trkpt lat="46.51481000077259" lon="12.095649968494424"><ele>1516.0</ele><time>2026-05-03T15:42:50Z</time></trkpt><trkpt lat="46.51478512487732" lon="12.095536315796853"><ele>1516.5</ele><time>2026-05-03T15:42:52Z</time></trkpt><trkpt lat="46.514788822231736" lon="12.095443335160715"><ele>1517.0</ele><time>2026-05-03T15:44:06Z</time></trkpt><trkpt lat="46.51484752012462" lon="12.095365535268499"><ele>1517.5</ele><time>2026-05-03T15:44:08Z</time></trkpt><trkpt lat="46.51493583477545" lon="12.095249291219316"><ele>1518.0</ele><time>2026-05-03T15:44:10Z</time></trkpt><trkpt lat="46.515034337276255" lon="12.095247892067977"><ele>1518.5</ele><time>2026-05-03T15:44:12Z</time></trkpt><trkpt lat="46.515091899084986" lon="12.09531729503782"><ele>1519.0</ele><time>2026-05-03T15:44:14Z</time></trkpt><trkpt lat="46.515161234533146" lon="12.095365097604208"><ele>1519.5</ele><time>2026-05-03T15:44:16Z</time></trkpt><trkpt lat="46.515232219136" lon="12.095413325444412"><ele>1520.0</ele><time>2026-05-03T15:44:18Z</time></trkpt><trkpt lat="46.515315702414505" lon="12.095462792350187"><ele>1520.0</ele><time>2026-05-03T15:44:20Z</time></trkpt><trkpt lat="46.51536543351916" lon="12.095585634781497"><ele>1520.0</ele><time>2026-05-03T15:44:22Z</time></trkpt><trkpt lat="46.51541263191782" lon="12.095700636981288"><ele>1520.0</ele><time>2026-05-03T15:44:24Z</time></trkpt><trkpt lat="46.51545243265391" lon="12.095817536176828"><ele>1520.0</ele><time>2026-05-03T15:44:26Z</time></trkpt><trkpt lat="46.51548470464777" lon="12.095938024199125"><ele>1520.0</ele><time>2026-05-03T15:44:28Z</time></trkpt><trkpt lat="46.515504334612004" lon="12.096062907349062"><ele>1519.5</ele><time>2026-05-03T15:44:30Z</time></trkpt><trkpt lat="46.51552490006541" lon="12.0961736213571"><ele>1519.0</ele><time>2026-05-03T15:44:32Z</time></trkpt><trkpt lat="46.51555641671193" lon="12.09628529427938"><ele>1518.5</ele><time>2026-05-03T15:44:34Z</time></trkpt><trkpt lat="46.51559491726894" lon="12.096391557223965"><ele>1518.0</ele><time>2026-05-03T15:44:36Z</time></trkpt><trkpt lat="46.51564273388899" lon="12.096488554348435"><ele>1517.5</ele><time>2026-05-03T15:44:38Z</time></trkpt><trkpt lat="46.515698634959385" lon="12.096562956941618"><ele>1517.0</ele><time>2026-05-03T15:44:40Z</time></trkpt><trkpt lat="46.51576930570475" lon="12.096625491787991"><ele>1516.8333333333335</ele><time>2026-05-03T15:44:42Z</time></trkpt><trkpt lat="46.51584609936743" lon="12.096698273184005"><ele>1516.6666666666667</ele><time>2026-05-03T15:44:44Z</time></trkpt><trkpt lat="46.51592891657988" lon="12.096762877313713"><ele>1516.5</ele><time>2026-05-03T15:44:46Z</time></trkpt><trkpt lat="46.51600609153264" lon="12.096807884129632"><ele>1516.3333333333333</ele><time>2026-05-03T15:44:48Z</time></trkpt><trkpt lat="46.5160741819974" lon="12.096870541687279"><ele>1516.1666666666665</ele><time>2026-05-03T15:44:50Z</time></trkpt><trkpt lat="46.516136126065966" lon="12.096930616099518"><ele>1516.0</ele><time>2026-05-03T15:44:52Z</time></trkpt><trkpt lat="46.51621419834553" lon="12.096973289106137"><ele>1517.8</ele><time>2026-05-03T15:44:54Z</time></trkpt><trkpt lat="46.5162840185271" lon="12.097020141767523"><ele>1519.6</ele><time>2026-05-03T15:44:56Z</time></trkpt><trkpt lat="46.51632797702089" lon="12.097099368719732"><ele>1521.4</ele><time>2026-05-03T15:44:58Z</time></trkpt><trkpt lat="46.5164519706129" lon="12.09717798930876"><ele>1523.2</ele><time>2026-05-03T15:45:04Z</time></trkpt><trkpt lat="46.51651717934031" lon="12.09709067665277"><ele>1525.0</ele><time>2026-05-03T15:45:07Z</time></trkpt><trkpt lat="46.51652526470601" lon="12.096973130688369"><ele>1525.0</ele><time>2026-05-03T15:45:09Z</time></trkpt><trkpt lat="46.51653361111956" lon="12.096841865234486"><ele>1525.0</ele><time>2026-05-03T15:45:11Z</time></trkpt><trkpt lat="46.51653748380084" lon="12.09672508896457"><ele>1525.0</ele><time>2026-05-03T15:45:13Z</time></trkpt><trkpt lat="46.516542788592616" lon="12.096581548308022"><ele>1525.0</ele><time>2026-05-03T15:45:15Z</time></trkpt><trkpt lat="46.516545320141155" lon="12.096451278243942"><ele>1525.0</ele><time>2026-05-03T15:45:17Z</time></trkpt><trkpt lat="46.516550722997934" lon="12.096320481413866"><ele>1524.5</ele><time>2026-05-03T15:45:19Z</time></trkpt><trkpt lat="46.51655704273486" lon="12.096200009220308"><ele>1524.0</ele><time>2026-05-03T15:45:21Z</time></trkpt><trkpt lat="46.51656330858101" lon="12.096067690084283"><ele>1523.5</ele><time>2026-05-03T15:45:23Z</time></trkpt><trkpt lat="46.51658147913224" lon="12.095960638736749"><ele>1523.0</ele><time>2026-05-03T15:45:25Z</time></trkpt><trkpt lat="46.51657763360824" lon="12.095849373295179"><ele>1522.5</ele><time>2026-05-03T15:45:27Z</time></trkpt><trkpt lat="46.51658885757306" lon="12.095732931668122"><ele>1522.0</ele><time>2026-05-03T15:45:29Z</time></trkpt><trkpt lat="46.51660502733981" lon="12.095615331067474"><ele>1521.3333333333333</ele><time>2026-05-03T15:45:31Z</time></trkpt><trkpt lat="46.516632147354386" lon="12.095511663765134"><ele>1520.6666666666665</ele><time>2026-05-03T15:45:33Z</time></trkpt><trkpt lat="46.51669967789841" lon="12.09544338576884"><ele>1520.0</ele><time>2026-05-03T15:45:35Z</time></trkpt><trkpt lat="46.516761280064706" lon="12.095368992196773"><ele>1519.3333333333333</ele><time>2026-05-03T15:45:37Z</time></trkpt><trkpt lat="46.516811315232225" lon="12.09527431468491"><ele>1518.6666666666667</ele><time>2026-05-03T15:45:39Z</time></trkpt><trkpt lat="46.51686572933502" lon="12.095195395581854"><ele>1518.0</ele><time>2026-05-03T15:45:41Z</time></trkpt><trkpt lat="46.51692356617186" lon="12.09511466700178"><ele>1518.0</ele><time>2026-05-03T15:45:43Z</time></trkpt><trkpt lat="46.51697423148654" lon="12.095037088565833"><ele>1518.0</ele><time>2026-05-03T15:45:45Z</time></trkpt><trkpt lat="46.51704098950917" lon="12.094957498301387"><ele>1518.0</ele><time>2026-05-03T15:45:47Z</time></trkpt><trkpt lat="46.5171068670457" lon="12.094874081101441"><ele>1518.0</ele><time>2026-05-03T15:45:49Z</time></trkpt><trkpt lat="46.51716897988299" lon="12.094795248120992"><ele>1518.0</ele><time>2026-05-03T15:45:51Z</time></trkpt><trkpt lat="46.51722841896243" lon="12.094713628518548"><ele>1518.0</ele><time>2026-05-03T15:45:53Z</time></trkpt><trkpt lat="46.517280806959825" lon="12.09462819746864"><ele>1521.5</ele><time>2026-05-03T15:45:55Z</time></trkpt><trkpt lat="46.51734545609458" lon="12.094533101228224"><ele>1525.0</ele><time>2026-05-03T15:45:57Z</time></trkpt><trkpt lat="46.51739220142123" lon="12.094439969061108"><ele>1528.5</ele><time>2026-05-03T15:45:59Z</time></trkpt><trkpt lat="46.5174335158309" lon="12.094326216410746"><ele>1532.0</ele><time>2026-05-03T15:46:01Z</time></trkpt><trkpt lat="46.51746591124068" lon="12.094205244989002"><ele>1535.5</ele><time>2026-05-03T15:46:03Z</time></trkpt><trkpt lat="46.51746609009336" lon="12.094059631834343"><ele>1539.0</ele><time>2026-05-03T15:46:06Z</time></trkpt><trkpt lat="46.51742848947257" lon="12.0939822569242"><ele>1539.8333333333333</ele><time>2026-05-03T15:46:08Z</time></trkpt><trkpt lat="46.517363374082024" lon="12.093890053922186"><ele>1540.6666666666665</ele><time>2026-05-03T15:46:10Z</time></trkpt><trkpt lat="46.51732790858501" lon="12.093802549302831"><ele>1541.5</ele><time>2026-05-03T15:46:13Z</time></trkpt><trkpt lat="46.51735694546967" lon="12.093717817039167"><ele>1542.3333333333333</ele><time>2026-05-03T15:46:18Z</time></trkpt><trkpt lat="46.51742498279023" lon="12.093681815981489"><ele>1543.1666666666665</ele><time>2026-05-03T15:46:21Z</time></trkpt><trkpt lat="46.51749489914441" lon="12.093763146319217"><ele>1544.0</ele><time>2026-05-03T15:46:24Z</time></trkpt><trkpt lat="46.517535677960566" lon="12.093846700313765"><ele>1543.9999999999998</ele><time>2026-05-03T15:46:26Z</time></trkpt><trkpt lat="46.51757411158226" lon="12.093937434917367"><ele>1544.0</ele><time>2026-05-03T15:46:28Z</time></trkpt><trkpt lat="46.517605848007314" lon="12.094047442708625"><ele>1544.0</ele><time>2026-05-03T15:46:30Z</time></trkpt><trkpt lat="46.51763492368473" lon="12.094153111852284"><ele>1544.0</ele><time>2026-05-03T15:46:32Z</time></trkpt><trkpt lat="46.51766653648452" lon="12.09425789296513"><ele>1543.9999999999998</ele><time>2026-05-03T15:46:34Z</time></trkpt><trkpt lat="46.51769680423076" lon="12.094368667690997"><ele>1544.0</ele><time>2026-05-03T15:46:36Z</time></trkpt><trkpt lat="46.517729762487946" lon="12.094472289305791"><ele>1543.1666666666665</ele><time>2026-05-03T15:46:38Z</time></trkpt><trkpt lat="46.51775984434179" lon="12.094579959512314"><ele>1542.3333333333333</ele><time>2026-05-03T15:46:40Z</time></trkpt><trkpt lat="46.51778839912053" lon="12.094700150537523"><ele>1541.5</ele><time>2026-05-03T15:46:42Z</time></trkpt><trkpt lat="46.51782050245669" lon="12.094811287429707"><ele>1540.6666666666665</ele><time>2026-05-03T15:46:44Z</time></trkpt><trkpt lat="46.517854302884146" lon="12.094919272999304"><ele>1539.8333333333333</ele><time>2026-05-03T15:46:46Z</time></trkpt><trkpt lat="46.51785566595808" lon="12.09504180901176"><ele>1539.0</ele><time>2026-05-03T15:46:49Z</time></trkpt><trkpt lat="46.51783261997913" lon="12.095176324222326"><ele>1538.7142857142858</ele><time>2026-05-03T15:46:51Z</time></trkpt><trkpt lat="46.51781309908544" lon="12.095276420999935"><ele>1538.4285714285713</ele><time>2026-05-03T15:46:54Z</time></trkpt><trkpt lat="46.51778955996789" lon="12.095378448329516"><ele>1538.1428571428573</ele><time>2026-05-03T15:46:55Z</time></trkpt><trkpt lat="46.51775013868657" lon="12.095479879719843"><ele>1537.857142857143</ele><time>2026-05-03T15:46:57Z</time></trkpt><trkpt lat="46.51773967535239" lon="12.095572245986352"><ele>1537.5714285714287</ele><time>2026-05-03T15:47:00Z</time></trkpt><trkpt lat="46.517731828836105" lon="12.095669856646314"><ele>1537.2857142857144</ele><time>2026-05-03T15:47:02Z</time></trkpt><trkpt lat="46.517707713918206" lon="12.095787018030396"><ele>1537.0</ele><time>2026-05-03T15:47:04Z</time></trkpt><trkpt lat="46.51768200166918" lon="12.095893567267463"><ele>1538.5000000000002</ele><time>2026-05-03T15:47:05Z</time></trkpt><trkpt lat="46.51763736540657" lon="12.096006245711619"><ele>1540.0</ele><time>2026-05-03T15:47:07Z</time></trkpt><trkpt lat="46.5176020904442" lon="12.096127514907186"><ele>1541.5</ele><time>2026-05-03T15:47:10Z</time></trkpt><trkpt lat="46.51758569679881" lon="12.096252997349605"><ele>1543.0</ele><time>2026-05-03T15:47:13Z</time></trkpt><trkpt lat="46.51760117548133" lon="12.096361427904968"><ele>1544.5000000000002</ele><time>2026-05-03T15:47:15Z</time></trkpt><trkpt lat="46.51760027757856" lon="12.09648349032749"><ele>1546.0</ele><time>2026-05-03T15:47:17Z</time></trkpt><trkpt lat="46.51762916280826" lon="12.096605009254866"><ele>1546.6</ele><time>2026-05-03T15:47:19Z</time></trkpt><trkpt lat="46.51766438530898" lon="12.09674873698566"><ele>1547.1999999999998</ele><time>2026-05-03T15:47:21Z</time></trkpt><trkpt lat="46.51770676051579" lon="12.09685060551565"><ele>1547.8000000000002</ele><time>2026-05-03T15:47:23Z</time></trkpt><trkpt lat="46.517762200376445" lon="12.096948676174595"><ele>1548.4</ele><time>2026-05-03T15:47:25Z</time></trkpt><trkpt lat="46.517812508100086" lon="12.09705128519765"><ele>1549.0</ele><time>2026-05-03T15:47:27Z</time></trkpt><trkpt lat="46.51785588923272" lon="12.097172464592568"><ele>1552.6666666666667</ele><time>2026-05-03T15:47:29Z</time></trkpt><trkpt lat="46.51792078188988" lon="12.097276435260586"><ele>1556.3333333333335</ele><time>2026-05-03T15:47:31Z</time></trkpt><trkpt lat="46.51797850145942" lon="12.097358835626496"><ele>1560.0</ele><time>2026-05-03T15:47:34Z</time></trkpt><trkpt lat="46.51799521263194" lon="12.097261722239681"><ele>1563.6666666666665</ele><time>2026-05-03T15:47:38Z</time></trkpt><trkpt lat="46.51794900159501" lon="12.097197286769493"><ele>1567.3333333333333</ele><time>2026-05-03T15:47:40Z</time></trkpt><trkpt lat="46.51792939145445" lon="12.097108631824613"><ele>1571.0</ele><time>2026-05-03T15:47:42Z</time></trkpt><trkpt lat="46.5179331225862" lon="12.096953921164145"><ele>1570.9999999999998</ele><time>2026-05-03T15:47:44Z</time></trkpt><trkpt lat="46.51795974742823" lon="12.096836490772116"><ele>1571.0</ele><time>2026-05-03T15:47:46Z</time></trkpt><trkpt lat="46.517986366790325" lon="12.096719678276166"><ele>1571.0</ele><time>2026-05-03T15:47:48Z</time></trkpt><trkpt lat="46.518017743269574" lon="12.096605645710637"><ele>1571.0</ele><time>2026-05-03T15:47:50Z</time></trkpt><trkpt lat="46.51805858685427" lon="12.096504888338286"><ele>1570.9999999999998</ele><time>2026-05-03T15:47:52Z</time></trkpt><trkpt lat="46.51808778608107" lon="12.096412093422613"><ele>1571.0</ele><time>2026-05-03T15:47:54Z</time></trkpt><trkpt lat="46.51814418786088" lon="12.096294134580843"><ele>1571.8571428571427</ele><time>2026-05-03T15:47:56Z</time></trkpt><trkpt lat="46.518194841046615" lon="12.096216857781995"><ele>1572.7142857142858</ele><time>2026-05-03T15:47:58Z</time></trkpt><trkpt lat="46.51824493370888" lon="12.096123480810409"><ele>1573.5714285714284</ele><time>2026-05-03T15:48:00Z</time></trkpt><trkpt lat="46.51829470743458" lon="12.096046026208807"><ele>1574.4285714285713</ele><time>2026-05-03T15:48:02Z</time></trkpt><trkpt lat="46.518342261683706" lon="12.095972233215456"><ele>1575.2857142857142</ele><time>2026-05-03T15:48:04Z</time></trkpt><trkpt lat="46.51839826117049" lon="12.095899655430525"><ele>1576.142857142857</ele><time>2026-05-03T15:48:06Z</time></trkpt><trkpt lat="46.518468778205964" lon="12.095894357964003"><ele>1577.0</ele><time>2026-05-03T15:48:08Z</time></trkpt><trkpt lat="46.518503898612444" lon="12.095982292139901"><ele>1576.9999999999998</ele><time>2026-05-03T15:48:10Z</time></trkpt><trkpt lat="46.51848431485977" lon="12.096105187557804"><ele>1577.0</ele><time>2026-05-03T15:48:12Z</time></trkpt><trkpt lat="46.51847589272183" lon="12.096200764312686"><ele>1577.0</ele><time>2026-05-03T15:48:14Z</time></trkpt><trkpt lat="46.518469978542626" lon="12.096310054805283"><ele>1577.0</ele><time>2026-05-03T15:48:17Z</time></trkpt><trkpt lat="46.51846437336023" lon="12.096435851832306"><ele>1576.9999999999998</ele><time>2026-05-03T15:48:20Z</time></trkpt><trkpt lat="46.51845440758321" lon="12.096568070504617"><ele>1577.0</ele><time>2026-05-03T15:48:22Z</time></trkpt><trkpt lat="46.5185009600465" lon="12.096634914931585"><ele>1576.9999999999998</ele><time>2026-05-03T15:48:24Z</time></trkpt><trkpt lat="46.51859258844658" lon="12.096604397321107"><ele>1577.0</ele><time>2026-05-03T15:48:27Z</time></trkpt><trkpt lat="46.51861670177743" lon="12.096516830141471"><ele>1577.0</ele><time>2026-05-03T15:48:29Z</time></trkpt><trkpt lat="46.51867507124325" lon="12.096419614262382"><ele>1577.0</ele><time>2026-05-03T15:48:32Z</time></trkpt><trkpt lat="46.51871379837633" lon="12.096332974206984"><ele>1576.9999999999998</ele><time>2026-05-03T15:48:34Z</time></trkpt><trkpt lat="46.51875537288765" lon="12.09624945544294"><ele>1577.0</ele><time>2026-05-03T15:48:36Z</time></trkpt><trkpt lat="46.5187991732716" lon="12.096156809112063"><ele>1582.4999999999998</ele><time>2026-05-03T15:48:38Z</time></trkpt><trkpt lat="46.51885504634658" lon="12.096063237062317"><ele>1588.0</ele><time>2026-05-03T15:48:40Z</time></trkpt><trkpt lat="46.518934631573714" lon="12.096063428441937"><ele>1593.5</ele><time>2026-05-03T15:48:43Z</time></trkpt><trkpt lat="46.51893674836174" lon="12.096184315705612"><ele>1599.0</ele><time>2026-05-03T15:48:45Z</time></trkpt><trkpt lat="46.5188985313569" lon="12.096282895707313"><ele>1604.4999999999998</ele><time>2026-05-03T15:48:47Z</time></trkpt><trkpt lat="46.518868961090824" lon="12.096382817850698"><ele>1610.0</ele><time>2026-05-03T15:48:49Z</time></trkpt><trkpt lat="46.51884531263078" lon="12.096490687234889"><ele>1608.4999999999998</ele><time>2026-05-03T15:48:51Z</time></trkpt><trkpt lat="46.518836566523106" lon="12.096606986543662"><ele>1607.0</ele><time>2026-05-03T15:48:53Z</time></trkpt><trkpt lat="46.51884318555552" lon="12.096719620103917"><ele>1605.5</ele><time>2026-05-03T15:48:55Z</time></trkpt><trkpt lat="46.51884474228855" lon="12.096826725219932"><ele>1604.0</ele><time>2026-05-03T15:48:57Z</time></trkpt><trkpt lat="46.51886998173955" lon="12.096937092946137"><ele>1602.4999999999998</ele><time>2026-05-03T15:48:59Z</time></trkpt><trkpt lat="46.518880799803895" lon="12.097053064848259"><ele>1601.0</ele><time>2026-05-03T15:49:01Z</time></trkpt><trkpt lat="46.518896230241616" lon="12.097172936074442"><ele>1600.9999999999998</ele><time>2026-05-03T15:49:03Z</time></trkpt><trkpt lat="46.51893857764661" lon="12.097273206621905"><ele>1601.0</ele><time>2026-05-03T15:49:05Z</time></trkpt><trkpt lat="46.51897394448798" lon="12.097379168354145"><ele>1601.0</ele><time>2026-05-03T15:49:07Z</time></trkpt><trkpt lat="46.51901602439526" lon="12.09748177356954"><ele>1601.0</ele><time>2026-05-03T15:49:09Z</time></trkpt><trkpt lat="46.519043206602824" lon="12.097575938300903"><ele>1600.9999999999998</ele><time>2026-05-03T15:49:11Z</time></trkpt><trkpt lat="46.51906139947162" lon="12.097682942921827"><ele>1601.0</ele><time>2026-05-03T15:49:13Z</time></trkpt><trkpt lat="46.51906505531222" lon="12.097794337634037"><ele>1599.9999999999998</ele><time>2026-05-03T15:49:15Z</time></trkpt><trkpt lat="46.51907025398866" lon="12.097916806843527"><ele>1599.0</ele><time>2026-05-03T15:49:17Z</time></trkpt><trkpt lat="46.519129635768444" lon="12.098004556709105"><ele>1598.0</ele><time>2026-05-03T15:49:19Z</time></trkpt><trkpt lat="46.51918998524414" lon="12.098052290843418"><ele>1597.0</ele><time>2026-05-03T15:49:21Z</time></trkpt><trkpt lat="46.519259213966855" lon="12.098112784198403"><ele>1595.9999999999998</ele><time>2026-05-03T15:49:23Z</time></trkpt><trkpt lat="46.51932470818614" lon="12.098179491336834"><ele>1595.0</ele><time>2026-05-03T15:49:25Z</time></trkpt><trkpt lat="46.519387208009995" lon="12.098232658349968"><ele>1594.8333333333333</ele><time>2026-05-03T15:49:27Z</time></trkpt><trkpt lat="46.519462963907486" lon="12.098291797019204"><ele>1594.6666666666665</ele><time>2026-05-03T15:49:29Z</time></trkpt><trkpt lat="46.51952473566399" lon="12.098359403405402"><ele>1594.5</ele><time>2026-05-03T15:49:31Z</time></trkpt><trkpt lat="46.51959013156072" lon="12.098412069496511"><ele>1594.3333333333335</ele><time>2026-05-03T15:49:33Z</time></trkpt><trkpt lat="46.51964340138786" lon="12.098471166496134"><ele>1594.1666666666667</ele><time>2026-05-03T15:49:35Z</time></trkpt><trkpt lat="46.51970657150498" lon="12.098410763200794"><ele>1594.0</ele><time>2026-05-03T15:49:37Z</time></trkpt><trkpt lat="46.519710991545416" lon="12.098289954410339"><ele>1600.0</ele><time>2026-05-03T15:49:39Z</time></trkpt><trkpt lat="46.519706476583565" lon="12.098120377684602"><ele>1606.0</ele><time>2026-05-03T15:49:42Z</time></trkpt><trkpt lat="46.51969843362342" lon="12.09799832198842"><ele>1612.0</ele><time>2026-05-03T15:49:44Z</time></trkpt><trkpt lat="46.51967735149804" lon="12.097843306777495"><ele>1618.0</ele><time>2026-05-03T15:49:47Z</time></trkpt><trkpt lat="46.519670400792315" lon="12.097736530623155"><ele>1624.0</ele><time>2026-05-03T15:49:49Z</time></trkpt><trkpt lat="46.51966996188815" lon="12.097627441046992"><ele>1624.0000000000002</ele><time>2026-05-03T15:49:51Z</time></trkpt><trkpt lat="46.519666228486564" lon="12.097518851855183"><ele>1624.0</ele><time>2026-05-03T15:49:53Z</time></trkpt><trkpt lat="46.5196591473394" lon="12.097403090600658"><ele>1624.0</ele><time>2026-05-03T15:49:55Z</time></trkpt><trkpt lat="46.5196563224261" lon="12.09728842130609"><ele>1624.0</ele><time>2026-05-03T15:49:57Z</time></trkpt><trkpt lat="46.51965569248727" lon="12.097193219794015"><ele>1624.0000000000002</ele><time>2026-05-03T15:49:59Z</time></trkpt><trkpt lat="46.519650432296444" lon="12.097092369925683"><ele>1624.0</ele><time>2026-05-03T15:50:01Z</time></trkpt><trkpt lat="46.519652712773656" lon="12.096958855554195"><ele>1625.2857142857142</ele><time>2026-05-03T15:50:03Z</time></trkpt><trkpt lat="46.51964666813587" lon="12.096860444685493"><ele>1626.5714285714284</ele><time>2026-05-03T15:50:05Z</time></trkpt><trkpt lat="46.51964997310632" lon="12.096752383821714"><ele>1627.857142857143</ele><time>2026-05-03T15:50:07Z</time></trkpt><trkpt lat="46.519664932039156" lon="12.096650985590266"><ele>1629.142857142857</ele><time>2026-05-03T15:50:09Z</time></trkpt><trkpt lat="46.51972079561835" lon="12.096589900770855"><ele>1630.4285714285713</ele><time>2026-05-03T15:50:12Z</time></trkpt><trkpt lat="46.51978639785532" lon="12.096606597598585"><ele>1631.7142857142858</ele><time>2026-05-03T15:50:15Z</time></trkpt><trkpt lat="46.519794460713165" lon="12.09671863365521"><ele>1633.0</ele><time>2026-05-03T15:50:18Z</time></trkpt><trkpt lat="46.5198378138509" lon="12.09683456823971"><ele>1633.0000000000002</ele><time>2026-05-03T15:50:21Z</time></trkpt><trkpt lat="46.51993404602714" lon="12.096910792713272"><ele>1633.0</ele><time>2026-05-03T15:50:24Z</time></trkpt><trkpt lat="46.51997287997659" lon="12.09698882383791"><ele>1633.0</ele><time>2026-05-03T15:50:26Z</time></trkpt><trkpt lat="46.520023269445524" lon="12.097060110759989"><ele>1633.0</ele><time>2026-05-03T15:50:28Z</time></trkpt><trkpt lat="46.52009656084732" lon="12.097124411017965"><ele>1633.0000000000002</ele><time>2026-05-03T15:50:31Z</time></trkpt><trkpt lat="46.52015410240277" lon="12.09708606815611"><ele>1633.0</ele><time>2026-05-03T15:50:33Z</time></trkpt><trkpt lat="46.52015832040799" lon="12.096980951313588"><ele>1633.0</ele><time>2026-05-03T15:50:36Z</time></trkpt><trkpt lat="46.52012778453679" lon="12.096875549741211"><ele>1633.0</ele><time>2026-05-03T15:50:39Z</time></trkpt><trkpt lat="46.52012225227313" lon="12.096782969117777"><ele>1633.0</ele><time>2026-05-03T15:50:41Z</time></trkpt><trkpt lat="46.52014104545872" lon="12.096658951651367"><ele>1633.0</ele><time>2026-05-03T15:50:44Z</time></trkpt><trkpt lat="46.520209847319784" lon="12.096649831356453"><ele>1633.0</ele><time>2026-05-03T15:50:47Z</time></trkpt><trkpt lat="46.520261107896545" lon="12.096703482630117"><ele>1633.0</ele><time>2026-05-03T15:50:49Z</time></trkpt><trkpt lat="46.52030210796923" lon="12.096776092997626"><ele>1633.0</ele><time>2026-05-03T15:50:51Z</time></trkpt><trkpt lat="46.52035234318376" lon="12.096841204562088"><ele>1633.0000000000002</ele><time>2026-05-03T15:50:53Z</time></trkpt><trkpt lat="46.52039913531364" lon="12.096933822288053"><ele>1633.0</ele><time>2026-05-03T15:50:55Z</time></trkpt><trkpt lat="46.52045330627378" lon="12.097018779960573"><ele>1633.0</ele><time>2026-05-03T15:50:57Z</time></trkpt><trkpt lat="46.52052683953" lon="12.097084508459382"><ele>1633.0</ele><time>2026-05-03T15:51:00Z</time></trkpt><trkpt lat="46.52060560057443" lon="12.097099230844178"><ele>1633.0000000000002</ele><time>2026-05-03T15:51:02Z</time></trkpt><trkpt lat="46.52067176147601" lon="12.097142539337531"><ele>1633.0</ele><time>2026-05-03T15:51:05Z</time></trkpt><trkpt lat="46.52073909993573" lon="12.097157734908857"><ele>1635.3333333333335</ele><time>2026-05-03T15:51:07Z</time></trkpt><trkpt lat="46.52083597853301" lon="12.097154835804885"><ele>1637.6666666666667</ele><time>2026-05-03T15:51:10Z</time></trkpt><trkpt lat="46.52092831968299" lon="12.097107405474482"><ele>1640.0</ele><time>2026-05-03T15:51:13Z</time></trkpt><trkpt lat="46.520980581038806" lon="12.097048521217564"><ele>1642.3333333333335</ele><time>2026-05-03T15:51:15Z</time></trkpt><trkpt lat="46.52104172916305" lon="12.097005357788944"><ele>1644.6666666666667</ele><time>2026-05-03T15:51:17Z</time></trkpt><trkpt lat="46.521119347350975" lon="12.096954088428593"><ele>1647.0</ele><time>2026-05-03T15:51:20Z</time></trkpt><trkpt lat="46.521201680377445" lon="12.096936587230218"><ele>1648.3333333333333</ele><time>2026-05-03T15:51:24Z</time></trkpt><trkpt lat="46.52126838379048" lon="12.09690275315291"><ele>1649.6666666666665</ele><time>2026-05-03T15:51:28Z</time></trkpt><trkpt lat="46.52133897591683" lon="12.096818653393873"><ele>1651.0</ele><time>2026-05-03T15:51:31Z</time></trkpt><trkpt lat="46.52137873661187" lon="12.096699485156423"><ele>1652.3333333333333</ele><time>2026-05-03T15:51:34Z</time></trkpt><trkpt lat="46.521382205813325" lon="12.096584962875857"><ele>1653.6666666666665</ele><time>2026-05-03T15:51:36Z</time></trkpt><trkpt lat="46.52134631005779" lon="12.096464661114261"><ele>1655.0</ele><time>2026-05-03T15:51:39Z</time></trkpt><trkpt lat="46.52131054396065" lon="12.096377290835422"><ele>1656.3333333333333</ele><time>2026-05-03T15:51:41Z</time></trkpt><trkpt lat="46.52129468107252" lon="12.096256945458478"><ele>1657.6666666666665</ele><time>2026-05-03T15:51:43Z</time></trkpt><trkpt lat="46.521310931829895" lon="12.096153354098893"><ele>1659.0</ele><time>2026-05-03T15:51:45Z</time></trkpt><trkpt lat="46.521347481621696" lon="12.096064271404297"><ele>1660.3333333333335</ele><time>2026-05-03T15:51:47Z</time></trkpt><trkpt lat="46.52139588386587" lon="12.095989676951474"><ele>1661.6666666666667</ele><time>2026-05-03T15:51:49Z</time></trkpt><trkpt lat="46.52143669115102" lon="12.095862556672829"><ele>1663.0</ele><time>2026-05-03T15:51:52Z</time></trkpt><trkpt lat="46.52145474673365" lon="12.095768590543635"><ele>1664.1666666666667</ele><time>2026-05-03T15:51:54Z</time></trkpt><trkpt lat="46.521454519971435" lon="12.095670974120386"><ele>1665.3333333333335</ele><time>2026-05-03T15:51:56Z</time></trkpt><trkpt lat="46.52145179859944" lon="12.095575761341404"><ele>1666.5</ele><time>2026-05-03T15:51:59Z</time></trkpt><trkpt lat="46.52140664109506" lon="12.095432416035239"><ele>1667.6666666666665</ele><time>2026-05-03T15:52:01Z</time></trkpt><trkpt lat="46.52140083225978" lon="12.09532610062371"><ele>1668.8333333333333</ele><time>2026-05-03T15:52:03Z</time></trkpt><trkpt lat="46.52140505797635" lon="12.095221209082014"><ele>1670.0</ele><time>2026-05-03T15:52:05Z</time></trkpt><trkpt lat="46.521392230969404" lon="12.095111673168624"><ele>1669.9999999999998</ele><time>2026-05-03T15:52:07Z</time></trkpt><trkpt lat="46.52139645078888" lon="12.094960794501915"><ele>1670.0</ele><time>2026-05-03T15:52:10Z</time></trkpt><trkpt lat="46.52140089618975" lon="12.094833065005616"><ele>1670.0</ele><time>2026-05-03T15:52:13Z</time></trkpt><trkpt lat="46.52141346774742" lon="12.094735379301095"><ele>1670.0</ele><time>2026-05-03T15:52:15Z</time></trkpt><trkpt lat="46.52144173069568" lon="12.09462729414317"><ele>1669.9999999999998</ele><time>2026-05-03T15:52:17Z</time></trkpt><trkpt lat="46.521471380063154" lon="12.094522845397096"><ele>1670.0</ele><time>2026-05-03T15:52:19Z</time></trkpt><trkpt lat="46.52151790265681" lon="12.094433216966864"><ele>1670.9999999999998</ele><time>2026-05-03T15:52:21Z</time></trkpt><trkpt lat="46.521560371355505" lon="12.094352795389472"><ele>1672.0</ele><time>2026-05-03T15:52:23Z</time></trkpt><trkpt lat="46.52160916817354" lon="12.094278064278749"><ele>1673.0</ele><time>2026-05-03T15:52:25Z</time></trkpt><trkpt lat="46.52168083656135" lon="12.094185912115847"><ele>1674.0</ele><time>2026-05-03T15:52:28Z</time></trkpt><trkpt lat="46.521744311746474" lon="12.094134400421858"><ele>1674.9999999999998</ele><time>2026-05-03T15:52:31Z</time></trkpt><trkpt lat="46.52175816983195" lon="12.094016092880645"><ele>1676.0</ele><time>2026-05-03T15:54:10Z</time></trkpt><trkpt lat="46.52174733829002" lon="12.093905531773068"><ele>1677.4285714285713</ele><time>2026-05-03T15:54:14Z</time></trkpt><trkpt lat="46.52172311814763" lon="12.093789518781577"><ele>1678.857142857143</ele><time>2026-05-03T15:54:17Z</time></trkpt><trkpt lat="46.52169519589167" lon="12.093699111832553"><ele>1680.2857142857142</ele><time>2026-05-03T15:54:20Z</time></trkpt><trkpt lat="46.5216722672682" lon="12.093603956785682"><ele>1681.7142857142858</ele><time>2026-05-03T15:54:23Z</time></trkpt><trkpt lat="46.521659325880734" lon="12.093509552009701"><ele>1683.142857142857</ele><time>2026-05-03T15:54:26Z</time></trkpt><trkpt lat="46.521648781486896" lon="12.093406655647554"><ele>1684.5714285714284</ele><time>2026-05-03T15:54:29Z</time></trkpt><trkpt lat="46.52163578635359" lon="12.093293118901208"><ele>1686.0</ele><time>2026-05-03T15:54:32Z</time></trkpt><trkpt lat="46.521621515197296" lon="12.09317844537377"><ele>1687.1666666666667</ele><time>2026-05-03T15:54:35Z</time></trkpt><trkpt lat="46.52157958125776" lon="12.093074868195815"><ele>1688.3333333333335</ele><time>2026-05-03T15:54:39Z</time></trkpt><trkpt lat="46.521570568456795" lon="12.092966708003937"><ele>1689.5</ele><time>2026-05-03T15:54:43Z</time></trkpt><trkpt lat="46.521563845518244" lon="12.09284577597904"><ele>1690.6666666666667</ele><time>2026-05-03T15:54:47Z</time></trkpt><trkpt lat="46.52156350889115" lon="12.092741797843102"><ele>1691.8333333333335</ele><time>2026-05-03T15:54:50Z</time></trkpt><trkpt lat="46.521565579755844" lon="12.092627152591605"><ele>1693.0</ele><time>2026-05-03T15:54:54Z</time></trkpt><trkpt lat="46.52156047940166" lon="12.09252266493084"><ele>1694.1666666666667</ele><time>2026-05-03T15:54:58Z</time></trkpt><trkpt lat="46.521538072944615" lon="12.092414515767729"><ele>1695.3333333333335</ele><time>2026-05-03T15:55:01Z</time></trkpt><trkpt lat="46.5215353441281" lon="12.092294990670727"><ele>1696.5</ele><time>2026-05-03T15:55:05Z</time></trkpt><trkpt lat="46.521531620779164" lon="12.092158423847316"><ele>1697.6666666666665</ele><time>2026-05-03T15:55:09Z</time></trkpt><trkpt lat="46.52153323290817" lon="12.092059290694488"><ele>1698.8333333333333</ele><time>2026-05-03T15:55:13Z</time></trkpt><trkpt lat="46.52153639875414" lon="12.091943565192505"><ele>1700.0</ele><time>2026-05-03T15:55:17Z</time></trkpt><trkpt lat="46.5215529179283" lon="12.091840289898617"><ele>1699.9999999999998</ele><time>2026-05-03T15:55:21Z</time></trkpt><trkpt lat="46.5215743791063" lon="12.091703127717617"><ele>1700.0</ele><time>2026-05-03T15:55:25Z</time></trkpt><trkpt lat="46.521616038298006" lon="12.091588663654743"><ele>1700.0</ele><time>2026-05-03T15:55:29Z</time></trkpt><trkpt lat="46.521622758794955" lon="12.091466109238809"><ele>1700.0</ele><time>2026-05-03T15:55:33Z</time></trkpt><trkpt lat="46.52163695945434" lon="12.091363905664506"><ele>1699.9999999999998</ele><time>2026-05-03T15:55:36Z</time></trkpt><trkpt lat="46.52165359451271" lon="12.091239862629449"><ele>1700.0</ele><time>2026-05-03T15:55:39Z</time></trkpt><trkpt lat="46.52166156862851" lon="12.091134681772104"><ele>1700.9999999999998</ele><time>2026-05-03T15:55:43Z</time></trkpt><trkpt lat="46.5216838456777" lon="12.09102368288921"><ele>1702.0</ele><time>2026-05-03T15:55:46Z</time></trkpt><trkpt lat="46.52169021757738" lon="12.090915426981415"><ele>1703.0</ele><time>2026-05-03T15:55:49Z</time></trkpt><trkpt lat="46.52168662447248" lon="12.090813474638171"><ele>1704.0</ele><time>2026-05-03T15:55:51Z</time></trkpt><trkpt lat="46.52168069307709" lon="12.09070679596474"><ele>1704.9999999999998</ele><time>2026-05-03T15:55:54Z</time></trkpt><trkpt lat="46.52168599705705" lon="12.090582359980305"><ele>1706.0</ele><time>2026-05-03T15:55:58Z</time></trkpt><trkpt lat="46.521693923133846" lon="12.090451238166338"><ele>1707.1666666666665</ele><time>2026-05-03T15:56:02Z</time></trkpt><trkpt lat="46.521684558150525" lon="12.090331090943762"><ele>1708.3333333333333</ele><time>2026-05-03T15:56:05Z</time></trkpt><trkpt lat="46.521667806582464" lon="12.09024162783421"><ele>1709.5</ele><time>2026-05-03T15:56:08Z</time></trkpt><trkpt lat="46.521658112030934" lon="12.090121434366718"><ele>1710.6666666666665</ele><time>2026-05-03T15:56:11Z</time></trkpt><trkpt lat="46.5216555995181" lon="12.09000919545271"><ele>1711.8333333333333</ele><time>2026-05-03T15:56:14Z</time></trkpt><trkpt lat="46.521659093446274" lon="12.089901383190622"><ele>1713.0</ele><time>2026-05-03T15:56:17Z</time></trkpt><trkpt lat="46.52167365144106" lon="12.089805113463084"><ele>1713.0</ele><time>2026-05-03T15:56:20Z</time></trkpt><trkpt lat="46.52172282161296" lon="12.089705229549097"><ele>1713.0</ele><time>2026-05-03T15:56:24Z</time></trkpt><trkpt lat="46.52178677009269" lon="12.08965574569188"><ele>1713.0</ele><time>2026-05-03T15:56:28Z</time></trkpt><trkpt lat="46.521855417049714" lon="12.08963858809915"><ele>1713.0</ele><time>2026-05-03T15:56:32Z</time></trkpt><trkpt lat="46.52194471629099" lon="12.08965257999823"><ele>1713.0</ele><time>2026-05-03T15:56:36Z</time></trkpt><trkpt lat="46.522017842998736" lon="12.08958320047704"><ele>1713.0</ele><time>2026-05-03T15:56:40Z</time></trkpt><trkpt lat="46.522066635183805" lon="12.089471110985095"><ele>1714.0</ele><time>2026-05-03T15:56:44Z</time></trkpt><trkpt lat="46.522104669553556" lon="12.089388156241625"><ele>1715.0</ele><time>2026-05-03T15:56:48Z</time></trkpt><trkpt lat="46.52215232333884" lon="12.089250352412856"><ele>1716.0</ele><time>2026-05-03T15:57:38Z</time></trkpt><trkpt lat="46.52219359862683" lon="12.089173443263219"><ele>1717.0</ele><time>2026-05-03T15:57:42Z</time></trkpt><trkpt lat="46.522269249198814" lon="12.089159737152269"><ele>1718.0</ele><time>2026-05-03T15:57:46Z</time></trkpt><trkpt lat="46.522321619253724" lon="12.089072422779056"><ele>1719.0</ele><time>2026-05-03T15:57:50Z</time></trkpt><trkpt lat="46.522358450196975" lon="12.088962323390636"><ele>1719.7142857142858</ele><time>2026-05-03T15:57:53Z</time></trkpt><trkpt lat="46.522421023918824" lon="12.08889513481344"><ele>1720.4285714285716</ele><time>2026-05-03T15:57:56Z</time></trkpt><trkpt lat="46.52248896452063" lon="12.088848321042859"><ele>1721.1428571428573</ele><time>2026-05-03T15:57:59Z</time></trkpt><trkpt lat="46.52255179627559" lon="12.088796470297495"><ele>1721.857142857143</ele><time>2026-05-03T15:58:02Z</time></trkpt><trkpt lat="46.522620916290066" lon="12.088770201555311"><ele>1722.5714285714284</ele><time>2026-05-03T15:58:05Z</time></trkpt><trkpt lat="46.522704382941484" lon="12.088747204424912"><ele>1723.2857142857144</ele><time>2026-05-03T15:58:09Z</time></trkpt><trkpt lat="46.52276613012818" lon="12.088715183024439"><ele>1724.0</ele><time>2026-05-03T15:58:12Z</time></trkpt><trkpt lat="46.52284102802326" lon="12.088671061780571"><ele>1725.9999999999998</ele><time>2026-05-03T15:58:15Z</time></trkpt><trkpt lat="46.52291523609536" lon="12.088636735335525"><ele>1728.0</ele><time>2026-05-03T15:58:19Z</time></trkpt><trkpt lat="46.523002986277135" lon="12.088613657263108"><ele>1730.0</ele><time>2026-05-03T15:58:22Z</time></trkpt><trkpt lat="46.5230844736285" lon="12.088562666397424"><ele>1732.0</ele><time>2026-05-03T15:58:26Z</time></trkpt><trkpt lat="46.52314625485155" lon="12.088512602335996"><ele>1733.9999999999998</ele><time>2026-05-03T15:58:29Z</time></trkpt><trkpt lat="46.52320090033231" lon="12.088450643499032"><ele>1736.0</ele><time>2026-05-03T15:58:32Z</time></trkpt><trkpt lat="46.52324354571302" lon="12.088362165344636"><ele>1736.0</ele><time>2026-05-03T15:58:35Z</time></trkpt><trkpt lat="46.52326274622394" lon="12.088269725368411"><ele>1736.0</ele><time>2026-05-03T15:58:38Z</time></trkpt><trkpt lat="46.52330020037885" lon="12.088188501617386"><ele>1736.0</ele><time>2026-05-03T15:58:41Z</time></trkpt><trkpt lat="46.52332968866753" lon="12.088101740223292"><ele>1736.0</ele><time>2026-05-03T15:58:44Z</time></trkpt><trkpt lat="46.52335451303681" lon="12.08801087230436"><ele>1736.0</ele><time>2026-05-03T15:58:47Z</time></trkpt><trkpt lat="46.52338499133343" lon="12.087900121829454"><ele>1736.0</ele><time>2026-05-03T15:58:51Z</time></trkpt><trkpt lat="46.52343317967617" lon="12.087814063276497"><ele>1736.0</ele><time>2026-05-03T15:58:55Z</time></trkpt><trkpt lat="46.52350081236049" lon="12.087728000244585"><ele>1737.4999999999998</ele><time>2026-05-03T15:58:59Z</time></trkpt><trkpt lat="46.52355969752931" lon="12.087695068021665"><ele>1739.0</ele><time>2026-05-03T15:59:02Z</time></trkpt><trkpt lat="46.52364392474363" lon="12.087703870362486"><ele>1740.5</ele><time>2026-05-03T15:59:06Z</time></trkpt><trkpt lat="46.523724811198655" lon="12.087690170274405"><ele>1742.0</ele><time>2026-05-03T15:59:09Z</time></trkpt><trkpt lat="46.52380281596586" lon="12.08765408853477"><ele>1743.4999999999998</ele><time>2026-05-03T15:59:12Z</time></trkpt><trkpt lat="46.523883306618735" lon="12.087632110740023"><ele>1745.0</ele><time>2026-05-03T15:59:15Z</time></trkpt><trkpt lat="46.523974861099404" lon="12.08761613797419"><ele>1745.7142857142858</ele><time>2026-05-03T15:59:19Z</time></trkpt><trkpt lat="46.52404109497667" lon="12.08762388586525"><ele>1746.4285714285713</ele><time>2026-05-03T15:59:22Z</time></trkpt><trkpt lat="46.524103912565735" lon="12.087663333708212"><ele>1747.142857142857</ele><time>2026-05-03T15:59:25Z</time></trkpt><trkpt lat="46.52413497128542" lon="12.087765170730842"><ele>1747.857142857143</ele><time>2026-05-03T15:59:28Z</time></trkpt><trkpt lat="46.52416193278096" lon="12.087874749213704"><ele>1748.5714285714284</ele><time>2026-05-03T15:59:30Z</time></trkpt><trkpt lat="46.52418934293568" lon="12.087984619833849"><ele>1749.2857142857142</ele><time>2026-05-03T15:59:32Z</time></trkpt><trkpt lat="46.52420902574643" lon="12.088090249520612"><ele>1750.0</ele><time>2026-05-03T15:59:35Z</time></trkpt><trkpt lat="46.52423682136937" lon="12.088194588485383"><ele>1749.6666666666667</ele><time>2026-05-03T15:59:37Z</time></trkpt><trkpt lat="46.52427047083666" lon="12.088297793306227"><ele>1749.3333333333335</ele><time>2026-05-03T15:59:39Z</time></trkpt><trkpt lat="46.52431251763758" lon="12.088387126578318"><ele>1749.0</ele><time>2026-05-03T15:59:42Z</time></trkpt><trkpt lat="46.524375219771876" lon="12.088497385087788"><ele>1748.6666666666665</ele><time>2026-05-03T15:59:44Z</time></trkpt><trkpt lat="46.524437555449516" lon="12.08852131298015"><ele>1748.3333333333333</ele><time>2026-05-03T15:59:46Z</time></trkpt><trkpt lat="46.52450811020455" lon="12.088540684229832"><ele>1748.0</ele><time>2026-05-03T15:59:50.001Z</time></trkpt><trkpt lat="46.52455478933572" lon="12.088451040940981"><ele>1749.3333333333333</ele><time>2026-05-03T16:00:26Z</time></trkpt><trkpt lat="46.52458361966544" lon="12.088349901946348"><ele>1750.6666666666665</ele><time>2026-05-03T16:00:28Z</time></trkpt><trkpt lat="46.52459210037582" lon="12.088231921695522"><ele>1752.0</ele><time>2026-05-03T16:00:30Z</time></trkpt><trkpt lat="46.5245949136657" lon="12.088106748312349"><ele>1753.3333333333335</ele><time>2026-05-03T16:00:32Z</time></trkpt><trkpt lat="46.524601741375534" lon="12.087984946115323"><ele>1754.6666666666667</ele><time>2026-05-03T16:00:34Z</time></trkpt><trkpt lat="46.524604052702294" lon="12.087861428882496"><ele>1756.0</ele><time>2026-05-03T16:00:36Z</time></trkpt><trkpt lat="46.5246027259111" lon="12.087749630968315"><ele>1756.0</ele><time>2026-05-03T16:00:38Z</time></trkpt><trkpt lat="46.52462528216713" lon="12.087654229533063"><ele>1756.0</ele><time>2026-05-03T16:00:40Z</time></trkpt><trkpt lat="46.52464912276712" lon="12.087562885739786"><ele>1756.0</ele><time>2026-05-03T16:00:42Z</time></trkpt><trkpt lat="46.524679308335855" lon="12.087466324633763"><ele>1756.0</ele><time>2026-05-03T16:00:44Z</time></trkpt><trkpt lat="46.5247246329378" lon="12.087374912113269"><ele>1756.0</ele><time>2026-05-03T16:00:46Z</time></trkpt><trkpt lat="46.52475985145521" lon="12.087286561267078"><ele>1756.0</ele><time>2026-05-03T16:00:48Z</time></trkpt><trkpt lat="46.524813889815" lon="12.087208439416099"><ele>1756.0</ele><time>2026-05-03T16:01:19Z</time></trkpt><trkpt lat="46.52489337583261" lon="12.087130027859082"><ele>1757.6666666666667</ele><time>2026-05-03T16:01:22Z</time></trkpt><trkpt lat="46.524964786373765" lon="12.087066850773255"><ele>1759.3333333333335</ele><time>2026-05-03T16:01:24Z</time></trkpt><trkpt lat="46.52504148244043" lon="12.087023951862728"><ele>1761.0</ele><time>2026-05-03T16:01:26Z</time></trkpt><trkpt lat="46.525106504792035" lon="12.087004747839954"><ele>1762.6666666666665</ele><time>2026-05-03T16:01:28Z</time></trkpt><trkpt lat="46.52517844937518" lon="12.086986229060534"><ele>1764.3333333333333</ele><time>2026-05-03T16:01:30Z</time></trkpt><trkpt lat="46.525255448327215" lon="12.086974676940141"><ele>1766.0</ele><time>2026-05-03T16:01:32Z</time></trkpt><trkpt lat="46.52533424417678" lon="12.086980263707488"><ele>1767.3333333333333</ele><time>2026-05-03T16:01:34Z</time></trkpt><trkpt lat="46.52542298206736" lon="12.086997282177036"><ele>1768.6666666666665</ele><time>2026-05-03T16:01:36Z</time></trkpt><trkpt lat="46.525504822092344" lon="12.087017577350805"><ele>1770.0</ele><time>2026-05-03T16:01:38Z</time></trkpt><trkpt lat="46.525588017156004" lon="12.087028508288265"><ele>1771.3333333333335</ele><time>2026-05-03T16:01:40Z</time></trkpt><trkpt lat="46.52567417281495" lon="12.087052192769205"><ele>1772.6666666666667</ele><time>2026-05-03T16:01:42Z</time></trkpt><trkpt lat="46.52576966543545" lon="12.087057329042752"><ele>1774.0</ele><time>2026-05-03T16:01:44Z</time></trkpt><trkpt lat="46.52586373728772" lon="12.087024370528159"><ele>1774.0000000000002</ele><time>2026-05-03T16:01:46Z</time></trkpt><trkpt lat="46.52595085128916" lon="12.087003267664294"><ele>1774.0</ele><time>2026-05-03T16:01:48Z</time></trkpt><trkpt lat="46.52604161798203" lon="12.08699649409438"><ele>1774.0</ele><time>2026-05-03T16:01:50Z</time></trkpt><trkpt lat="46.52610351142912" lon="12.087047925702155"><ele>1774.0</ele><time>2026-05-03T16:01:52Z</time></trkpt><trkpt lat="46.526165007680746" lon="12.0871156950456"><ele>1774.0000000000002</ele><time>2026-05-03T16:01:54.001Z</time></trkpt><trkpt lat="46.52622851284625" lon="12.087166692548081"><ele>1774.0</ele><time>2026-05-03T16:01:56.001Z</time></trkpt><trkpt lat="46.52629770198979" lon="12.087242978475107"><ele>1776.1666666666667</ele><time>2026-05-03T16:01:58.001Z</time></trkpt><trkpt lat="46.52636702978062" lon="12.087316570040873"><ele>1778.3333333333335</ele><time>2026-05-03T16:02:00.001Z</time></trkpt><trkpt lat="46.52641111838513" lon="12.08740295240144"><ele>1780.5</ele><time>2026-05-03T16:02:02.001Z</time></trkpt><trkpt lat="46.52644102227933" lon="12.087502931292839"><ele>1782.6666666666665</ele><time>2026-05-03T16:02:04.001Z</time></trkpt><trkpt lat="46.52646732531372" lon="12.087615155676692"><ele>1784.8333333333333</ele><time>2026-05-03T16:02:06.001Z</time></trkpt><trkpt lat="46.52647474007878" lon="12.087717748872638"><ele>1787.0</ele><time>2026-05-03T16:02:08.001Z</time></trkpt><trkpt lat="46.526476228063906" lon="12.087828327408332"><ele>1786.9999999999998</ele><time>2026-05-03T16:02:10.001Z</time></trkpt><trkpt lat="46.526478294851415" lon="12.087941697094555"><ele>1787.0</ele><time>2026-05-03T16:02:12.001Z</time></trkpt><trkpt lat="46.52648836461258" lon="12.088058043104397"><ele>1787.0</ele><time>2026-05-03T16:02:14Z</time></trkpt><trkpt lat="46.52647894570716" lon="12.088176174353876"><ele>1787.0</ele><time>2026-05-03T16:02:16Z</time></trkpt><trkpt lat="46.52646935215279" lon="12.08829972388031"><ele>1786.9999999999998</ele><time>2026-05-03T16:02:18Z</time></trkpt><trkpt lat="46.526455277978506" lon="12.088415618420452"><ele>1787.0</ele><time>2026-05-03T16:02:20Z</time></trkpt><trkpt lat="46.52643455984721" lon="12.088531842813742"><ele>1788.3333333333333</ele><time>2026-05-03T16:02:22Z</time></trkpt><trkpt lat="46.5263881849298" lon="12.088640383976665"><ele>1789.6666666666665</ele><time>2026-05-03T16:02:24Z</time></trkpt><trkpt lat="46.526346669798734" lon="12.088749037283344"><ele>1791.0</ele><time>2026-05-03T16:02:26Z</time></trkpt><trkpt lat="46.526311652606104" lon="12.088866976732007"><ele>1792.3333333333335</ele><time>2026-05-03T16:02:29Z</time></trkpt><trkpt lat="46.52630437362525" lon="12.08898438270113"><ele>1793.6666666666667</ele><time>2026-05-03T16:02:31Z</time></trkpt><trkpt lat="46.52632172609935" lon="12.08909428251094"><ele>1795.0</ele><time>2026-05-03T16:02:33Z</time></trkpt><trkpt lat="46.52632273924613" lon="12.089228812469388"><ele>1795.8333333333335</ele><time>2026-05-03T16:02:35Z</time></trkpt><trkpt lat="46.526348464815506" lon="12.089332324182958"><ele>1796.6666666666667</ele><time>2026-05-03T16:02:37Z</time></trkpt><trkpt lat="46.526382483877356" lon="12.089436711575877"><ele>1797.5</ele><time>2026-05-03T16:02:39Z</time></trkpt><trkpt lat="46.52645446961492" lon="12.0895191870176"><ele>1798.3333333333335</ele><time>2026-05-03T16:02:41Z</time></trkpt><trkpt lat="46.5265144299458" lon="12.089582951614203"><ele>1799.1666666666667</ele><time>2026-05-03T16:02:43Z</time></trkpt><trkpt lat="46.52658907916795" lon="12.089586637406354"><ele>1800.0</ele><time>2026-05-03T16:02:45Z</time></trkpt><trkpt lat="46.526638976221584" lon="12.089529400197588"><ele>1800.0</ele><time>2026-05-03T16:02:48Z</time></trkpt><trkpt lat="46.52669039752308" lon="12.08944856122561"><ele>1800.0</ele><time>2026-05-03T16:03:13Z</time></trkpt><trkpt lat="46.52675400246759" lon="12.089390712421686"><ele>1800.0</ele><time>2026-05-03T16:03:16Z</time></trkpt><trkpt lat="46.526829315100244" lon="12.08943524178552"><ele>1800.0</ele><time>2026-05-03T16:03:19Z</time></trkpt><trkpt lat="46.526900363656424" lon="12.08948613072715"><ele>1800.0</ele><time>2026-05-03T16:03:22Z</time></trkpt><trkpt lat="46.5269823731205" lon="12.089551449589777"><ele>1800.0</ele><time>2026-05-03T16:03:25Z</time></trkpt><trkpt lat="46.52704274431279" lon="12.08960222279477"><ele>1802.5</ele><time>2026-05-03T16:03:27Z</time></trkpt><trkpt lat="46.527099432411" lon="12.089678528276371"><ele>1805.0</ele><time>2026-05-03T16:03:29Z</time></trkpt><trkpt lat="46.527150928029144" lon="12.089753845554673"><ele>1807.5</ele><time>2026-05-03T16:03:31Z</time></trkpt><trkpt lat="46.52721665386329" lon="12.08980784440164"><ele>1810.0</ele><time>2026-05-03T16:03:34Z</time></trkpt><trkpt lat="46.52728942427481" lon="12.089826879344308"><ele>1812.5</ele><time>2026-05-03T16:03:38Z</time></trkpt><trkpt lat="46.52734138065212" lon="12.08989779943204"><ele>1815.0</ele><time>2026-05-03T16:04:08Z</time></trkpt><trkpt lat="46.52732651079785" lon="12.090017951867598"><ele>1815.0</ele><time>2026-05-03T16:04:22Z</time></trkpt><trkpt lat="46.52728269467069" lon="12.09010633136123"><ele>1815.0</ele><time>2026-05-03T16:04:25Z</time></trkpt><trkpt lat="46.52730806975667" lon="12.090222087454018"><ele>1815.0</ele><time>2026-05-03T16:04:28Z</time></trkpt><trkpt lat="46.52735766419851" lon="12.09031329985736"><ele>1815.0</ele><time>2026-05-03T16:04:30Z</time></trkpt><trkpt lat="46.52735942020455" lon="12.090408875338753"><ele>1815.0</ele><time>2026-05-03T16:04:32Z</time></trkpt><trkpt lat="46.52735919615128" lon="12.090500864124222"><ele>1815.0</ele><time>2026-05-03T16:04:34Z</time></trkpt><trkpt lat="46.52739649956944" lon="12.090589631367127"><ele>1815.0</ele><time>2026-05-03T16:04:37Z</time></trkpt><trkpt lat="46.52743477874898" lon="12.09066846441856"><ele>1815.0</ele><time>2026-05-03T16:04:41Z</time></trkpt><trkpt lat="46.52749248896926" lon="12.090735199628321"><ele>1815.0</ele><time>2026-05-03T16:04:46Z</time></trkpt><trkpt lat="46.52755404322719" lon="12.090764337280659"><ele>1815.0</ele><time>2026-05-03T16:04:49Z</time></trkpt><trkpt lat="46.52763057023495" lon="12.090783682171361"><ele>1815.0</ele><time>2026-05-03T16:04:53Z</time></trkpt><trkpt lat="46.5277257515079" lon="12.090796262584385"><ele>1815.0</ele><time>2026-05-03T16:04:56Z</time></trkpt><trkpt lat="46.5278049485043" lon="12.090777416561382"><ele>1815.0</ele><time>2026-05-03T16:04:59Z</time></trkpt><trkpt lat="46.52790096792609" lon="12.090742271827727"><ele>1814.5</ele><time>2026-05-03T16:05:02Z</time></trkpt><trkpt lat="46.52798298942855" lon="12.090703188146852"><ele>1814.0</ele><time>2026-05-03T16:05:04Z</time></trkpt><trkpt lat="46.52806647778516" lon="12.090688606609366"><ele>1813.5</ele><time>2026-05-03T16:05:06Z</time></trkpt><trkpt lat="46.5281665834063" lon="12.090668436940256"><ele>1813.0</ele><time>2026-05-03T16:05:08Z</time></trkpt><trkpt lat="46.52824866260517" lon="12.090623561952706"><ele>1812.5</ele><time>2026-05-03T16:05:10Z</time></trkpt><trkpt lat="46.528301680678766" lon="12.090556479900307"><ele>1812.0</ele><time>2026-05-03T16:05:14Z</time></trkpt><trkpt lat="46.528370653902115" lon="12.090518439282691"><ele>1812.0</ele><time>2026-05-03T16:05:18Z</time></trkpt><trkpt lat="46.52842912946636" lon="12.09048089760514"><ele>1812.0</ele><time>2026-05-03T16:05:20Z</time></trkpt><trkpt lat="46.52850801895328" lon="12.090426656521677"><ele>1812.0</ele><time>2026-05-03T16:05:23Z</time></trkpt><trkpt lat="46.52857062365323" lon="12.0903608328151"><ele>1812.0</ele><time>2026-05-03T16:05:26Z</time></trkpt><trkpt lat="46.52863947510834" lon="12.090323308646969"><ele>1812.0</ele><time>2026-05-03T16:05:28Z</time></trkpt><trkpt lat="46.52870340648341" lon="12.090271149318054"><ele>1812.0</ele><time>2026-05-03T16:05:31Z</time></trkpt><trkpt lat="46.52877928353425" lon="12.090234212929873"><ele>1809.6</ele><time>2026-05-03T16:05:34Z</time></trkpt><trkpt lat="46.52884898779107" lon="12.090214714256774"><ele>1807.1999999999998</ele><time>2026-05-03T16:05:37Z</time></trkpt><trkpt lat="46.52892612101334" lon="12.0901906860345"><ele>1804.8</ele><time>2026-05-03T16:05:39Z</time></trkpt><trkpt lat="46.529059603023306" lon="12.090171338058438"><ele>1802.4</ele><time>2026-05-03T16:05:44Z</time></trkpt><trkpt lat="46.52912328797545" lon="12.09014520892405"><ele>1800.0</ele><time>2026-05-03T16:05:47Z</time></trkpt><trkpt lat="46.52928193473599" lon="12.090148132487403"><ele>1800.0</ele><time>2026-05-03T16:06:08Z</time></trkpt><trkpt lat="46.529394165855614" lon="12.09014997311249"><ele>1800.0</ele><time>2026-05-03T16:06:48Z</time></trkpt><trkpt lat="46.52946110927647" lon="12.090183204318697"><ele>1800.0</ele><time>2026-05-03T16:06:50Z</time></trkpt><trkpt lat="46.52952472168205" lon="12.090219367217243"><ele>1800.0</ele><time>2026-05-03T16:06:52Z</time></trkpt><trkpt lat="46.52958607987693" lon="12.090308760895432"><ele>1800.0</ele><time>2026-05-03T16:06:55Z</time></trkpt><trkpt lat="46.52962026590749" lon="12.090393691932679"><ele>1800.0</ele><time>2026-05-03T16:06:57Z</time></trkpt><trkpt lat="46.52969129144154" lon="12.090428921133187"><ele>1799.8</ele><time>2026-05-03T16:06:59Z</time></trkpt><trkpt lat="46.52977928859415" lon="12.090511875694515"><ele>1799.6</ele><time>2026-05-03T16:07:01Z</time></trkpt><trkpt lat="46.52984020022389" lon="12.090541590348668"><ele>1799.4</ele><time>2026-05-03T16:07:02Z</time></trkpt><trkpt lat="46.52989556860621" lon="12.090614707877279"><ele>1799.2</ele><time>2026-05-03T16:07:03Z</time></trkpt><trkpt lat="46.52996004801016" lon="12.09068740976764"><ele>1799.0</ele><time>2026-05-03T16:07:04Z</time></trkpt><trkpt lat="46.530019220237676" lon="12.090907087119596"><ele>1796.2</ele><time>2026-05-03T16:07:06Z</time></trkpt><trkpt lat="46.53009263078126" lon="12.090963597218492"><ele>1793.4</ele><time>2026-05-03T16:07:07Z</time></trkpt><trkpt lat="46.530224541369314" lon="12.091016581949388"><ele>1790.6</ele><time>2026-05-03T16:07:09Z</time></trkpt><trkpt lat="46.53029411850128" lon="12.091010636984254"><ele>1787.8</ele><time>2026-05-03T16:07:11Z</time></trkpt><trkpt lat="46.53039074303432" lon="12.09102584918362"><ele>1785.0</ele><time>2026-05-03T16:07:15Z</time></trkpt><trkpt lat="46.53049167400464" lon="12.091065135193258"><ele>1785.0</ele><time>2026-05-03T16:07:17Z</time></trkpt><trkpt lat="46.53060714776919" lon="12.091110753483019"><ele>1785.0</ele><time>2026-05-03T16:07:19Z</time></trkpt><trkpt lat="46.53068934277321" lon="12.091129707326784"><ele>1785.0</ele><time>2026-05-03T16:07:22Z</time></trkpt><trkpt lat="46.53075936361534" lon="12.091159515736502"><ele>1785.0</ele><time>2026-05-03T16:07:24Z</time></trkpt><trkpt lat="46.530835701126186" lon="12.091195816234634"><ele>1785.0</ele><time>2026-05-03T16:07:26Z</time></trkpt><trkpt lat="46.530903174345134" lon="12.091229690627987"><ele>1785.0</ele><time>2026-05-03T16:07:30Z</time></trkpt><trkpt lat="46.53098978561262" lon="12.091276669477288"><ele>1785.0</ele><time>2026-05-03T16:07:32Z</time></trkpt><trkpt lat="46.531109797368806" lon="12.091290653506235"><ele>1785.0</ele><time>2026-05-03T16:07:34Z</time></trkpt><trkpt lat="46.5311999480782" lon="12.091341860437979"><ele>1785.0</ele><time>2026-05-03T16:07:36Z</time></trkpt><trkpt lat="46.53124777605359" lon="12.091500499872083"><ele>1785.0</ele><time>2026-05-03T16:07:38Z</time></trkpt><trkpt lat="46.53128590884736" lon="12.091584552822683"><ele>1785.0</ele><time>2026-05-03T16:07:39Z</time></trkpt><trkpt lat="46.53143130433007" lon="12.091695097536642"><ele>1783.0</ele><time>2026-05-03T16:07:41Z</time></trkpt><trkpt lat="46.53145227374833" lon="12.091783702508087"><ele>1781.0</ele><time>2026-05-03T16:07:42Z</time></trkpt><trkpt lat="46.5314800349309" lon="12.09193583470686"><ele>1779.0</ele><time>2026-05-03T16:07:44Z</time></trkpt><trkpt lat="46.53149651052215" lon="12.092028080167273"><ele>1777.0</ele><time>2026-05-03T16:07:45Z</time></trkpt><trkpt lat="46.53153760743551" lon="12.092190546630283"><ele>1775.0</ele><time>2026-05-03T16:07:47Z</time></trkpt><trkpt lat="46.53159284899839" lon="12.092320355693953"><ele>1774.9999999999998</ele><time>2026-05-03T16:07:49Z</time></trkpt><trkpt lat="46.53165321842626" lon="12.092395267675252"><ele>1775.0</ele><time>2026-05-03T16:07:51Z</time></trkpt><trkpt lat="46.53171190060312" lon="12.09246447285241"><ele>1775.0</ele><time>2026-05-03T16:07:53Z</time></trkpt><trkpt lat="46.53176178473056" lon="12.092534067954466"><ele>1775.0</ele><time>2026-05-03T16:07:55Z</time></trkpt><trkpt lat="46.53185007641045" lon="12.09258136621729"><ele>1774.9999999999998</ele><time>2026-05-03T16:07:58Z</time></trkpt><trkpt lat="46.5319188155648" lon="12.092648988553785"><ele>1775.0</ele><time>2026-05-03T16:08:00Z</time></trkpt><trkpt lat="46.5319861940496" lon="12.09269056453043"><ele>1772.6666666666665</ele><time>2026-05-03T16:08:02Z</time></trkpt><trkpt lat="46.53207819472008" lon="12.092712838405724"><ele>1770.3333333333333</ele><time>2026-05-03T16:08:04Z</time></trkpt><trkpt lat="46.53214960598582" lon="12.0927457839696"><ele>1768.0</ele><time>2026-05-03T16:08:06Z</time></trkpt><trkpt lat="46.53222729139833" lon="12.09272945678016"><ele>1765.6666666666665</ele><time>2026-05-03T16:08:07Z</time></trkpt><trkpt lat="46.53231107872742" lon="12.092686111709362"><ele>1763.3333333333333</ele><time>2026-05-03T16:08:09Z</time></trkpt><trkpt lat="46.532387144470846" lon="12.092593278496347"><ele>1761.0</ele><time>2026-05-03T16:08:10Z</time></trkpt><trkpt lat="46.53246819692229" lon="12.092585180600192"><ele>1761.0</ele><time>2026-05-03T16:08:11Z</time></trkpt><trkpt lat="46.53254616283214" lon="12.092544171190129"><ele>1761.0</ele><time>2026-05-03T16:08:12Z</time></trkpt><trkpt lat="46.532622227156715" lon="12.092570968857146"><ele>1761.0</ele><time>2026-05-03T16:08:14Z</time></trkpt><trkpt lat="46.53272563561506" lon="12.092590325516946"><ele>1761.0</ele><time>2026-05-03T16:08:17Z</time></trkpt><trkpt lat="46.53281367584489" lon="12.092614109218191"><ele>1761.0</ele><time>2026-05-03T16:08:19Z</time></trkpt><trkpt lat="46.53300570121569" lon="12.092635236280968"><ele>1762.6</ele><time>2026-05-03T16:08:22Z</time></trkpt><trkpt lat="46.53310324655443" lon="12.092665884206198"><ele>1764.1999999999998</ele><time>2026-05-03T16:08:26Z</time></trkpt><trkpt lat="46.53316735075463" lon="12.092711062595702"><ele>1765.8000000000002</ele><time>2026-05-03T16:08:29Z</time></trkpt><trkpt lat="46.53325739328237" lon="12.092788583229819"><ele>1767.4</ele><time>2026-05-03T16:08:32Z</time></trkpt><trkpt lat="46.53333854663105" lon="12.09283719246779"><ele>1769.0</ele><time>2026-05-03T16:08:34Z</time></trkpt><trkpt lat="46.53346089212532" lon="12.09284490693731"><ele>1768.9999999999998</ele><time>2026-05-03T16:08:36Z</time></trkpt><trkpt lat="46.53352824425583" lon="12.09280584807047"><ele>1769.0</ele><time>2026-05-03T16:08:39Z</time></trkpt><trkpt lat="46.53358521557935" lon="12.09286437651433"><ele>1769.0</ele><time>2026-05-03T16:08:41Z</time></trkpt><trkpt lat="46.533695280772996" lon="12.09292972397577"><ele>1769.0</ele><time>2026-05-03T16:08:44Z</time></trkpt><trkpt lat="46.53378929148024" lon="12.093001967423714"><ele>1768.9999999999998</ele><time>2026-05-03T16:08:46Z</time></trkpt><trkpt lat="46.53385700938339" lon="12.093019718213815"><ele>1769.0</ele><time>2026-05-03T16:08:48Z</time></trkpt><trkpt lat="46.53393047799685" lon="12.093052846358367"><ele>1773.3333333333333</ele><time>2026-05-03T16:08:50Z</time></trkpt><trkpt lat="46.53402525870382" lon="12.093057778975847"><ele>1777.6666666666665</ele><time>2026-05-03T16:08:52Z</time></trkpt><trkpt lat="46.53411827612064" lon="12.093089721855614"><ele>1782.0</ele><time>2026-05-03T16:08:54Z</time></trkpt><trkpt lat="46.53418440518532" lon="12.09312955637608"><ele>1786.3333333333335</ele><time>2026-05-03T16:08:56Z</time></trkpt><trkpt lat="46.534261459019675" lon="12.09314580786138"><ele>1790.6666666666667</ele><time>2026-05-03T16:08:58Z</time></trkpt><trkpt lat="46.5343311937053" lon="12.093170811584518"><ele>1795.0</ele><time>2026-05-03T16:09:00Z</time></trkpt><trkpt lat="46.534397460638395" lon="12.093200857953626"><ele>1795.0000000000002</ele><time>2026-05-03T16:09:02Z</time></trkpt><trkpt lat="46.53447326923002" lon="12.093244921590333"><ele>1795.0</ele><time>2026-05-03T16:09:04Z</time></trkpt><trkpt lat="46.53454119533313" lon="12.09327155331136"><ele>1795.0</ele><time>2026-05-03T16:09:06Z</time></trkpt><trkpt lat="46.534610442481906" lon="12.093297198162212"><ele>1795.0</ele><time>2026-05-03T16:09:08Z</time></trkpt><trkpt lat="46.53472298254059" lon="12.093296414558823"><ele>1795.0000000000002</ele><time>2026-05-03T16:09:10Z</time></trkpt><trkpt lat="46.53482103640776" lon="12.093305298748367"><ele>1795.0</ele><time>2026-05-03T16:09:12Z</time></trkpt><trkpt lat="46.53492747185532" lon="12.093349246817576"><ele>1792.6666666666667</ele><time>2026-05-03T16:09:14Z</time></trkpt><trkpt lat="46.535005433215986" lon="12.09347468360992"><ele>1790.3333333333335</ele><time>2026-05-03T16:09:16Z</time></trkpt><trkpt lat="46.53508013726158" lon="12.093516333761109"><ele>1788.0</ele><time>2026-05-03T16:09:19Z</time></trkpt><trkpt lat="46.53514234895498" lon="12.093551834714175"><ele>1785.6666666666665</ele><time>2026-05-03T16:09:21Z</time></trkpt><trkpt lat="46.53525971145513" lon="12.09359570782087"><ele>1783.3333333333333</ele><time>2026-05-03T16:09:25Z</time></trkpt><trkpt lat="46.53531156983567" lon="12.093650685402366"><ele>1781.0</ele><time>2026-05-03T16:09:27Z</time></trkpt><trkpt lat="46.535373374843374" lon="12.093686788927522"><ele>1782.1999999999998</ele><time>2026-05-03T16:09:29Z</time></trkpt><trkpt lat="46.53543632160601" lon="12.093722718424218"><ele>1783.3999999999999</ele><time>2026-05-03T16:09:31Z</time></trkpt><trkpt lat="46.535496669771774" lon="12.093753831588243"><ele>1784.6</ele><time>2026-05-03T16:09:33Z</time></trkpt><trkpt lat="46.53558223661221" lon="12.093791988761373"><ele>1785.8</ele><time>2026-05-03T16:09:35Z</time></trkpt><trkpt lat="46.53570049651063" lon="12.093814616465522"><ele>1787.0</ele><time>2026-05-03T16:09:38Z</time></trkpt><trkpt lat="46.53581249948819" lon="12.093827148954741"><ele>1787.0</ele><time>2026-05-03T16:09:40Z</time></trkpt><trkpt lat="46.53590584151196" lon="12.093797893965423"><ele>1786.9999999999998</ele><time>2026-05-03T16:09:43Z</time></trkpt><trkpt lat="46.53598060050523" lon="12.093699746270829"><ele>1786.9999999999998</ele><time>2026-05-03T16:09:45Z</time></trkpt><trkpt lat="46.53606941288493" lon="12.093702005000958"><ele>1787.0</ele><time>2026-05-03T16:09:47Z</time></trkpt><trkpt lat="46.53619249478112" lon="12.09371832854999"><ele>1787.0</ele><time>2026-05-03T16:09:49Z</time></trkpt><trkpt lat="46.536296911973395" lon="12.093781364712488"><ele>1787.6666666666665</ele><time>2026-05-03T16:09:51Z</time></trkpt><trkpt lat="46.536348408389024" lon="12.093852837186049"><ele>1788.3333333333333</ele><time>2026-05-03T16:09:52Z</time></trkpt><trkpt lat="46.53631497361685" lon="12.093941459916968"><ele>1789.0</ele><time>2026-05-03T16:09:53Z</time></trkpt><trkpt lat="46.536346767973285" lon="12.094050505226232"><ele>1789.6666666666665</ele><time>2026-05-03T16:09:55Z</time></trkpt><trkpt lat="46.53637546885904" lon="12.094135981559031"><ele>1790.3333333333333</ele><time>2026-05-03T16:09:56Z</time></trkpt><trkpt lat="46.53641873690158" lon="12.094233286657225"><ele>1791.0</ele><time>2026-05-03T16:09:57Z</time></trkpt><trkpt lat="46.53648259476902" lon="12.094311725323502"><ele>1785.8</ele><time>2026-05-03T16:09:58Z</time></trkpt><trkpt lat="46.536551753165426" lon="12.09436864316401"><ele>1780.6</ele><time>2026-05-03T16:09:59Z</time></trkpt><trkpt lat="46.53662123222054" lon="12.094415681064785"><ele>1775.4</ele><time>2026-05-03T16:10:00Z</time></trkpt><trkpt lat="46.53671576122521" lon="12.094497537247978"><ele>1770.2</ele><time>2026-05-03T16:10:02Z</time></trkpt><trkpt lat="46.536797311870075" lon="12.094631141766998"><ele>1765.0</ele><time>2026-05-03T16:10:04Z</time></trkpt><trkpt lat="46.53683385969734" lon="12.094734493879036"><ele>1765.0000000000002</ele><time>2026-05-03T16:10:05Z</time></trkpt><trkpt lat="46.53685971634201" lon="12.094824494819624"><ele>1765.0</ele><time>2026-05-03T16:10:06Z</time></trkpt><trkpt lat="46.536879709086726" lon="12.094917547605009"><ele>1765.0</ele><time>2026-05-03T16:10:07Z</time></trkpt><trkpt lat="46.53688736210924" lon="12.095094627767429"><ele>1765.0</ele><time>2026-05-03T16:10:09Z</time></trkpt><trkpt lat="46.53687239923728" lon="12.095206923504595"><ele>1765.0000000000002</ele><time>2026-05-03T16:10:10Z</time></trkpt><trkpt lat="46.53685930286706" lon="12.095298268403841"><ele>1765.0</ele><time>2026-05-03T16:10:11Z</time></trkpt><trkpt lat="46.536839157735336" lon="12.095461333140037"><ele>1761.2</ele><time>2026-05-03T16:10:13Z</time></trkpt><trkpt lat="46.53683312669456" lon="12.095593864531617"><ele>1757.4</ele><time>2026-05-03T16:10:14Z</time></trkpt><trkpt lat="46.53683116712268" lon="12.095755210560519"><ele>1753.6</ele><time>2026-05-03T16:10:16.001Z</time></trkpt><trkpt lat="46.5368559972335" lon="12.09593324310251"><ele>1749.8</ele><time>2026-05-03T16:10:18.001Z</time></trkpt><trkpt lat="46.536897720325626" lon="12.096050133928054"><ele>1746.0</ele><time>2026-05-03T16:10:19.001Z</time></trkpt><trkpt lat="46.536952229077336" lon="12.096141255428751"><ele>1745.6666666666667</ele><time>2026-05-03T16:10:20.001Z</time></trkpt><trkpt lat="46.537014535820624" lon="12.096213439435097"><ele>1745.3333333333335</ele><time>2026-05-03T16:10:21.001Z</time></trkpt><trkpt lat="46.537084604648705" lon="12.096276981559885"><ele>1745.0</ele><time>2026-05-03T16:10:22.001Z</time></trkpt><trkpt lat="46.53715282713849" lon="12.096330180241754"><ele>1744.6666666666667</ele><time>2026-05-03T16:10:24.001Z</time></trkpt><trkpt lat="46.537219247573546" lon="12.096373399860822"><ele>1744.3333333333335</ele><time>2026-05-03T16:10:27Z</time></trkpt><trkpt lat="46.53729274376882" lon="12.096406512535763"><ele>1744.0</ele><time>2026-05-03T16:10:29Z</time></trkpt><trkpt lat="46.53739237456451" lon="12.096409899815614"><ele>1744.0</ele><time>2026-05-03T16:12:13Z</time></trkpt><trkpt lat="46.5374490025355" lon="12.096476415639628"><ele>1744.0</ele><time>2026-05-03T16:12:16Z</time></trkpt><trkpt lat="46.53754474707871" lon="12.096500924876231"><ele>1744.0</ele><time>2026-05-03T16:12:19Z</time></trkpt><trkpt lat="46.537638380952664" lon="12.096533909016397"><ele>1744.0</ele><time>2026-05-03T16:12:21Z</time></trkpt><trkpt lat="46.53772573857708" lon="12.096574294803643"><ele>1744.0</ele><time>2026-05-03T16:12:23Z</time></trkpt><trkpt lat="46.53776957641668" lon="12.096705341173374"><ele>1741.0</ele><time>2026-05-03T16:12:25Z</time></trkpt><trkpt lat="46.5377667458494" lon="12.09684869326273"><ele>1738.0</ele><time>2026-05-03T16:12:27Z</time></trkpt><trkpt lat="46.53779872902866" lon="12.096964878845746"><ele>1735.0</ele><time>2026-05-03T16:12:29Z</time></trkpt><trkpt lat="46.53790199438934" lon="12.09704828885536"><ele>1732.0</ele><time>2026-05-03T16:12:32Z</time></trkpt><trkpt lat="46.537998987713884" lon="12.097099612341264"><ele>1729.0</ele><time>2026-05-03T16:12:34Z</time></trkpt><trkpt lat="46.53809175845895" lon="12.097109917769814"><ele>1727.0</ele><time>2026-05-03T16:12:36Z</time></trkpt><trkpt lat="46.538201042846666" lon="12.097120093464145"><ele>1725.0</ele><time>2026-05-03T16:12:38Z</time></trkpt><trkpt lat="46.53827837938402" lon="12.097183331276169"><ele>1723.0</ele><time>2026-05-03T16:12:40Z</time></trkpt><trkpt lat="46.538343295516896" lon="12.097190686314006"><ele>1721.0</ele><time>2026-05-03T16:12:42Z</time></trkpt><trkpt lat="46.538407709227904" lon="12.097217671335091"><ele>1719.0</ele><time>2026-05-03T16:12:47Z</time></trkpt><trkpt lat="46.538546561632145" lon="12.09719687824583"><ele>1719.0</ele><time>2026-05-03T16:12:56Z</time></trkpt><trkpt lat="46.5386194612045" lon="12.09717985285348"><ele>1719.0</ele><time>2026-05-03T16:13:00Z</time></trkpt><trkpt lat="46.53868566946591" lon="12.097153702301148"><ele>1719.0</ele><time>2026-05-03T16:13:03Z</time></trkpt><trkpt lat="46.538774038426375" lon="12.097103343309453"><ele>1719.0</ele><time>2026-05-03T16:13:07Z</time></trkpt><trkpt lat="46.53884279113742" lon="12.097037968011666"><ele>1719.0</ele><time>2026-05-03T16:13:10Z</time></trkpt><trkpt lat="46.53892026100898" lon="12.096983999273679"><ele>1719.0</ele><time>2026-05-03T16:13:13Z</time></trkpt><trkpt lat="46.53898709094298" lon="12.096947263174346"><ele>1718.2857142857144</ele><time>2026-05-03T16:13:16Z</time></trkpt><trkpt lat="46.53905097161821" lon="12.096919298914782"><ele>1717.5714285714287</ele><time>2026-05-03T16:13:19Z</time></trkpt><trkpt lat="46.53912769690532" lon="12.09690593578644"><ele>1716.857142857143</ele><time>2026-05-03T16:13:23Z</time></trkpt><trkpt lat="46.53920447312165" lon="12.096956621813364"><ele>1716.1428571428573</ele><time>2026-05-03T16:13:53Z</time></trkpt><trkpt lat="46.539229818894285" lon="12.097057528053783"><ele>1715.4285714285713</ele><time>2026-05-03T16:13:55Z</time></trkpt><trkpt lat="46.53925948800429" lon="12.097152927898703"><ele>1714.7142857142858</ele><time>2026-05-03T16:13:57Z</time></trkpt><trkpt lat="46.53928823401142" lon="12.097250077788853"><ele>1714.0</ele><time>2026-05-03T16:14:01Z</time></trkpt><trkpt lat="46.53925864554591" lon="12.097347713537916"><ele>1712.1666666666667</ele><time>2026-05-03T16:14:05Z</time></trkpt><trkpt lat="46.53928664027275" lon="12.097430551598721"><ele>1710.3333333333335</ele><time>2026-05-03T16:14:07Z</time></trkpt><trkpt lat="46.5393283257225" lon="12.097528044309568"><ele>1708.5</ele><time>2026-05-03T16:14:09Z</time></trkpt><trkpt lat="46.53935667233562" lon="12.09766622094916"><ele>1706.6666666666665</ele><time>2026-05-03T16:14:11Z</time></trkpt><trkpt lat="46.539365643627946" lon="12.097760631693005"><ele>1704.8333333333333</ele><time>2026-05-03T16:14:12Z</time></trkpt><trkpt lat="46.539389941059284" lon="12.097862737583531"><ele>1703.0</ele><time>2026-05-03T16:14:13Z</time></trkpt><trkpt lat="46.53939033936046" lon="12.09797950766978"><ele>1702.9999999999998</ele><time>2026-05-03T16:14:14Z</time></trkpt><trkpt lat="46.53940352680242" lon="12.09807042049376"><ele>1703.0</ele><time>2026-05-03T16:14:15Z</time></trkpt><trkpt lat="46.53940917819383" lon="12.098162086278105"><ele>1703.0</ele><time>2026-05-03T16:14:16Z</time></trkpt><trkpt lat="46.5394138982307" lon="12.098257620091928"><ele>1703.0</ele><time>2026-05-03T16:14:17Z</time></trkpt><trkpt lat="46.53941184955236" lon="12.098418109109705"><ele>1702.9999999999998</ele><time>2026-05-03T16:14:19Z</time></trkpt><trkpt lat="46.539421074462695" lon="12.098559526367904"><ele>1703.0</ele><time>2026-05-03T16:14:21Z</time></trkpt><trkpt lat="46.53946306477553" lon="12.09870037664167"><ele>1700.6666666666665</ele><time>2026-05-03T16:14:23Z</time></trkpt><trkpt lat="46.53951014001785" lon="12.098802141928093"><ele>1698.3333333333333</ele><time>2026-05-03T16:14:25Z</time></trkpt><trkpt lat="46.53955369342937" lon="12.098880143146555"><ele>1696.0</ele><time>2026-05-03T16:14:28Z</time></trkpt><trkpt lat="46.539605350508005" lon="12.098963512568924"><ele>1693.6666666666665</ele><time>2026-05-03T16:14:31Z</time></trkpt><trkpt lat="46.53965608952491" lon="12.099020024448631"><ele>1691.3333333333333</ele><time>2026-05-03T16:14:32Z</time></trkpt><trkpt lat="46.53976274482832" lon="12.099086959699655"><ele>1689.0</ele><time>2026-05-03T16:14:34Z</time></trkpt><trkpt lat="46.539881330039194" lon="12.099086777139664"><ele>1687.0</ele><time>2026-05-03T16:14:36Z</time></trkpt><trkpt lat="46.539955124910676" lon="12.099030660889307"><ele>1685.0</ele><time>2026-05-03T16:14:38Z</time></trkpt><trkpt lat="46.54001938023887" lon="12.098952744248752"><ele>1683.0</ele><time>2026-05-03T16:14:41Z</time></trkpt><trkpt lat="46.53999308316278" lon="12.098860448313854"><ele>1681.0</ele><time>2026-05-03T16:14:42Z</time></trkpt><trkpt lat="46.540059577220944" lon="12.098774237505026"><ele>1679.0</ele><time>2026-05-03T16:14:44Z</time></trkpt><trkpt lat="46.54012839969425" lon="12.098691663702976"><ele>1677.0</ele><time>2026-05-03T16:14:46Z</time></trkpt><trkpt lat="46.540191175007266" lon="12.098608296417105"><ele>1677.0000000000002</ele><time>2026-05-03T16:14:48Z</time></trkpt><trkpt lat="46.54024007615113" lon="12.098525088391783"><ele>1677.0</ele><time>2026-05-03T16:14:50Z</time></trkpt><trkpt lat="46.540294167578026" lon="12.09846709108592"><ele>1677.0</ele><time>2026-05-03T16:14:52Z</time></trkpt><trkpt lat="46.54034726000515" lon="12.098415790425575"><ele>1677.0</ele><time>2026-05-03T16:14:54Z</time></trkpt><trkpt lat="46.540424828396986" lon="12.098379223014119"><ele>1677.0</ele><time>2026-05-03T16:14:58Z</time></trkpt><trkpt lat="46.54048856733547" lon="12.098327846748155"><ele>1677.0000000000002</ele><time>2026-05-03T16:15:01Z</time></trkpt><trkpt lat="46.54054189443292" lon="12.098264863654936"><ele>1677.0</ele><time>2026-05-03T16:15:03Z</time></trkpt><trkpt lat="46.540609808000504" lon="12.098224908069461"><ele>1678.0</ele><time>2026-05-03T16:15:05Z</time></trkpt><trkpt lat="46.54066977887391" lon="12.098136153971932"><ele>1679.0</ele><time>2026-05-03T16:15:08Z</time></trkpt><trkpt lat="46.5407385273458" lon="12.098160138464019"><ele>1680.0</ele><time>2026-05-03T16:15:10Z</time></trkpt><trkpt lat="46.54079110904651" lon="12.098211610398973"><ele>1681.0</ele><time>2026-05-03T16:15:12Z</time></trkpt><trkpt lat="46.54083763427336" lon="12.098327344631105"><ele>1682.0</ele><time>2026-05-03T16:15:15Z</time></trkpt><trkpt lat="46.540868091743526" lon="12.098418359151827"><ele>1683.0</ele><time>2026-05-03T16:15:18Z</time></trkpt><trkpt lat="46.540932562456156" lon="12.09851736146356"><ele>1682.3333333333333</ele><time>2026-05-03T16:15:20Z</time></trkpt><trkpt lat="46.54096265135568" lon="12.098604768726283"><ele>1681.6666666666665</ele><time>2026-05-03T16:15:22Z</time></trkpt><trkpt lat="46.541014524428036" lon="12.098714648840366"><ele>1681.0</ele><time>2026-05-03T16:15:25Z</time></trkpt><trkpt lat="46.54107116531772" lon="12.098780028644148"><ele>1680.3333333333333</ele><time>2026-05-03T16:15:27Z</time></trkpt><trkpt lat="46.54114409381499" lon="12.098862917513758"><ele>1679.6666666666665</ele><time>2026-05-03T16:15:30Z</time></trkpt><trkpt lat="46.54121220468843" lon="12.098959846394111"><ele>1679.0</ele><time>2026-05-03T16:15:33Z</time></trkpt><trkpt lat="46.541287580220896" lon="12.099056160494218"><ele>1677.8333333333333</ele><time>2026-05-03T16:15:35Z</time></trkpt><trkpt lat="46.541351320721134" lon="12.099104801740307"><ele>1676.6666666666665</ele><time>2026-05-03T16:15:37Z</time></trkpt><trkpt lat="46.54139150633483" lon="12.099181307236073"><ele>1675.5</ele><time>2026-05-03T16:15:39Z</time></trkpt><trkpt lat="46.54146496227531" lon="12.099220292291074"><ele>1674.3333333333335</ele><time>2026-05-03T16:15:42Z</time></trkpt><trkpt lat="46.541543038897046" lon="12.09932291252231"><ele>1673.1666666666667</ele><time>2026-05-03T16:15:44Z</time></trkpt><trkpt lat="46.54160979776792" lon="12.099409391993722"><ele>1672.0</ele><time>2026-05-03T16:15:46Z</time></trkpt><trkpt lat="46.541687750629336" lon="12.09948405502254"><ele>1672.0000000000002</ele><time>2026-05-03T16:15:48Z</time></trkpt><trkpt lat="46.541759858046255" lon="12.099547790342932"><ele>1672.0</ele><time>2026-05-03T16:15:50Z</time></trkpt><trkpt lat="46.541842002545984" lon="12.099608595312555"><ele>1672.0</ele><time>2026-05-03T16:15:52Z</time></trkpt><trkpt lat="46.54191688928611" lon="12.099663448929014"><ele>1672.0</ele><time>2026-05-03T16:15:54Z</time></trkpt><trkpt lat="46.541977107760275" lon="12.099714484499707"><ele>1672.0000000000002</ele><time>2026-05-03T16:15:56Z</time></trkpt><trkpt lat="46.542056468520656" lon="12.099779796475094"><ele>1672.0</ele><time>2026-05-03T16:15:58Z</time></trkpt><trkpt lat="46.54215219423861" lon="12.09982306910383"><ele>1672.0000000000002</ele><time>2026-05-03T16:16:00Z</time></trkpt><trkpt lat="46.54224656435384" lon="12.099843160199116"><ele>1672.0</ele><time>2026-05-03T16:16:02Z</time></trkpt><trkpt lat="46.542324542203055" lon="12.099861921380324"><ele>1672.0</ele><time>2026-05-03T16:16:04Z</time></trkpt><trkpt lat="46.542425568217766" lon="12.0998876282463"><ele>1672.0</ele><time>2026-05-03T16:16:06Z</time></trkpt><trkpt lat="46.54253159491005" lon="12.099895605145786"><ele>1672.0000000000002</ele><time>2026-05-03T16:16:08Z</time></trkpt><trkpt lat="46.542593056179086" lon="12.099917825527143"><ele>1672.0</ele><time>2026-05-03T16:16:09Z</time></trkpt><trkpt lat="46.54268873104514" lon="12.099988186063797"><ele>1672.0000000000002</ele><time>2026-05-03T16:16:11Z</time></trkpt><trkpt lat="46.542767346339765" lon="12.1000582575295"><ele>1672.0</ele><time>2026-05-03T16:16:13Z</time></trkpt><trkpt lat="46.542826668505064" lon="12.100121688052088"><ele>1672.0</ele><time>2026-05-03T16:16:15Z</time></trkpt><trkpt lat="46.5428867315336" lon="12.100171423991366"><ele>1672.0</ele><time>2026-05-03T16:16:18Z</time></trkpt><trkpt lat="46.54294770283749" lon="12.100212006470189"><ele>1672.0000000000002</ele><time>2026-05-03T16:16:21Z</time></trkpt><trkpt lat="46.54304049586311" lon="12.100220665864544"><ele>1672.0</ele><time>2026-05-03T16:16:24Z</time></trkpt><trkpt lat="46.543123856884506" lon="12.100280882248304"><ele>1673.8</ele><time>2026-05-03T16:16:26Z</time></trkpt><trkpt lat="46.543213373431215" lon="12.100356501410621"><ele>1675.6</ele><time>2026-05-03T16:16:28Z</time></trkpt><trkpt lat="46.543317432619325" lon="12.100410958690263"><ele>1677.3999999999999</ele><time>2026-05-03T16:16:30Z</time></trkpt><trkpt lat="46.54342363839199" lon="12.100467421079184"><ele>1679.1999999999998</ele><time>2026-05-03T16:16:32Z</time></trkpt><trkpt lat="46.543531899428494" lon="12.10054768354684"><ele>1681.0</ele><time>2026-05-03T16:16:34Z</time></trkpt><trkpt lat="46.54363268384489" lon="12.100608435329152"><ele>1679.0000000000002</ele><time>2026-05-03T16:16:36Z</time></trkpt><trkpt lat="46.5437259095164" lon="12.100653273867445"><ele>1677.0</ele><time>2026-05-03T16:16:38Z</time></trkpt><trkpt lat="46.543809713383226" lon="12.100666569338586"><ele>1675.0</ele><time>2026-05-03T16:16:40Z</time></trkpt><trkpt lat="46.543882545152236" lon="12.100698757212047"><ele>1673.0</ele><time>2026-05-03T16:16:42Z</time></trkpt><trkpt lat="46.54396448304771" lon="12.100699933208784"><ele>1671.0000000000002</ele><time>2026-05-03T16:16:44Z</time></trkpt><trkpt lat="46.54404548202319" lon="12.100720885144844"><ele>1669.0</ele><time>2026-05-03T16:16:47Z</time></trkpt><trkpt lat="46.54411926164208" lon="12.100730906451897"><ele>1669.0000000000002</ele><time>2026-05-03T16:16:50Z</time></trkpt><trkpt lat="46.54419609967508" lon="12.100704581540723"><ele>1669.0</ele><time>2026-05-03T16:16:52Z</time></trkpt><trkpt lat="46.544287733770666" lon="12.10073049606733"><ele>1669.0</ele><time>2026-05-03T16:16:54Z</time></trkpt><trkpt lat="46.544391753615415" lon="12.100713428610128"><ele>1669.0</ele><time>2026-05-03T16:16:56Z</time></trkpt><trkpt lat="46.544495514265776" lon="12.10071124114418"><ele>1669.0000000000002</ele><time>2026-05-03T16:16:59Z</time></trkpt><trkpt lat="46.54455897651727" lon="12.100734123669346"><ele>1669.0</ele><time>2026-05-03T16:17:00Z</time></trkpt><trkpt lat="46.54466234713796" lon="12.10075888410242"><ele>1670.2</ele><time>2026-05-03T16:17:02Z</time></trkpt><trkpt lat="46.544785448287094" lon="12.100754423839321"><ele>1671.4</ele><time>2026-05-03T16:17:04Z</time></trkpt><trkpt lat="46.544886010675064" lon="12.100777725803878"><ele>1672.6</ele><time>2026-05-03T16:17:06Z</time></trkpt><trkpt lat="46.54499667398253" lon="12.100753385740864"><ele>1673.8</ele><time>2026-05-03T16:17:08Z</time></trkpt><trkpt lat="46.545107270570206" lon="12.100778385934268"><ele>1675.0</ele><time>2026-05-03T16:17:10Z</time></trkpt><trkpt lat="46.54517126972581" lon="12.100786531755872"><ele>1675.0000000000002</ele><time>2026-05-03T16:17:12Z</time></trkpt><trkpt lat="46.545237542535254" lon="12.100782138524455"><ele>1675.0</ele><time>2026-05-03T16:17:14Z</time></trkpt><trkpt lat="46.54530504863292" lon="12.100786263509157"><ele>1675.0</ele><time>2026-05-03T16:17:16Z</time></trkpt><trkpt lat="46.545371341313846" lon="12.100797947212223"><ele>1675.0</ele><time>2026-05-03T16:17:18Z</time></trkpt><trkpt lat="46.54544609190803" lon="12.100819528780637"><ele>1675.0000000000002</ele><time>2026-05-03T16:17:19Z</time></trkpt><trkpt lat="46.5455289719286" lon="12.100916944128164"><ele>1675.0</ele><time>2026-05-03T16:17:22Z</time></trkpt><trkpt lat="46.54562128727295" lon="12.100994241503095"><ele>1673.0</ele><time>2026-05-03T16:17:24Z</time></trkpt><trkpt lat="46.54572227652073" lon="12.1010646660483"><ele>1671.0</ele><time>2026-05-03T16:17:26Z</time></trkpt><trkpt lat="46.54579102170577" lon="12.101089482094451"><ele>1669.0</ele><time>2026-05-03T16:17:27Z</time></trkpt><trkpt lat="46.54588155083773" lon="12.101072189770205"><ele>1667.0</ele><time>2026-05-03T16:17:29Z</time></trkpt><trkpt lat="46.5459756260848" lon="12.100978001552042"><ele>1665.0</ele><time>2026-05-03T16:17:31Z</time></trkpt><trkpt lat="46.546060519274874" lon="12.100891985739763"><ele>1665.0</ele><time>2026-05-03T16:17:33Z</time></trkpt><trkpt lat="46.54617193453113" lon="12.100906753365974"><ele>1665.0</ele><time>2026-05-03T16:17:35Z</time></trkpt><trkpt lat="46.546265012559324" lon="12.100981849345215"><ele>1665.0</ele><time>2026-05-03T16:17:37Z</time></trkpt><trkpt lat="46.546326264120765" lon="12.101072948612563"><ele>1665.0</ele><time>2026-05-03T16:17:39Z</time></trkpt><trkpt lat="46.54642785157474" lon="12.101138091059454"><ele>1665.0</ele><time>2026-05-03T16:17:41Z</time></trkpt><trkpt lat="46.54652268404063" lon="12.10117302118488"><ele>1664.4</ele><time>2026-05-03T16:17:43Z</time></trkpt><trkpt lat="46.54665483724107" lon="12.101218286206144"><ele>1663.8</ele><time>2026-05-03T16:17:46Z</time></trkpt><trkpt lat="46.54674101235796" lon="12.101244696665207"><ele>1663.1999999999998</ele><time>2026-05-03T16:17:49Z</time></trkpt><trkpt lat="46.546821792709466" lon="12.101271332327173"><ele>1662.6</ele><time>2026-05-03T16:17:50Z</time></trkpt><trkpt lat="46.54689542623941" lon="12.101283753573862"><ele>1662.0</ele><time>2026-05-03T16:17:51Z</time></trkpt><trkpt lat="46.54699012557989" lon="12.101340171898274"><ele>1663.1666666666667</ele><time>2026-05-03T16:17:53Z</time></trkpt><trkpt lat="46.54705649790309" lon="12.101357686782189"><ele>1664.3333333333335</ele><time>2026-05-03T16:17:54Z</time></trkpt><trkpt lat="46.54712348206539" lon="12.101374252368318"><ele>1665.5</ele><time>2026-05-03T16:17:56Z</time></trkpt><trkpt lat="46.54719487077635" lon="12.101390565597791"><ele>1666.6666666666667</ele><time>2026-05-03T16:17:57Z</time></trkpt><trkpt lat="46.547288754686754" lon="12.101433737264381"><ele>1667.8333333333335</ele><time>2026-05-03T16:18:00Z</time></trkpt><trkpt lat="46.547367387987066" lon="12.101492162579321"><ele>1669.0</ele><time>2026-05-03T16:18:02Z</time></trkpt><trkpt lat="46.54755763624147" lon="12.10157254736747"><ele>1669.4</ele><time>2026-05-03T16:18:03Z</time></trkpt><trkpt lat="46.54766237066134" lon="12.10163786916426"><ele>1669.8000000000002</ele><time>2026-05-03T16:18:05Z</time></trkpt><trkpt lat="46.54775529035542" lon="12.101673262275945"><ele>1670.1999999999998</ele><time>2026-05-03T16:18:07Z</time></trkpt><trkpt lat="46.54784927058459" lon="12.10171531530389"><ele>1670.6</ele><time>2026-05-03T16:18:09Z</time></trkpt><trkpt lat="46.54794171470166" lon="12.101761334312847"><ele>1671.0</ele><time>2026-05-03T16:18:11Z</time></trkpt><trkpt lat="46.548022907318234" lon="12.10180810164791"><ele>1671.0</ele><time>2026-05-03T16:18:13Z</time></trkpt><trkpt lat="46.548082036207546" lon="12.101853351454006"><ele>1671.0</ele><time>2026-05-03T16:18:14Z</time></trkpt><trkpt lat="46.548184949783966" lon="12.10192422377209"><ele>1671.0</ele><time>2026-05-03T16:18:16Z</time></trkpt><trkpt lat="46.54826543753535" lon="12.101992227942794"><ele>1671.0</ele><time>2026-05-03T16:18:18Z</time></trkpt><trkpt lat="46.548383098120304" lon="12.102018208382253"><ele>1671.0</ele><time>2026-05-03T16:18:21Z</time></trkpt><trkpt lat="46.548506876746046" lon="12.10201485883677"><ele>1671.0</ele><time>2026-05-03T16:18:23Z</time></trkpt><trkpt lat="46.54860271531957" lon="12.10199592638379"><ele>1671.0</ele><time>2026-05-03T16:18:25Z</time></trkpt><trkpt lat="46.54867705491533" lon="12.102015118276402"><ele>1671.0</ele><time>2026-05-03T16:18:28Z</time></trkpt><trkpt lat="46.54875202365912" lon="12.10200935299257"><ele>1671.0</ele><time>2026-05-03T16:18:30Z</time></trkpt><trkpt lat="46.548825245610026" lon="12.101979140740069"><ele>1671.0</ele><time>2026-05-03T16:18:32Z</time></trkpt><trkpt lat="46.54887232327083" lon="12.101903902516987"><ele>1671.0</ele><time>2026-05-03T16:18:35Z</time></trkpt><trkpt lat="46.54892527868212" lon="12.101817474281598"><ele>1670.1666666666667</ele><time>2026-05-03T16:18:38Z</time></trkpt><trkpt lat="46.548982022658045" lon="12.101726547542315"><ele>1669.3333333333335</ele><time>2026-05-03T16:18:41Z</time></trkpt><trkpt lat="46.54904961115206" lon="12.101662392000554"><ele>1668.5</ele><time>2026-05-03T16:18:43Z</time></trkpt><trkpt lat="46.54910770834781" lon="12.10162158798625"><ele>1667.6666666666667</ele><time>2026-05-03T16:18:44Z</time></trkpt><trkpt lat="46.549189304895165" lon="12.101527652161359"><ele>1666.8333333333335</ele><time>2026-05-03T16:18:46Z</time></trkpt><trkpt lat="46.54924264333268" lon="12.101468798296308"><ele>1666.0</ele><time>2026-05-03T16:18:47Z</time></trkpt><trkpt lat="46.549294208734814" lon="12.101412196967136"><ele>1666.0</ele><time>2026-05-03T16:18:48Z</time></trkpt><trkpt lat="46.549374380790944" lon="12.101292277969714"><ele>1666.0</ele><time>2026-05-03T16:18:50Z</time></trkpt><trkpt lat="46.54943718446797" lon="12.101226939769697"><ele>1666.0</ele><time>2026-05-03T16:18:53Z</time></trkpt><trkpt lat="46.549511183919826" lon="12.101115898745999"><ele>1666.0</ele><time>2026-05-03T16:18:56Z</time></trkpt><trkpt lat="46.54957774639783" lon="12.101058919675038"><ele>1666.0</ele><time>2026-05-03T16:18:58Z</time></trkpt><trkpt lat="46.549676620829096" lon="12.100982377898282"><ele>1666.6666666666667</ele><time>2026-05-03T16:19:00Z</time></trkpt><trkpt lat="46.549731561594726" lon="12.100932609622745"><ele>1667.3333333333335</ele><time>2026-05-03T16:19:01Z</time></trkpt><trkpt lat="46.54983210802735" lon="12.100806321483972"><ele>1668.0</ele><time>2026-05-03T16:19:03Z</time></trkpt><trkpt lat="46.549899402061364" lon="12.100747841668147"><ele>1668.6666666666665</ele><time>2026-05-03T16:19:04Z</time></trkpt><trkpt lat="46.549969822486794" lon="12.100677985565511"><ele>1669.3333333333333</ele><time>2026-05-03T16:19:05Z</time></trkpt><trkpt lat="46.55003961589677" lon="12.10061091348651"><ele>1670.0</ele><time>2026-05-03T16:19:06Z</time></trkpt><trkpt lat="46.55010890989077" lon="12.10053151591551"><ele>1670.0</ele><time>2026-05-03T16:19:07Z</time></trkpt><trkpt lat="46.55019316808775" lon="12.100472697713933"><ele>1670.0</ele><time>2026-05-03T16:19:08Z</time></trkpt><trkpt lat="46.55026509690205" lon="12.100437089310791"><ele>1670.0</ele><time>2026-05-03T16:19:09Z</time></trkpt><trkpt lat="46.55037520321039" lon="12.100341782162568"><ele>1670.0</ele><time>2026-05-03T16:19:11Z</time></trkpt><trkpt lat="46.550485820338245" lon="12.100224044978024"><ele>1670.0</ele><time>2026-05-03T16:19:13Z</time></trkpt><trkpt lat="46.55054319860296" lon="12.100169077739823"><ele>1671.4</ele><time>2026-05-03T16:19:14Z</time></trkpt><trkpt lat="46.550638473204515" lon="12.100084888064936"><ele>1672.8</ele><time>2026-05-03T16:19:15Z</time></trkpt><trkpt lat="46.55069955676274" lon="12.100003418403364"><ele>1674.1999999999998</ele><time>2026-05-03T16:19:16Z</time></trkpt><trkpt lat="46.550752643425426" lon="12.099935408540283"><ele>1675.6</ele><time>2026-05-03T16:19:18Z</time></trkpt><trkpt lat="46.55081331997177" lon="12.099823509092227"><ele>1677.0</ele><time>2026-05-03T16:19:36Z</time></trkpt><trkpt lat="46.55091113248807" lon="12.099797386561598"><ele>1679.1999999999998</ele><time>2026-05-03T16:21:04Z</time></trkpt><trkpt lat="46.551028484562735" lon="12.099818256819718"><ele>1681.4</ele><time>2026-05-03T16:21:08Z</time></trkpt><trkpt lat="46.55110906248913" lon="12.099822593646604"><ele>1683.6</ele><time>2026-05-03T16:21:10Z</time></trkpt><trkpt lat="46.551183840350475" lon="12.099794601804907"><ele>1685.8000000000002</ele><time>2026-05-03T16:21:13Z</time></trkpt><trkpt lat="46.55127979269709" lon="12.099758276660744"><ele>1688.0</ele><time>2026-05-03T16:21:16Z</time></trkpt><trkpt lat="46.55135685264056" lon="12.099760602540103"><ele>1688.7142857142858</ele><time>2026-05-03T16:21:25Z</time></trkpt><trkpt lat="46.55141883563396" lon="12.099743871830228"><ele>1689.4285714285716</ele><time>2026-05-03T16:21:29Z</time></trkpt><trkpt lat="46.55148791051888" lon="12.099762318196818"><ele>1690.142857142857</ele><time>2026-05-03T16:21:36Z</time></trkpt><trkpt lat="46.55154673256417" lon="12.099818689222891"><ele>1690.857142857143</ele><time>2026-05-03T16:21:41Z</time></trkpt><trkpt lat="46.55160568613878" lon="12.09986032735407"><ele>1691.5714285714284</ele><time>2026-05-03T16:21:45Z</time></trkpt><trkpt lat="46.551650313136456" lon="12.099937586393612"><ele>1692.2857142857142</ele><time>2026-05-03T16:21:51Z</time></trkpt><trkpt lat="46.5516790770697" lon="12.100028252513622"><ele>1693.0</ele><time>2026-05-03T16:21:57Z</time></trkpt><trkpt lat="46.551727812347366" lon="12.100113990175137"><ele>1690.2857142857142</ele><time>2026-05-03T16:22:12Z</time></trkpt><trkpt lat="46.55178973323043" lon="12.100173465701612"><ele>1687.5714285714284</ele><time>2026-05-03T16:22:17Z</time></trkpt><trkpt lat="46.551778690666616" lon="12.100270423073624"><ele>1684.857142857143</ele><time>2026-05-03T16:22:25Z</time></trkpt><trkpt lat="46.55184697079324" lon="12.10033104151318"><ele>1682.142857142857</ele><time>2026-05-03T16:22:41Z</time></trkpt><trkpt lat="46.55186659212185" lon="12.10042416952824"><ele>1679.4285714285716</ele><time>2026-05-03T16:22:57Z</time></trkpt><trkpt lat="46.551875054642046" lon="12.10052569380551"><ele>1676.7142857142858</ele><time>2026-05-03T16:23:02Z</time></trkpt><trkpt lat="46.55193105466803" lon="12.100578418295806"><ele>1674.0</ele><time>2026-05-03T16:23:07Z</time></trkpt><trkpt lat="46.5519939004862" lon="12.100675423350458"><ele>1672.1666666666667</ele><time>2026-05-03T16:23:10Z</time></trkpt><trkpt lat="46.55203534924465" lon="12.10076246549596"><ele>1670.3333333333335</ele><time>2026-05-03T16:23:14Z</time></trkpt><trkpt lat="46.5520370539944" lon="12.100865785224254"><ele>1668.5</ele><time>2026-05-03T16:23:17Z</time></trkpt><trkpt lat="46.55207328111601" lon="12.1009471613538"><ele>1666.6666666666667</ele><time>2026-05-03T16:23:19Z</time></trkpt><trkpt lat="46.552128619592764" lon="12.101024861584536"><ele>1664.8333333333335</ele><time>2026-05-03T16:23:21Z</time></trkpt><trkpt lat="46.55220141895512" lon="12.10109961212017"><ele>1663.0</ele><time>2026-05-03T16:23:23Z</time></trkpt><trkpt lat="46.55224915589267" lon="12.101233924424818"><ele>1660.5000000000002</ele><time>2026-05-03T16:23:25Z</time></trkpt><trkpt lat="46.55229669947714" lon="12.101294100873552"><ele>1658.0</ele><time>2026-05-03T16:23:26Z</time></trkpt><trkpt lat="46.55238703581489" lon="12.101405000431788"><ele>1655.5</ele><time>2026-05-03T16:23:28Z</time></trkpt><trkpt lat="46.5524716226728" lon="12.10148425635958"><ele>1653.0</ele><time>2026-05-03T16:23:29Z</time></trkpt><trkpt lat="46.55252368024815" lon="12.101540061121028"><ele>1650.5000000000002</ele><time>2026-05-03T16:23:30Z</time></trkpt><trkpt lat="46.55257113587345" lon="12.101648576246752"><ele>1648.0</ele><time>2026-05-03T16:23:32Z</time></trkpt><trkpt lat="46.55257392125649" lon="12.10177697332348"><ele>1645.6666666666667</ele><time>2026-05-03T16:23:33Z</time></trkpt><trkpt lat="46.55255729758267" lon="12.101953250971102"><ele>1643.3333333333335</ele><time>2026-05-03T16:23:35Z</time></trkpt><trkpt lat="46.552576996360415" lon="12.102060161316581"><ele>1641.0</ele><time>2026-05-03T16:23:36Z</time></trkpt><trkpt lat="46.552577331424594" lon="12.102158015231375"><ele>1638.6666666666665</ele><time>2026-05-03T16:23:37Z</time></trkpt><trkpt lat="46.55258338109354" lon="12.102259602113795"><ele>1636.3333333333333</ele><time>2026-05-03T16:23:38Z</time></trkpt><trkpt lat="46.55260001536868" lon="12.102371773892347"><ele>1634.0</ele><time>2026-05-03T16:23:40Z</time></trkpt><trkpt lat="46.55265592717123" lon="12.102540249191737"><ele>1633.0</ele><time>2026-05-03T16:23:42Z</time></trkpt><trkpt lat="46.55270044021663" lon="12.102642095998336"><ele>1632.0</ele><time>2026-05-03T16:23:43Z</time></trkpt><trkpt lat="46.55274026561622" lon="12.102757449187692"><ele>1631.0</ele><time>2026-05-03T16:23:44Z</time></trkpt><trkpt lat="46.55277234952822" lon="12.102897782690317"><ele>1630.0</ele><time>2026-05-03T16:23:45Z</time></trkpt><trkpt lat="46.55281066819197" lon="12.103019048362789"><ele>1629.0</ele><time>2026-05-03T16:23:46Z</time></trkpt><trkpt lat="46.55284014866462" lon="12.103136766769085"><ele>1629.0</ele><time>2026-05-03T16:23:47Z</time></trkpt><trkpt lat="46.55286960201929" lon="12.103232571535987"><ele>1629.0</ele><time>2026-05-03T16:23:48Z</time></trkpt><trkpt lat="46.55289518992256" lon="12.10333607189842"><ele>1629.0</ele><time>2026-05-03T16:23:49Z</time></trkpt><trkpt lat="46.55290587148288" lon="12.103435993245403"><ele>1629.0</ele><time>2026-05-03T16:23:50Z</time></trkpt><trkpt lat="46.55292033588389" lon="12.103558488975912"><ele>1629.0</ele><time>2026-05-03T16:23:51Z</time></trkpt><trkpt lat="46.55294533235614" lon="12.103661472681484"><ele>1629.0</ele><time>2026-05-03T16:23:52Z</time></trkpt><trkpt lat="46.552977661462364" lon="12.103769984430055"><ele>1625.1666666666667</ele><time>2026-05-03T16:23:53Z</time></trkpt><trkpt lat="46.55298682495459" lon="12.103903145188923"><ele>1621.3333333333335</ele><time>2026-05-03T16:23:54Z</time></trkpt><trkpt lat="46.553021549376865" lon="12.10402920358722"><ele>1617.5</ele><time>2026-05-03T16:23:55Z</time></trkpt><trkpt lat="46.553056300759536" lon="12.104160017163789"><ele>1613.6666666666667</ele><time>2026-05-03T16:23:56Z</time></trkpt><trkpt lat="46.553075497553856" lon="12.104278708535553"><ele>1609.8333333333335</ele><time>2026-05-03T16:23:57Z</time></trkpt><trkpt lat="46.553091667168516" lon="12.104384758233046"><ele>1606.0</ele><time>2026-05-03T16:23:58Z</time></trkpt><trkpt lat="46.55313289088535" lon="12.104478066258318"><ele>1605.1666666666667</ele><time>2026-05-03T16:23:59Z</time></trkpt><trkpt lat="46.55315796718597" lon="12.104593278938522"><ele>1604.3333333333335</ele><time>2026-05-03T16:24:00Z</time></trkpt><trkpt lat="46.553201544614666" lon="12.104695302710072"><ele>1603.5</ele><time>2026-05-03T16:24:01Z</time></trkpt><trkpt lat="46.553241576631706" lon="12.104788110384579"><ele>1602.6666666666665</ele><time>2026-05-03T16:24:02Z</time></trkpt><trkpt lat="46.55327326461503" lon="12.104881039091373"><ele>1601.8333333333333</ele><time>2026-05-03T16:24:03Z</time></trkpt><trkpt lat="46.553315446236844" lon="12.104964616262437"><ele>1601.0</ele><time>2026-05-03T16:24:04Z</time></trkpt><trkpt lat="46.55336278478211" lon="12.105032887658162"><ele>1601.0</ele><time>2026-05-03T16:24:05Z</time></trkpt><trkpt lat="46.553423057988994" lon="12.10509850016676"><ele>1601.0</ele><time>2026-05-03T16:24:06Z</time></trkpt><trkpt lat="46.553458424121686" lon="12.105187152597203"><ele>1601.0</ele><time>2026-05-03T16:24:07Z</time></trkpt><trkpt lat="46.55350236284148" lon="12.105348052632106"><ele>1601.0</ele><time>2026-05-03T16:24:09Z</time></trkpt><trkpt lat="46.553557080249966" lon="12.105462054445086"><ele>1601.0</ele><time>2026-05-03T16:24:11Z</time></trkpt><trkpt lat="46.55363879657305" lon="12.105626016616622"><ele>1600.9999999999998</ele><time>2026-05-03T16:24:13Z</time></trkpt><trkpt lat="46.55368553101265" lon="12.105717332055601"><ele>1601.0</ele><time>2026-05-03T16:24:14Z</time></trkpt><trkpt lat="46.553736419067704" lon="12.105815339242373"><ele>1601.0</ele><time>2026-05-03T16:24:15Z</time></trkpt><trkpt lat="46.55376181710502" lon="12.105934106636628"><ele>1601.0</ele><time>2026-05-03T16:24:16Z</time></trkpt><trkpt lat="46.55376953740702" lon="12.106026466026204"><ele>1600.9999999999998</ele><time>2026-05-03T16:24:17Z</time></trkpt><trkpt lat="46.553766774496005" lon="12.106127045832137"><ele>1601.0</ele><time>2026-05-03T16:24:18Z</time></trkpt><trkpt lat="46.55378882123644" lon="12.106294338215722"><ele>1600.6</ele><time>2026-05-03T16:24:20Z</time></trkpt><trkpt lat="46.553772674325955" lon="12.106473626929112"><ele>1600.1999999999998</ele><time>2026-05-03T16:24:22Z</time></trkpt><trkpt lat="46.55374504019818" lon="12.1065618999521"><ele>1599.8000000000002</ele><time>2026-05-03T16:24:23Z</time></trkpt><trkpt lat="46.553744161898976" lon="12.10674801077826"><ele>1599.4</ele><time>2026-05-03T16:24:25Z</time></trkpt><trkpt lat="46.55373711241368" lon="12.106860051802697"><ele>1599.0</ele><time>2026-05-03T16:24:26Z</time></trkpt><trkpt lat="46.553716394146605" lon="12.10698080223551"><ele>1596.8333333333333</ele><time>2026-05-03T16:24:27Z</time></trkpt><trkpt lat="46.55369945851074" lon="12.107089200114018"><ele>1594.6666666666665</ele><time>2026-05-03T16:24:28Z</time></trkpt><trkpt lat="46.55368178102395" lon="12.107185665484264"><ele>1592.5</ele><time>2026-05-03T16:24:29Z</time></trkpt><trkpt lat="46.55366110575649" lon="12.10729369468198"><ele>1590.3333333333333</ele><time>2026-05-03T16:24:30Z</time></trkpt><trkpt lat="46.5536679807118" lon="12.107412742276978"><ele>1588.1666666666665</ele><time>2026-05-03T16:24:31Z</time></trkpt><trkpt lat="46.55372198972089" lon="12.107591812773805"><ele>1586.0</ele><time>2026-05-03T16:24:33Z</time></trkpt><trkpt lat="46.55375373370558" lon="12.10769626597416"><ele>1582.1999999999998</ele><time>2026-05-03T16:24:34Z</time></trkpt><trkpt lat="46.553778542760334" lon="12.107789377301332"><ele>1578.3999999999999</ele><time>2026-05-03T16:24:35Z</time></trkpt><trkpt lat="46.553847476980486" lon="12.107947580028894"><ele>1574.6</ele><time>2026-05-03T16:24:37Z</time></trkpt><trkpt lat="46.55386067035712" lon="12.108109042866195"><ele>1570.8</ele><time>2026-05-03T16:24:39Z</time></trkpt><trkpt lat="46.5538762240628" lon="12.108211096123783"><ele>1567.0</ele><time>2026-05-03T16:24:40Z</time></trkpt><trkpt lat="46.553918152866714" lon="12.108292567603037"><ele>1564.0000000000002</ele><time>2026-05-03T16:24:41Z</time></trkpt><trkpt lat="46.553964858684665" lon="12.108413271730711"><ele>1561.0</ele><time>2026-05-03T16:24:42Z</time></trkpt><trkpt lat="46.55398641656816" lon="12.108534439078003"><ele>1558.0</ele><time>2026-05-03T16:24:43Z</time></trkpt><trkpt lat="46.55398649586549" lon="12.108637862590788"><ele>1555.0</ele><time>2026-05-03T16:24:44Z</time></trkpt><trkpt lat="46.55399778185385" lon="12.108735888990449"><ele>1552.0000000000002</ele><time>2026-05-03T16:24:45Z</time></trkpt><trkpt lat="46.55399409204438" lon="12.108870956718091"><ele>1549.0</ele><time>2026-05-03T16:24:47Z</time></trkpt><trkpt lat="46.55398914023272" lon="12.10897785462222"><ele>1548.0000000000002</ele><time>2026-05-03T16:24:48Z</time></trkpt><trkpt lat="46.554008119178825" lon="12.10909422425771"><ele>1547.0</ele><time>2026-05-03T16:24:49Z</time></trkpt><trkpt lat="46.5540408670812" lon="12.109198257165568"><ele>1546.0</ele><time>2026-05-03T16:24:50Z</time></trkpt><trkpt lat="46.55407637778931" lon="12.109277272904038"><ele>1545.0</ele><time>2026-05-03T16:24:51Z</time></trkpt><trkpt lat="46.55409769845036" lon="12.109390110492821"><ele>1544.0000000000002</ele><time>2026-05-03T16:24:51.999Z</time></trkpt><trkpt lat="46.55414711738996" lon="12.109505221348696"><ele>1543.0</ele><time>2026-05-03T16:24:52.999Z</time></trkpt><trkpt lat="46.55422491625166" lon="12.109593176839859"><ele>1543.0</ele><time>2026-05-03T16:24:53.999Z</time></trkpt><trkpt lat="46.55430036625094" lon="12.109699194037072"><ele>1543.0</ele><time>2026-05-03T16:24:54.999Z</time></trkpt><trkpt lat="46.55438159931543" lon="12.10978580543177"><ele>1543.0</ele><time>2026-05-03T16:24:55.999Z</time></trkpt><trkpt lat="46.55445849811096" lon="12.109882017307745"><ele>1543.0</ele><time>2026-05-03T16:24:56.999Z</time></trkpt><trkpt lat="46.55448444938336" lon="12.109988888959895"><ele>1543.0</ele><time>2026-05-03T16:24:58Z</time></trkpt><trkpt lat="46.55448387126386" lon="12.110172923894783"><ele>1541.6666666666667</ele><time>2026-05-03T16:25:00Z</time></trkpt><trkpt lat="46.5545119711442" lon="12.110266862582991"><ele>1540.3333333333335</ele><time>2026-05-03T16:25:01Z</time></trkpt><trkpt lat="46.55456356415367" lon="12.110354276909636"><ele>1539.0</ele><time>2026-05-03T16:25:02Z</time></trkpt><trkpt lat="46.55461963576483" lon="12.110439328514683"><ele>1537.6666666666667</ele><time>2026-05-03T16:25:03Z</time></trkpt><trkpt lat="46.55467696284638" lon="12.110488823742413"><ele>1536.3333333333335</ele><time>2026-05-03T16:25:04Z</time></trkpt><trkpt lat="46.554746486324056" lon="12.11053076287845"><ele>1535.0</ele><time>2026-05-03T16:25:06Z</time></trkpt><trkpt lat="46.55484654151455" lon="12.11061016685971"><ele>1534.7142857142858</ele><time>2026-05-03T16:25:08Z</time></trkpt><trkpt lat="46.55492532304603" lon="12.110681960120399"><ele>1534.4285714285713</ele><time>2026-05-03T16:25:12Z</time></trkpt><trkpt lat="46.55498860246005" lon="12.110719146515892"><ele>1534.142857142857</ele><time>2026-05-03T16:25:14Z</time></trkpt><trkpt lat="46.5550194612528" lon="12.110801655677045"><ele>1533.857142857143</ele><time>2026-05-03T16:25:16Z</time></trkpt><trkpt lat="46.555083200214895" lon="12.110861727023028"><ele>1533.5714285714284</ele><time>2026-05-03T16:25:21Z</time></trkpt><trkpt lat="46.555133181082475" lon="12.110923583495126"><ele>1533.2857142857142</ele><time>2026-05-03T16:26:07Z</time></trkpt><trkpt lat="46.55519687346741" lon="12.110977197397466"><ele>1533.0</ele><time>2026-05-03T16:26:10Z</time></trkpt><trkpt lat="46.555271745369176" lon="12.111003560484736"><ele>1530.8333333333333</ele><time>2026-05-03T16:26:12Z</time></trkpt><trkpt lat="46.5553615304355" lon="12.11103638265285"><ele>1528.6666666666667</ele><time>2026-05-03T16:26:14Z</time></trkpt><trkpt lat="46.55544461471786" lon="12.111040777230144"><ele>1526.5</ele><time>2026-05-03T16:26:16Z</time></trkpt><trkpt lat="46.55550881111846" lon="12.111017081649678"><ele>1524.3333333333335</ele><time>2026-05-03T16:26:17Z</time></trkpt><trkpt lat="46.55558605359479" lon="12.110981143615643"><ele>1522.1666666666667</ele><time>2026-05-03T16:26:18Z</time></trkpt><trkpt lat="46.55565043800893" lon="12.110966335351646"><ele>1520.0</ele><time>2026-05-03T16:26:19Z</time></trkpt><trkpt lat="46.555742795887014" lon="12.11096367688485"><ele>1518.8</ele><time>2026-05-03T16:26:20Z</time></trkpt><trkpt lat="46.55580524241331" lon="12.1109422687782"><ele>1517.6</ele><time>2026-05-03T16:26:21Z</time></trkpt><trkpt lat="46.555909986848896" lon="12.110965392771467"><ele>1516.4</ele><time>2026-05-03T16:26:23Z</time></trkpt><trkpt lat="46.555990619891695" lon="12.11097750273673"><ele>1515.2</ele><time>2026-05-03T16:26:25Z</time></trkpt><trkpt lat="46.55608840924138" lon="12.110972645206935"><ele>1514.0</ele><time>2026-05-03T16:26:28Z</time></trkpt><trkpt lat="46.55621585254202" lon="12.110909652476883"><ele>1513.5</ele><time>2026-05-03T16:26:30Z</time></trkpt><trkpt lat="46.55630764683384" lon="12.11091492870852"><ele>1513.0</ele><time>2026-05-03T16:26:32Z</time></trkpt><trkpt lat="46.55633654007623" lon="12.111005626017784"><ele>1512.5</ele><time>2026-05-03T16:26:33Z</time></trkpt><trkpt lat="46.556399118502675" lon="12.110985394839364"><ele>1512.0</ele><time>2026-05-03T16:26:36Z</time></trkpt><trkpt lat="46.556396288888834" lon="12.111139636255116"><ele>1511.5</ele><time>2026-05-03T16:26:42Z</time></trkpt><trkpt lat="46.556391683881394" lon="12.111239793218667"><ele>1511.0</ele><time>2026-05-03T16:26:46Z</time></trkpt><trkpt lat="46.556338848486206" lon="12.111326681184865"><ele>1511.0</ele><time>2026-05-03T16:26:49Z</time></trkpt><trkpt lat="46.55632072576657" lon="12.1114380663851"><ele>1511.0</ele><time>2026-05-03T16:26:52Z</time></trkpt><trkpt lat="46.55627708464414" lon="12.111511434808632"><ele>1511.0</ele><time>2026-05-03T16:26:54Z</time></trkpt><trkpt lat="46.55624580990236" lon="12.111616874457518"><ele>1511.0</ele><time>2026-05-03T16:26:56Z</time></trkpt><trkpt lat="46.556218781631124" lon="12.111731121316641"><ele>1511.0</ele><time>2026-05-03T16:26:58.999Z</time></trkpt><trkpt lat="46.55617587617735" lon="12.111850595645011"><ele>1511.0</ele><time>2026-05-03T16:27:01.999Z</time></trkpt><trkpt lat="46.55613128787135" lon="12.111945059928784"><ele>1508.8</ele><time>2026-05-03T16:27:04Z</time></trkpt><trkpt lat="46.556047164106324" lon="12.11214773987089"><ele>1506.6</ele><time>2026-05-03T16:27:06Z</time></trkpt><trkpt lat="46.55602241127907" lon="12.112251397431738"><ele>1504.4</ele><time>2026-05-03T16:27:07Z</time></trkpt><trkpt lat="46.555984061160416" lon="12.112368542458519"><ele>1502.2</ele><time>2026-05-03T16:27:08Z</time></trkpt><trkpt lat="46.55593787369277" lon="12.112459903012816"><ele>1500.0</ele><time>2026-05-03T16:27:09Z</time></trkpt><trkpt lat="46.55591279470698" lon="12.112587536719865"><ele>1493.6666666666667</ele><time>2026-05-03T16:27:10Z</time></trkpt><trkpt lat="46.555885821726235" lon="12.112694493620694"><ele>1487.3333333333335</ele><time>2026-05-03T16:27:11Z</time></trkpt><trkpt lat="46.55585468924187" lon="12.112792053746945"><ele>1481.0</ele><time>2026-05-03T16:27:12Z</time></trkpt><trkpt lat="46.555600746754486" lon="12.113055644890114"><ele>1481.0</ele><time>2026-05-03T16:27:13Z</time></trkpt><trkpt lat="46.55548283662279" lon="12.113080791092438"><ele>1481.0</ele><time>2026-05-03T16:27:14Z</time></trkpt><trkpt lat="46.55540585323826" lon="12.113037268064218"><ele>1481.0</ele><time>2026-05-03T16:27:16Z</time></trkpt><trkpt lat="46.55536575607557" lon="12.113170266314516"><ele>1481.0</ele><time>2026-05-03T16:27:18Z</time></trkpt><trkpt lat="46.55538549990037" lon="12.113284587717132"><ele>1481.0</ele><time>2026-05-03T16:27:20Z</time></trkpt><trkpt lat="46.55530667629302" lon="12.113339337074184"><ele>1481.0000000000002</ele><time>2026-05-03T16:27:23Z</time></trkpt><trkpt lat="46.555289533263355" lon="12.113428183382531"><ele>1481.0</ele><time>2026-05-03T16:27:28Z</time></trkpt><trkpt lat="46.555337697282695" lon="12.113348743423778"><ele>1481.0</ele><time>2026-05-03T16:28:00Z</time></trkpt><trkpt lat="46.555394198642496" lon="12.113261299716495"><ele>1481.0</ele><time>2026-05-03T16:28:06Z</time></trkpt><trkpt lat="46.55545700319541" lon="12.11323150563853"><ele>1481.0</ele><time>2026-05-03T16:28:10Z</time></trkpt><trkpt lat="46.555521334363206" lon="12.113234428919938"><ele>1481.0000000000002</ele><time>2026-05-03T16:28:12Z</time></trkpt><trkpt lat="46.55560060305848" lon="12.11322206942622"><ele>1481.0</ele><time>2026-05-03T16:28:16Z</time></trkpt><trkpt lat="46.555692217482175" lon="12.113178012057496"><ele>1481.0</ele><time>2026-05-03T16:28:19Z</time></trkpt><trkpt lat="46.55577038783125" lon="12.113174079129466"><ele>1481.0</ele><time>2026-05-03T16:28:22Z</time></trkpt><trkpt lat="46.555831939316896" lon="12.113138066004922"><ele>1481.0</ele><time>2026-05-03T16:28:24Z</time></trkpt><trkpt lat="46.555895069199636" lon="12.113160412301374"><ele>1481.0</ele><time>2026-05-03T16:28:27Z</time></trkpt><trkpt lat="46.555947966985016" lon="12.113226962581212"><ele>1481.0</ele><time>2026-05-03T16:28:29Z</time></trkpt><trkpt lat="46.5559842791911" lon="12.113356227293492"><ele>1481.0</ele><time>2026-05-03T16:28:31Z</time></trkpt><trkpt lat="46.556018055362756" lon="12.113543563453831"><ele>1478.8</ele><time>2026-05-03T16:28:33Z</time></trkpt><trkpt lat="46.55602856085827" lon="12.113665461342679"><ele>1476.6</ele><time>2026-05-03T16:28:34Z</time></trkpt><trkpt lat="46.555975860411905" lon="12.113817626111388"><ele>1474.4</ele><time>2026-05-03T16:28:35Z</time></trkpt><trkpt lat="46.55599883022842" lon="12.113952430478735"><ele>1472.2</ele><time>2026-05-03T16:28:36Z</time></trkpt><trkpt lat="46.55601829957343" lon="12.114062142367574"><ele>1470.0</ele><time>2026-05-03T16:28:37Z</time></trkpt><trkpt lat="46.55603832916072" lon="12.114176479123504"><ele>1469.0</ele><time>2026-05-03T16:28:38Z</time></trkpt><trkpt lat="46.55605424793951" lon="12.114272901457609"><ele>1468.0</ele><time>2026-05-03T16:28:39Z</time></trkpt><trkpt lat="46.55606903136117" lon="12.114381612864126"><ele>1467.0</ele><time>2026-05-03T16:28:40Z</time></trkpt><trkpt lat="46.556083829278016" lon="12.114496381275206"><ele>1466.0</ele><time>2026-05-03T16:28:41Z</time></trkpt><trkpt lat="46.556101622125524" lon="12.1146415583145"><ele>1465.0</ele><time>2026-05-03T16:28:43Z</time></trkpt><trkpt lat="46.556127227712864" lon="12.114770551656411"><ele>1464.0</ele><time>2026-05-03T16:28:46Z</time></trkpt><trkpt lat="46.55614629905477" lon="12.114867503598694"><ele>1464.3333333333333</ele><time>2026-05-03T16:28:48Z</time></trkpt><trkpt lat="46.55616826274182" lon="12.114979986462284"><ele>1464.6666666666667</ele><time>2026-05-03T16:28:51Z</time></trkpt><trkpt lat="46.5561969882306" lon="12.115074263667633"><ele>1465.0</ele><time>2026-05-03T16:28:53Z</time></trkpt><trkpt lat="46.55623919373328" lon="12.115199421507535"><ele>1465.3333333333335</ele><time>2026-05-03T16:28:55Z</time></trkpt><trkpt lat="46.55627365563453" lon="12.115297989810943"><ele>1465.6666666666667</ele><time>2026-05-03T16:28:56Z</time></trkpt><trkpt lat="46.55632268055734" lon="12.1154088214164"><ele>1466.0</ele><time>2026-05-03T16:28:57Z</time></trkpt><trkpt lat="46.55638310475054" lon="12.115521570925099"><ele>1464.4</ele><time>2026-05-03T16:28:58Z</time></trkpt><trkpt lat="46.556444401205454" lon="12.115633616745049"><ele>1462.8</ele><time>2026-05-03T16:28:59Z</time></trkpt><trkpt lat="46.556493692433726" lon="12.115721468421064"><ele>1461.2</ele><time>2026-05-03T16:29:00Z</time></trkpt><trkpt lat="46.556558622330115" lon="12.11583845816913"><ele>1459.6000000000001</ele><time>2026-05-03T16:29:00.999Z</time></trkpt><trkpt lat="46.55662784256985" lon="12.115970394753175"><ele>1458.0</ele><time>2026-05-03T16:29:01.999Z</time></trkpt><trkpt lat="46.55668695947056" lon="12.11610652971571"><ele>1456.4</ele><time>2026-05-03T16:29:02.999Z</time></trkpt><trkpt lat="46.55672284429301" lon="12.116259217319136"><ele>1454.8000000000002</ele><time>2026-05-03T16:29:03.999Z</time></trkpt><trkpt lat="46.55675073697643" lon="12.116416483412722"><ele>1453.2</ele><time>2026-05-03T16:29:04.999Z</time></trkpt><trkpt lat="46.55677600514361" lon="12.11658144666211"><ele>1451.6</ele><time>2026-05-03T16:29:05.999Z</time></trkpt><trkpt lat="46.55679242135203" lon="12.116725617739634"><ele>1450.0</ele><time>2026-05-03T16:29:06.999Z</time></trkpt><trkpt lat="46.55677996993532" lon="12.116828963144236"><ele>1449.0</ele><time>2026-05-03T16:29:07.999Z</time></trkpt><trkpt lat="46.556753113910716" lon="12.116934005717914"><ele>1448.0</ele><time>2026-05-03T16:29:10Z</time></trkpt><trkpt lat="46.55671855798573" lon="12.117095248612051"><ele>1447.0</ele><time>2026-05-03T16:29:12Z</time></trkpt><trkpt lat="46.55669500457575" lon="12.117234028990802"><ele>1446.0</ele><time>2026-05-03T16:29:14Z</time></trkpt><trkpt lat="46.556681648545215" lon="12.11739899545299"><ele>1445.0</ele><time>2026-05-03T16:29:17Z</time></trkpt><trkpt lat="46.55666143071777" lon="12.117487255501517"><ele>1443.5</ele><time>2026-05-03T16:29:18Z</time></trkpt><trkpt lat="46.556607808421035" lon="12.117633288327132"><ele>1442.0</ele><time>2026-05-03T16:29:20Z</time></trkpt><trkpt lat="46.556561455022866" lon="12.117712047820786"><ele>1440.5</ele><time>2026-05-03T16:29:21Z</time></trkpt><trkpt lat="46.556491255355525" lon="12.117778601645208"><ele>1439.0</ele><time>2026-05-03T16:29:22Z</time></trkpt><trkpt lat="46.556417789230146" lon="12.117815784126574"><ele>1437.5</ele><time>2026-05-03T16:29:23Z</time></trkpt><trkpt lat="46.55634510930761" lon="12.117847043747192"><ele>1436.0</ele><time>2026-05-03T16:29:24Z</time></trkpt><trkpt lat="46.55626822835729" lon="12.11789563789745"><ele>1436.6666666666667</ele><time>2026-05-03T16:29:25Z</time></trkpt><trkpt lat="46.55618824891018" lon="12.11792800129026"><ele>1437.3333333333335</ele><time>2026-05-03T16:29:26Z</time></trkpt><trkpt lat="46.55611126254826" lon="12.117936863671565"><ele>1438.0</ele><time>2026-05-03T16:29:27Z</time></trkpt><trkpt lat="46.556031044450265" lon="12.117967801100159"><ele>1438.6666666666667</ele><time>2026-05-03T16:29:28Z</time></trkpt><trkpt lat="46.55596467770263" lon="12.118017340581096"><ele>1439.3333333333333</ele><time>2026-05-03T16:29:29Z</time></trkpt><trkpt lat="46.555888288520265" lon="12.11804206891201"><ele>1440.0</ele><time>2026-05-03T16:29:30Z</time></trkpt><trkpt lat="46.55581798970933" lon="12.118098018890661"><ele>1440.0</ele><time>2026-05-03T16:29:31Z</time></trkpt><trkpt lat="46.55574572424597" lon="12.118166368152005"><ele>1440.0</ele><time>2026-05-03T16:29:32Z</time></trkpt><trkpt lat="46.555679728715155" lon="12.118260071615836"><ele>1440.0</ele><time>2026-05-03T16:29:33Z</time></trkpt><trkpt lat="46.55564014468257" lon="12.118358400487681"><ele>1440.0</ele><time>2026-05-03T16:29:34Z</time></trkpt><trkpt lat="46.55561862298838" lon="12.118448352350237"><ele>1440.0</ele><time>2026-05-03T16:29:35Z</time></trkpt><trkpt lat="46.555597369365124" lon="12.118555198030789"><ele>1440.0</ele><time>2026-05-03T16:29:37Z</time></trkpt><trkpt lat="46.55585596945792" lon="12.118739319312612"><ele>1436.6666666666667</ele><time>2026-05-03T16:29:41Z</time></trkpt><trkpt lat="46.555923955363966" lon="12.118784393536222"><ele>1433.3333333333333</ele><time>2026-05-03T16:29:43Z</time></trkpt><trkpt lat="46.55599670584519" lon="12.118787071933959"><ele>1430.0</ele><time>2026-05-03T16:29:45Z</time></trkpt><trkpt lat="46.556096078117584" lon="12.11881523448274"><ele>1426.6666666666665</ele><time>2026-05-03T16:29:48Z</time></trkpt><trkpt lat="46.55616434164808" lon="12.11884050666641"><ele>1423.3333333333333</ele><time>2026-05-03T16:29:50Z</time></trkpt><trkpt lat="46.556253892824564" lon="12.11887033496394"><ele>1420.0</ele><time>2026-05-03T16:29:53Z</time></trkpt><trkpt lat="46.556335335272514" lon="12.118890775536196"><ele>1419.857142857143</ele><time>2026-05-03T16:29:56Z</time></trkpt><trkpt lat="46.55641332861137" lon="12.118896591161754"><ele>1419.7142857142858</ele><time>2026-05-03T16:29:59Z</time></trkpt><trkpt lat="46.55647592143151" lon="12.118909761583257"><ele>1419.5714285714284</ele><time>2026-05-03T16:30:02Z</time></trkpt><trkpt lat="46.556552102619435" lon="12.118929061927831"><ele>1419.4285714285716</ele><time>2026-05-03T16:30:06Z</time></trkpt><trkpt lat="46.556502985733516" lon="12.118987735127499"><ele>1419.2857142857144</ele><time>2026-05-03T16:30:13Z</time></trkpt><trkpt lat="46.55642060241678" lon="12.118973152071579"><ele>1419.142857142857</ele><time>2026-05-03T16:30:16Z</time></trkpt><trkpt lat="46.556358709704135" lon="12.118948759410456"><ele>1419.0</ele><time>2026-05-03T16:30:18Z</time></trkpt><trkpt lat="46.55627515373057" lon="12.118906053203279"><ele>1419.142857142857</ele><time>2026-05-03T16:30:21Z</time></trkpt><trkpt lat="46.55620107282348" lon="12.118852497401559"><ele>1419.2857142857144</ele><time>2026-05-03T16:30:24Z</time></trkpt><trkpt lat="46.556124795664594" lon="12.118822288747984"><ele>1419.4285714285716</ele><time>2026-05-03T16:30:27Z</time></trkpt><trkpt lat="46.556060653031246" lon="12.118793195318377"><ele>1419.5714285714284</ele><time>2026-05-03T16:30:29Z</time></trkpt><trkpt lat="46.55599492628843" lon="12.118763604046544"><ele>1419.7142857142858</ele><time>2026-05-03T16:30:31Z</time></trkpt><trkpt lat="46.55593291750371" lon="12.118733746989388"><ele>1419.857142857143</ele><time>2026-05-03T16:30:33Z</time></trkpt><trkpt lat="46.555862891417725" lon="12.118713116150412"><ele>1420.0</ele><time>2026-05-03T16:30:35Z</time></trkpt><trkpt lat="46.55580222915105" lon="12.118681724533781"><ele>1420.0</ele><time>2026-05-03T16:30:37Z</time></trkpt><trkpt lat="46.55571523902506" lon="12.11863612332396"><ele>1420.0</ele><time>2026-05-03T16:30:40Z</time></trkpt><trkpt lat="46.55564095051019" lon="12.118625040925684"><ele>1420.0</ele><time>2026-05-03T16:30:43Z</time></trkpt><trkpt lat="46.55559726656237" lon="12.118792426714474"><ele>1420.0</ele><time>2026-05-03T16:30:46Z</time></trkpt><trkpt lat="46.55556149307526" lon="12.118891406714956"><ele>1420.0</ele><time>2026-05-03T16:30:48Z</time></trkpt><trkpt lat="46.55552357431097" lon="12.118966587287227"><ele>1420.0</ele><time>2026-05-03T16:30:50Z</time></trkpt><trkpt lat="46.55547441000631" lon="12.11904786379732"><ele>1418.1666666666665</ele><time>2026-05-03T16:30:52Z</time></trkpt><trkpt lat="46.55541762254331" lon="12.119140721880438"><ele>1416.3333333333333</ele><time>2026-05-03T16:30:54Z</time></trkpt><trkpt lat="46.5553608042408" lon="12.11919831624281"><ele>1414.5</ele><time>2026-05-03T16:30:56Z</time></trkpt><trkpt lat="46.555299149674966" lon="12.11924463661279"><ele>1412.6666666666667</ele><time>2026-05-03T16:30:58Z</time></trkpt><trkpt lat="46.555236269192505" lon="12.119273776384983"><ele>1410.8333333333335</ele><time>2026-05-03T16:31:00Z</time></trkpt><trkpt lat="46.55515965584283" lon="12.119288772844442"><ele>1409.0</ele><time>2026-05-03T16:31:02Z</time></trkpt><trkpt lat="46.55504594735538" lon="12.119256436432785"><ele>1406.5714285714287</ele><time>2026-05-03T16:31:04Z</time></trkpt><trkpt lat="46.55497146670532" lon="12.119257137614712"><ele>1404.142857142857</ele><time>2026-05-03T16:31:05Z</time></trkpt><trkpt lat="46.554916810328606" lon="12.119305296871651"><ele>1401.7142857142858</ele><time>2026-05-03T16:31:05.999Z</time></trkpt><trkpt lat="46.55484833271783" lon="12.119310647522552"><ele>1399.2857142857142</ele><time>2026-05-03T16:31:06.999Z</time></trkpt><trkpt lat="46.554761807735865" lon="12.119277848834564"><ele>1396.857142857143</ele><time>2026-05-03T16:31:08.999Z</time></trkpt><trkpt lat="46.554688668638875" lon="12.119257920394274"><ele>1394.4285714285713</ele><time>2026-05-03T16:31:10.999Z</time></trkpt><trkpt lat="46.554697842160536" lon="12.119359704737109"><ele>1392.0</ele><time>2026-05-03T16:31:12.999Z</time></trkpt><trkpt lat="46.554753096874435" lon="12.119480678138158"><ele>1392.0</ele><time>2026-05-03T16:31:16Z</time></trkpt><trkpt lat="46.554784792755086" lon="12.119581925651971"><ele>1392.0</ele><time>2026-05-03T16:31:18Z</time></trkpt><trkpt lat="46.55482618219929" lon="12.119662717906454"><ele>1392.0</ele><time>2026-05-03T16:31:20Z</time></trkpt><trkpt lat="46.5548765940946" lon="12.119748047367302"><ele>1392.0</ele><time>2026-05-03T16:31:22Z</time></trkpt><trkpt lat="46.554918438325494" lon="12.119864853365037"><ele>1392.0</ele><time>2026-05-03T16:31:25Z</time></trkpt><trkpt lat="46.55497370456204" lon="12.11999120055052"><ele>1392.0</ele><time>2026-05-03T16:31:27Z</time></trkpt><trkpt lat="46.555037000499276" lon="12.12009115252205"><ele>1389.8333333333333</ele><time>2026-05-03T16:31:29Z</time></trkpt><trkpt lat="46.55506614879286" lon="12.120204636549902"><ele>1387.6666666666667</ele><time>2026-05-03T16:31:31Z</time></trkpt><trkpt lat="46.55511227874246" lon="12.120271808204514"><ele>1385.5</ele><time>2026-05-03T16:31:34Z</time></trkpt><trkpt lat="46.5551812951066" lon="12.12036065749147"><ele>1383.3333333333335</ele><time>2026-05-03T16:31:36Z</time></trkpt><trkpt lat="46.55519056921182" lon="12.120463616966179"><ele>1381.1666666666667</ele><time>2026-05-03T16:31:37Z</time></trkpt><trkpt lat="46.5551995371689" lon="12.120594560976302"><ele>1379.0</ele><time>2026-05-03T16:31:38Z</time></trkpt><trkpt lat="46.55521046292779" lon="12.120701463945418"><ele>1373.0</ele><time>2026-05-03T16:31:39Z</time></trkpt><trkpt lat="46.555203645377105" lon="12.12085791669579"><ele>1367.0</ele><time>2026-05-03T16:31:40Z</time></trkpt><trkpt lat="46.55521269554871" lon="12.120990506208997"><ele>1361.0</ele><time>2026-05-03T16:31:41Z</time></trkpt><trkpt lat="46.555228963125415" lon="12.121103895532082"><ele>1355.0</ele><time>2026-05-03T16:31:42Z</time></trkpt><trkpt lat="46.55524189675489" lon="12.121205526512512"><ele>1349.0</ele><time>2026-05-03T16:31:43Z</time></trkpt><trkpt lat="46.5552624681784" lon="12.121329336455911"><ele>1343.0</ele><time>2026-05-03T16:31:44Z</time></trkpt><trkpt lat="46.55528268605815" lon="12.121426711376223"><ele>1343.0</ele><time>2026-05-03T16:31:45Z</time></trkpt><trkpt lat="46.5552929310578" lon="12.121552243209848"><ele>1343.0</ele><time>2026-05-03T16:31:47Z</time></trkpt><trkpt lat="46.55525236364448" lon="12.121662179385924"><ele>1343.0</ele><time>2026-05-03T16:31:50Z</time></trkpt><trkpt lat="46.55516937732073" lon="12.121767538093104"><ele>1343.0</ele><time>2026-05-03T16:31:52Z</time></trkpt><trkpt lat="46.555079403409174" lon="12.121770065270768"><ele>1343.0</ele><time>2026-05-03T16:31:54Z</time></trkpt><trkpt lat="46.555101490632424" lon="12.121936467372743"><ele>1340.0</ele><time>2026-05-03T16:34:14Z</time></trkpt><trkpt lat="46.5551194286326" lon="12.121846653465077"><ele>1337.0</ele><time>2026-05-03T16:38:26Z</time></trkpt><trkpt lat="46.55519295540886" lon="12.121852100864109"><ele>1334.0</ele><time>2026-05-03T16:39:36.999Z</time></trkpt><trkpt lat="46.555123038857936" lon="12.121842642964651"><ele>1331.0</ele><time>2026-05-03T16:39:46.999Z</time></trkpt><trkpt lat="46.555057651799814" lon="12.121824584716478"><ele>1328.0</ele><time>2026-05-03T16:39:57.999Z</time></trkpt><trkpt lat="46.5549933079599" lon="12.121811476670665"><ele>1325.0</ele><time>2026-05-03T16:40:16Z</time></trkpt><trkpt lat="46.554921806447126" lon="12.121766222845672"><ele>1322.0</ele><time>2026-05-03T16:40:18Z</time></trkpt><trkpt lat="46.55482850023025" lon="12.121738498450839"><ele>1322.0</ele><time>2026-05-03T16:40:20Z</time></trkpt><trkpt lat="46.55473051127171" lon="12.121697916125406"><ele>1322.0</ele><time>2026-05-03T16:40:22Z</time></trkpt><trkpt lat="46.554637240248255" lon="12.121625609217139"><ele>1322.0</ele><time>2026-05-03T16:40:24Z</time></trkpt><trkpt lat="46.554557535121944" lon="12.12156557815176"><ele>1322.0</ele><time>2026-05-03T16:40:26Z</time></trkpt><trkpt lat="46.554478723687815" lon="12.121511922779037"><ele>1322.0</ele><time>2026-05-03T16:40:28Z</time></trkpt><trkpt lat="46.5543950467147" lon="12.121472723581716"><ele>1321.6</ele><time>2026-05-03T16:40:30Z</time></trkpt><trkpt lat="46.55433611949801" lon="12.121420321235965"><ele>1321.1999999999998</ele><time>2026-05-03T16:40:32Z</time></trkpt><trkpt lat="46.554223990205486" lon="12.121388753576968"><ele>1320.8</ele><time>2026-05-03T16:40:34Z</time></trkpt><trkpt lat="46.55410829717226" lon="12.121344610074045"><ele>1320.4</ele><time>2026-05-03T16:40:36Z</time></trkpt><trkpt lat="46.554046505945706" lon="12.12132089380285"><ele>1320.0</ele><time>2026-05-03T16:40:37Z</time></trkpt><trkpt lat="46.55391890481608" lon="12.121309855490118"><ele>1320.0000000000002</ele><time>2026-05-03T16:40:39Z</time></trkpt><trkpt lat="46.55384956409493" lon="12.121305785535009"><ele>1320.0</ele><time>2026-05-03T16:40:40Z</time></trkpt><trkpt lat="46.553784230172035" lon="12.12135510184001"><ele>1320.0</ele><time>2026-05-03T16:40:41Z</time></trkpt><trkpt lat="46.55372887322549" lon="12.121418460541861"><ele>1320.0</ele><time>2026-05-03T16:40:42Z</time></trkpt><trkpt lat="46.55367341548443" lon="12.121493059726667"><ele>1320.0</ele><time>2026-05-03T16:40:43Z</time></trkpt><trkpt lat="46.553624313181615" lon="12.12155794490977"><ele>1320.0000000000002</ele><time>2026-05-03T16:40:44Z</time></trkpt><trkpt lat="46.55357033848486" lon="12.121636435292114"><ele>1320.0</ele><time>2026-05-03T16:40:45Z</time></trkpt><trkpt lat="46.55352023795727" lon="12.121724623128449"><ele>1320.1428571428573</ele><time>2026-05-03T16:40:46Z</time></trkpt><trkpt lat="46.55347516043357" lon="12.121820728375562"><ele>1320.2857142857142</ele><time>2026-05-03T16:40:47Z</time></trkpt><trkpt lat="46.55343211454021" lon="12.12192482724876"><ele>1320.4285714285716</ele><time>2026-05-03T16:40:48Z</time></trkpt><trkpt lat="46.55339478457262" lon="12.122021052734155"><ele>1320.5714285714287</ele><time>2026-05-03T16:40:49Z</time></trkpt><trkpt lat="46.55336100260696" lon="12.122108215367156"><ele>1320.7142857142858</ele><time>2026-05-03T16:40:50Z</time></trkpt><trkpt lat="46.55332680744295" lon="12.12218634265045"><ele>1320.857142857143</ele><time>2026-05-03T16:40:51Z</time></trkpt><trkpt lat="46.553289951338854" lon="12.122261207670304"><ele>1321.0</ele><time>2026-05-03T16:40:52Z</time></trkpt><trkpt lat="46.55321452573307" lon="12.12237939617397"><ele>1317.8</ele><time>2026-05-03T16:40:54Z</time></trkpt><trkpt lat="46.55313285324638" lon="12.122459986660493"><ele>1314.6</ele><time>2026-05-03T16:40:56Z</time></trkpt><trkpt lat="46.553030570988135" lon="12.122511857364625"><ele>1311.4</ele><time>2026-05-03T16:40:58Z</time></trkpt><trkpt lat="46.55293143377837" lon="12.12257646600985"><ele>1308.2</ele><time>2026-05-03T16:41:00Z</time></trkpt><trkpt lat="46.55282747218482" lon="12.122665288820299"><ele>1305.0</ele><time>2026-05-03T16:41:02Z</time></trkpt><trkpt lat="46.552777509708186" lon="12.122727003868489"><ele>1305.0</ele><time>2026-05-03T16:41:03Z</time></trkpt><trkpt lat="46.552690446917694" lon="12.122840296969677"><ele>1305.0</ele><time>2026-05-03T16:41:05Z</time></trkpt><trkpt lat="46.55260365900621" lon="12.122943414914705"><ele>1305.0</ele><time>2026-05-03T16:41:07Z</time></trkpt><trkpt lat="46.55248730183033" lon="12.122976518496854"><ele>1305.0</ele><time>2026-05-03T16:41:09Z</time></trkpt><trkpt lat="46.55241670760014" lon="12.122949580412824"><ele>1305.0</ele><time>2026-05-03T16:41:10Z</time></trkpt><trkpt lat="46.55233531172982" lon="12.122941391993841"><ele>1305.0</ele><time>2026-05-03T16:41:11Z</time></trkpt><trkpt lat="46.552243505922974" lon="12.12295041860311"><ele>1305.0</ele><time>2026-05-03T16:41:12Z</time></trkpt><trkpt lat="46.55214587630809" lon="12.122982874502284"><ele>1305.0</ele><time>2026-05-03T16:41:13Z</time></trkpt><trkpt lat="46.552050302455584" lon="12.12301197181937"><ele>1305.0</ele><time>2026-05-03T16:41:14Z</time></trkpt><trkpt lat="46.55195218437529" lon="12.123038551030971"><ele>1305.0</ele><time>2026-05-03T16:41:15Z</time></trkpt><trkpt lat="46.551860261719916" lon="12.123065223238353"><ele>1305.5</ele><time>2026-05-03T16:41:16Z</time></trkpt><trkpt lat="46.55177774787418" lon="12.123099633676382"><ele>1306.0</ele><time>2026-05-03T16:41:17Z</time></trkpt><trkpt lat="46.55170242292887" lon="12.123138445562695"><ele>1306.5</ele><time>2026-05-03T16:41:18Z</time></trkpt><trkpt lat="46.55172057687316" lon="12.123444180343208"><ele>1307.0</ele><time>2026-05-03T16:41:20Z</time></trkpt><trkpt lat="46.55169816146342" lon="12.123551119824814"><ele>1304.8</ele><time>2026-05-03T16:41:21Z</time></trkpt><trkpt lat="46.55163408537811" lon="12.123640126311317"><ele>1302.6</ele><time>2026-05-03T16:41:22Z</time></trkpt><trkpt lat="46.55156699548152" lon="12.123732849863165"><ele>1300.3999999999999</ele><time>2026-05-03T16:41:23Z</time></trkpt><trkpt lat="46.55150055990937" lon="12.123835195813703"><ele>1298.1999999999998</ele><time>2026-05-03T16:41:24Z</time></trkpt><trkpt lat="46.55147938971482" lon="12.123970511321353"><ele>1296.0</ele><time>2026-05-03T16:41:25Z</time></trkpt><trkpt lat="46.55153591963987" lon="12.124096351950387"><ele>1293.0</ele><time>2026-05-03T16:41:26Z</time></trkpt><trkpt lat="46.55164921913367" lon="12.124170868293488"><ele>1290.0</ele><time>2026-05-03T16:41:27Z</time></trkpt><trkpt lat="46.55177717939925" lon="12.124166027621166"><ele>1287.0</ele><time>2026-05-03T16:41:28Z</time></trkpt><trkpt lat="46.55187210084834" lon="12.124208955855067"><ele>1284.0</ele><time>2026-05-03T16:41:29Z</time></trkpt><trkpt lat="46.551946081573846" lon="12.12432030551176"><ele>1284.0</ele><time>2026-05-03T16:41:30Z</time></trkpt><trkpt lat="46.55198284781067" lon="12.124440853345968"><ele>1284.0</ele><time>2026-05-03T16:41:31Z</time></trkpt><trkpt lat="46.551992182360806" lon="12.124569161729633"><ele>1284.0</ele><time>2026-05-03T16:41:32Z</time></trkpt><trkpt lat="46.55199858130288" lon="12.124711954638803"><ele>1284.0</ele><time>2026-05-03T16:41:33Z</time></trkpt><trkpt lat="46.55200926779385" lon="12.124855914879229"><ele>1284.0</ele><time>2026-05-03T16:41:34Z</time></trkpt><trkpt lat="46.552018417597296" lon="12.124979174157012"><ele>1283.2</ele><time>2026-05-03T16:41:35Z</time></trkpt><trkpt lat="46.5520267697011" lon="12.125091687341309"><ele>1282.4</ele><time>2026-05-03T16:41:36Z</time></trkpt><trkpt lat="46.55203378186799" lon="12.12518615057222"><ele>1281.6</ele><time>2026-05-03T16:41:37Z</time></trkpt><trkpt lat="46.552045788422774" lon="12.125308437110414"><ele>1280.8</ele><time>2026-05-03T16:41:38.999Z</time></trkpt><trkpt lat="46.551872794818536" lon="12.125278440539956"><ele>1280.0</ele><time>2026-05-03T16:41:47Z</time></trkpt><trkpt lat="46.55179768731008" lon="12.12527281360419"><ele>1278.6666666666667</ele><time>2026-05-03T16:41:49Z</time></trkpt><trkpt lat="46.551724659902256" lon="12.125260083352149"><ele>1277.3333333333335</ele><time>2026-05-03T16:41:51Z</time></trkpt><trkpt lat="46.55165202697037" lon="12.125230059634335"><ele>1276.0</ele><time>2026-05-03T16:41:53Z</time></trkpt><trkpt lat="46.55156074919411" lon="12.125187558707692"><ele>1274.6666666666667</ele><time>2026-05-03T16:41:56Z</time></trkpt><trkpt lat="46.55148049360271" lon="12.125172237807305"><ele>1273.3333333333333</ele><time>2026-05-03T16:41:59Z</time></trkpt><trkpt lat="46.55139693990578" lon="12.125138484014766"><ele>1272.0</ele><time>2026-05-03T16:42:02Z</time></trkpt><trkpt lat="46.55132856432518" lon="12.125106165609598"><ele>1272.0</ele><time>2026-05-03T16:42:04Z</time></trkpt><trkpt lat="46.551243126321495" lon="12.125099879659562"><ele>1272.0</ele><time>2026-05-03T16:42:07Z</time></trkpt><trkpt lat="46.55115382921548" lon="12.12512411541814"><ele>1272.0</ele><time>2026-05-03T16:42:10Z</time></trkpt><trkpt lat="46.55103994819366" lon="12.125107243811774"><ele>1272.0</ele><time>2026-05-03T16:42:12Z</time></trkpt><trkpt lat="46.55092577833716" lon="12.125087516859162"><ele>1272.0</ele><time>2026-05-03T16:42:14Z</time></trkpt><trkpt lat="46.55081867965109" lon="12.125082905116265"><ele>1271.8333333333333</ele><time>2026-05-03T16:42:16Z</time></trkpt><trkpt lat="46.55073729227056" lon="12.125068231659672"><ele>1271.6666666666667</ele><time>2026-05-03T16:42:18Z</time></trkpt><trkpt lat="46.55065900985318" lon="12.125050596974049"><ele>1271.5</ele><time>2026-05-03T16:42:20Z</time></trkpt><trkpt lat="46.55060624477224" lon="12.12499182594396"><ele>1271.3333333333335</ele><time>2026-05-03T16:42:23Z</time></trkpt><trkpt lat="46.55052595073345" lon="12.124976855673749"><ele>1271.1666666666667</ele><time>2026-05-03T16:42:25Z</time></trkpt><trkpt lat="46.55042184507876" lon="12.125002446221265"><ele>1271.0</ele><time>2026-05-03T16:42:27Z</time></trkpt><trkpt lat="46.550330874665995" lon="12.125035885152089"><ele>1271.8333333333335</ele><time>2026-05-03T16:42:30Z</time></trkpt><trkpt lat="46.55026430358125" lon="12.125065548242036"><ele>1272.6666666666667</ele><time>2026-05-03T16:42:32Z</time></trkpt><trkpt lat="46.550199458646645" lon="12.125102581116032"><ele>1273.5</ele><time>2026-05-03T16:42:34Z</time></trkpt><trkpt lat="46.55011616564642" lon="12.12513197660188"><ele>1274.3333333333333</ele><time>2026-05-03T16:42:36Z</time></trkpt><trkpt lat="46.550020866759134" lon="12.125134028564979"><ele>1275.1666666666665</ele><time>2026-05-03T16:42:38Z</time></trkpt><trkpt lat="46.549936925235606" lon="12.125119143554164"><ele>1276.0</ele><time>2026-05-03T16:42:40Z</time></trkpt><trkpt lat="46.54985052835861" lon="12.125140483070941"><ele>1276.0</ele><time>2026-05-03T16:42:42Z</time></trkpt><trkpt lat="46.5497750508123" lon="12.125179924062575"><ele>1276.0</ele><time>2026-05-03T16:42:44Z</time></trkpt><trkpt lat="46.54969249070039" lon="12.125218221892668"><ele>1276.0</ele><time>2026-05-03T16:42:46Z</time></trkpt><trkpt lat="46.5495989785406" lon="12.125263474632304"><ele>1276.0</ele><time>2026-05-03T16:42:48Z</time></trkpt><trkpt lat="46.549518423808266" lon="12.125307591507312"><ele>1276.0</ele><time>2026-05-03T16:42:50Z</time></trkpt><trkpt lat="46.549434117755375" lon="12.125377961943764"><ele>1276.0</ele><time>2026-05-03T16:42:52Z</time></trkpt><trkpt lat="46.54934737662172" lon="12.125437843248998"><ele>1276.3999999999999</ele><time>2026-05-03T16:42:54Z</time></trkpt><trkpt lat="46.549244115113304" lon="12.125474078457005"><ele>1276.8</ele><time>2026-05-03T16:42:56Z</time></trkpt><trkpt lat="46.549138633668186" lon="12.12546963511314"><ele>1277.1999999999998</ele><time>2026-05-03T16:42:58Z</time></trkpt><trkpt lat="46.54903081291136" lon="12.125501452694607"><ele>1277.6</ele><time>2026-05-03T16:43:00Z</time></trkpt><trkpt lat="46.54892044252318" lon="12.125487575822753"><ele>1278.0</ele><time>2026-05-03T16:43:02Z</time></trkpt><trkpt lat="46.548843454151815" lon="12.125419809842581"><ele>1278.0</ele><time>2026-05-03T16:43:04Z</time></trkpt><trkpt lat="46.54877133379493" lon="12.12539254306517"><ele>1278.0</ele><time>2026-05-03T16:43:06Z</time></trkpt><trkpt lat="46.548677710518454" lon="12.125417156757205"><ele>1278.0</ele><time>2026-05-03T16:43:08Z</time></trkpt><trkpt lat="46.54859032617541" lon="12.125482332607184"><ele>1278.0</ele><time>2026-05-03T16:43:10Z</time></trkpt><trkpt lat="46.54850317492859" lon="12.125541276861068"><ele>1278.0</ele><time>2026-05-03T16:43:12Z</time></trkpt><trkpt lat="46.548407012042055" lon="12.12559908818341"><ele>1278.0</ele><time>2026-05-03T16:43:14Z</time></trkpt><trkpt lat="46.548301290777594" lon="12.125613962368474"><ele>1278.0</ele><time>2026-05-03T16:43:16Z</time></trkpt><trkpt lat="46.54819382902159" lon="12.12566428387025"><ele>1278.0</ele><time>2026-05-03T16:43:18Z</time></trkpt><trkpt lat="46.54808659159183" lon="12.125721019358977"><ele>1278.0</ele><time>2026-05-03T16:43:20Z</time></trkpt><trkpt lat="46.54802657654778" lon="12.125752285932762"><ele>1278.0</ele><time>2026-05-03T16:43:21Z</time></trkpt><trkpt lat="46.54791454025718" lon="12.12581358982306"><ele>1275.8333333333333</ele><time>2026-05-03T16:43:23Z</time></trkpt><trkpt lat="46.547857134187815" lon="12.125857394572277"><ele>1273.6666666666667</ele><time>2026-05-03T16:43:24Z</time></trkpt><trkpt lat="46.547780719024814" lon="12.125916407549502"><ele>1271.5</ele><time>2026-05-03T16:43:25Z</time></trkpt><trkpt lat="46.547709870600585" lon="12.125973891300607"><ele>1269.3333333333335</ele><time>2026-05-03T16:43:26Z</time></trkpt><trkpt lat="46.54763174562188" lon="12.12600200317664"><ele>1267.1666666666667</ele><time>2026-05-03T16:43:27Z</time></trkpt><trkpt lat="46.54755345560382" lon="12.126042608626065"><ele>1265.0</ele><time>2026-05-03T16:43:28Z</time></trkpt><trkpt lat="46.54748039146057" lon="12.126081172290958"><ele>1265.0</ele><time>2026-05-03T16:43:29Z</time></trkpt><trkpt lat="46.5474061995369" lon="12.126208802133089"><ele>1265.0</ele><time>2026-05-03T16:43:31Z</time></trkpt><trkpt lat="46.54736911620728" lon="12.126285506646342"><ele>1265.0</ele><time>2026-05-03T16:43:32Z</time></trkpt><trkpt lat="46.54734067304813" lon="12.126393681649267"><ele>1265.0</ele><time>2026-05-03T16:43:33Z</time></trkpt><trkpt lat="46.54730950269006" lon="12.12650332361317"><ele>1265.0</ele><time>2026-05-03T16:43:34Z</time></trkpt><trkpt lat="46.54722102156599" lon="12.126622526288623"><ele>1264.0</ele><time>2026-05-03T16:43:36Z</time></trkpt><trkpt lat="46.547136002005665" lon="12.126752621393816"><ele>1263.0</ele><time>2026-05-03T16:43:38Z</time></trkpt><trkpt lat="46.5470845087821" lon="12.126813452939022"><ele>1262.0</ele><time>2026-05-03T16:43:39Z</time></trkpt><trkpt lat="46.547022549834374" lon="12.12683034594307"><ele>1261.0</ele><time>2026-05-03T16:43:40Z</time></trkpt><trkpt lat="46.54693834401674" lon="12.12685078360501"><ele>1260.0</ele><time>2026-05-03T16:43:41Z</time></trkpt><trkpt lat="46.546853411901346" lon="12.12683394053065"><ele>1259.0</ele><time>2026-05-03T16:43:42Z</time></trkpt><trkpt lat="46.54677756244864" lon="12.126856307097041"><ele>1261.0</ele><time>2026-05-03T16:43:43Z</time></trkpt><trkpt lat="46.54671638768015" lon="12.126972988660901"><ele>1263.0</ele><time>2026-05-03T16:43:44Z</time></trkpt><trkpt lat="46.54665847796908" lon="12.127029135559305"><ele>1265.0</ele><time>2026-05-03T16:43:45Z</time></trkpt><trkpt lat="46.546574613809824" lon="12.127108522473677"><ele>1267.0</ele><time>2026-05-03T16:43:47Z</time></trkpt><trkpt lat="46.54650537415229" lon="12.12717145823127"><ele>1269.0</ele><time>2026-05-03T16:43:49Z</time></trkpt><trkpt lat="46.546437572537855" lon="12.127229841999066"><ele>1271.0</ele><time>2026-05-03T16:43:51.001Z</time></trkpt><trkpt lat="46.54637883049937" lon="12.127311071929372"><ele>1271.0</ele><time>2026-05-03T16:43:53.001Z</time></trkpt><trkpt lat="46.54633566721459" lon="12.127389686514487"><ele>1271.0</ele><time>2026-05-03T16:43:55.001Z</time></trkpt><trkpt lat="46.54627960588549" lon="12.127466486378342"><ele>1271.0</ele><time>2026-05-03T16:43:57.001Z</time></trkpt><trkpt lat="46.54620712567669" lon="12.127561276771065"><ele>1271.0</ele><time>2026-05-03T16:43:59.001Z</time></trkpt><trkpt lat="46.54611928786144" lon="12.127625940814049"><ele>1271.0</ele><time>2026-05-03T16:44:01.001Z</time></trkpt><trkpt lat="46.546127634895655" lon="12.12775383106069"><ele>1271.0</ele><time>2026-05-03T16:44:02.001Z</time></trkpt><trkpt lat="46.54620189586003" lon="12.12782190259311"><ele>1269.0</ele><time>2026-05-03T16:44:04.001Z</time></trkpt><trkpt lat="46.54628190209299" lon="12.127881731950342"><ele>1267.0</ele><time>2026-05-03T16:44:07Z</time></trkpt><trkpt lat="46.546344802687805" lon="12.12790378653015"><ele>1265.0</ele><time>2026-05-03T16:44:09Z</time></trkpt><trkpt lat="46.54646870639551" lon="12.127883952967135"><ele>1263.0</ele><time>2026-05-03T16:44:11Z</time></trkpt><trkpt lat="46.546527305953106" lon="12.127840170546381"><ele>1261.0</ele><time>2026-05-03T16:44:12Z</time></trkpt><trkpt lat="46.54660149287371" lon="12.127818691063862"><ele>1259.0</ele><time>2026-05-03T16:44:14Z</time></trkpt><trkpt lat="46.546674089407425" lon="12.127802631256472"><ele>1259.0</ele><time>2026-05-03T16:44:16Z</time></trkpt><trkpt lat="46.54674581075841" lon="12.127843269541408"><ele>1259.0</ele><time>2026-05-03T16:44:19Z</time></trkpt><trkpt lat="46.546672921658455" lon="12.12782987681809"><ele>1259.0</ele><time>2026-05-03T16:44:30Z</time></trkpt><trkpt lat="46.54659098999456" lon="12.12782897992266"><ele>1259.0</ele><time>2026-05-03T16:44:32Z</time></trkpt><trkpt lat="46.54652895678229" lon="12.127849310647266"><ele>1259.0</ele><time>2026-05-03T16:44:34Z</time></trkpt><trkpt lat="46.5464550597613" lon="12.127844311026875"><ele>1259.0</ele><time>2026-05-03T16:44:36Z</time></trkpt><trkpt lat="46.54636861083288" lon="12.127813739895151"><ele>1259.0</ele><time>2026-05-03T16:44:39Z</time></trkpt><trkpt lat="46.5462872536196" lon="12.12776838175235"><ele>1259.0</ele><time>2026-05-03T16:44:42Z</time></trkpt><trkpt lat="46.54624176951978" lon="12.127660899371342"><ele>1259.0</ele><time>2026-05-03T16:44:45Z</time></trkpt><trkpt lat="46.54629203231307" lon="12.127568358622351"><ele>1259.0</ele><time>2026-05-03T16:44:48Z</time></trkpt><trkpt lat="46.546344615991465" lon="12.127475648708678"><ele>1259.0</ele><time>2026-05-03T16:44:51Z</time></trkpt><trkpt lat="46.54637879202995" lon="12.12739840101672"><ele>1259.0</ele><time>2026-05-03T16:44:53Z</time></trkpt><trkpt lat="46.546410743272766" lon="12.127268517263364"><ele>1261.0</ele><time>2026-05-03T16:44:56Z</time></trkpt><trkpt lat="46.546419819017984" lon="12.127177592890613"><ele>1263.0</ele><time>2026-05-03T16:44:58Z</time></trkpt><trkpt lat="46.546392715989604" lon="12.127060470009885"><ele>1265.0</ele><time>2026-05-03T16:45:01Z</time></trkpt><trkpt lat="46.54635411805855" lon="12.126946459478877"><ele>1267.0</ele><time>2026-05-03T16:45:04Z</time></trkpt><trkpt lat="46.54633403620823" lon="12.126821135904384"><ele>1269.0</ele><time>2026-05-03T16:45:07Z</time></trkpt><trkpt lat="46.54630598719191" lon="12.126698889807404"><ele>1271.0</ele><time>2026-05-03T16:45:10Z</time></trkpt><trkpt lat="46.546258329245056" lon="12.126600178557162"><ele>1272.8333333333335</ele><time>2026-05-03T16:45:13Z</time></trkpt><trkpt lat="46.546192900689725" lon="12.126522745091687"><ele>1274.6666666666667</ele><time>2026-05-03T16:45:16Z</time></trkpt><trkpt lat="46.546118527211526" lon="12.126464461367137"><ele>1276.5</ele><time>2026-05-03T16:45:19Z</time></trkpt><trkpt lat="46.54603830035166" lon="12.126424126451123"><ele>1278.3333333333333</ele><time>2026-05-03T16:45:22Z</time></trkpt><trkpt lat="46.54596943302469" lon="12.126349625719259"><ele>1280.1666666666665</ele><time>2026-05-03T16:45:25Z</time></trkpt><trkpt lat="46.54589688411661" lon="12.126280451972951"><ele>1282.0</ele><time>2026-05-03T16:45:28Z</time></trkpt><trkpt lat="46.54581760736452" lon="12.12628194414979"><ele>1282.0</ele><time>2026-05-03T16:45:31Z</time></trkpt><trkpt lat="46.54575440824738" lon="12.12631780222516"><ele>1282.0</ele><time>2026-05-03T16:45:33Z</time></trkpt><trkpt lat="46.54568620697866" lon="12.126384478438979"><ele>1282.0</ele><time>2026-05-03T16:45:36Z</time></trkpt><trkpt lat="46.54559880517327" lon="12.12653769031969"><ele>1282.0</ele><time>2026-05-03T16:45:38Z</time></trkpt><trkpt lat="46.54556642378659" lon="12.126641107741285"><ele>1282.0</ele><time>2026-05-03T16:45:39Z</time></trkpt><trkpt lat="46.54547837504338" lon="12.126727579637405"><ele>1279.8</ele><time>2026-05-03T16:45:40Z</time></trkpt><trkpt lat="46.54543400902726" lon="12.126848417756003"><ele>1277.6</ele><time>2026-05-03T16:45:41Z</time></trkpt><trkpt lat="46.545382167684174" lon="12.126979433676897"><ele>1275.3999999999999</ele><time>2026-05-03T16:45:42Z</time></trkpt><trkpt lat="46.5453328363394" lon="12.127102800556946"><ele>1273.1999999999998</ele><time>2026-05-03T16:45:43Z</time></trkpt><trkpt lat="46.54528895363325" lon="12.127218606312786"><ele>1271.0</ele><time>2026-05-03T16:45:44Z</time></trkpt><trkpt lat="46.54525573335009" lon="12.127333973295482"><ele>1268.4285714285716</ele><time>2026-05-03T16:45:45Z</time></trkpt><trkpt lat="46.54523984269147" lon="12.127452948325626"><ele>1265.857142857143</ele><time>2026-05-03T16:45:46Z</time></trkpt><trkpt lat="46.54522583202762" lon="12.127563011872319"><ele>1263.2857142857142</ele><time>2026-05-03T16:45:47Z</time></trkpt><trkpt lat="46.5452070969627" lon="12.127658787756479"><ele>1260.7142857142858</ele><time>2026-05-03T16:45:48Z</time></trkpt><trkpt lat="46.54518826776168" lon="12.127756581878621"><ele>1258.142857142857</ele><time>2026-05-03T16:45:49Z</time></trkpt><trkpt lat="46.54514441652554" lon="12.127834064852928"><ele>1255.5714285714287</ele><time>2026-05-03T16:45:50Z</time></trkpt><trkpt lat="46.54509741130256" lon="12.127896161651034"><ele>1253.0</ele><time>2026-05-03T16:45:51Z</time></trkpt><trkpt lat="46.54504348394714" lon="12.127970228809327"><ele>1253.0</ele><time>2026-05-03T16:45:52Z</time></trkpt><trkpt lat="46.54499133548805" lon="12.128043126411526"><ele>1253.0</ele><time>2026-05-03T16:45:53Z</time></trkpt><trkpt lat="46.54492670647432" lon="12.128133298125148"><ele>1253.0</ele><time>2026-05-03T16:45:54Z</time></trkpt><trkpt lat="46.54483071299355" lon="12.128260921410643"><ele>1253.0</ele><time>2026-05-03T16:45:56Z</time></trkpt><trkpt lat="46.54475106232801" lon="12.128260843037271"><ele>1253.0</ele><time>2026-05-03T16:45:57.001Z</time></trkpt><trkpt lat="46.54466754655033" lon="12.128186798843535"><ele>1253.0</ele><time>2026-05-03T16:45:58.001Z</time></trkpt><trkpt lat="46.544598681000814" lon="12.12808381173673"><ele>1253.0</ele><time>2026-05-03T16:45:59.001Z</time></trkpt><trkpt lat="46.54452598979921" lon="12.127969103057037"><ele>1253.0</ele><time>2026-05-03T16:46:00.001Z</time></trkpt><trkpt lat="46.544475877888885" lon="12.127896031693874"><ele>1253.0</ele><time>2026-05-03T16:46:01.001Z</time></trkpt><trkpt lat="46.544394956002314" lon="12.127821811957114"><ele>1253.0</ele><time>2026-05-03T16:46:03.001Z</time></trkpt><trkpt lat="46.54427957779138" lon="12.12777759398215"><ele>1251.1666666666667</ele><time>2026-05-03T16:46:05.001Z</time></trkpt><trkpt lat="46.54415546048416" lon="12.127793499508625"><ele>1249.3333333333335</ele><time>2026-05-03T16:46:07.001Z</time></trkpt><trkpt lat="46.54409449851147" lon="12.12782924380462"><ele>1247.5</ele><time>2026-05-03T16:46:08.001Z</time></trkpt><trkpt lat="46.54398254446897" lon="12.127911235413873"><ele>1245.6666666666667</ele><time>2026-05-03T16:46:10.001Z</time></trkpt><trkpt lat="46.54393519217551" lon="12.127975262804778"><ele>1243.8333333333333</ele><time>2026-05-03T16:46:11.001Z</time></trkpt><trkpt lat="46.54387758450672" lon="12.128027534008663"><ele>1242.0</ele><time>2026-05-03T16:46:12.001Z</time></trkpt><trkpt lat="46.54384081607761" lon="12.128113674520705"><ele>1242.0</ele><time>2026-05-03T16:46:13.001Z</time></trkpt><trkpt lat="46.543791296502576" lon="12.128185871263694"><ele>1242.0</ele><time>2026-05-03T16:46:14.001Z</time></trkpt><trkpt lat="46.543737622666846" lon="12.128253348143415"><ele>1242.0</ele><time>2026-05-03T16:46:15.001Z</time></trkpt><trkpt lat="46.54367928957712" lon="12.128319122268865"><ele>1242.0</ele><time>2026-05-03T16:46:16.001Z</time></trkpt><trkpt lat="46.54361053921926" lon="12.128372036911045"><ele>1242.0</ele><time>2026-05-03T16:46:17.001Z</time></trkpt><trkpt lat="46.54353167682299" lon="12.128402481778592"><ele>1242.0</ele><time>2026-05-03T16:46:18.001Z</time></trkpt><trkpt lat="46.54345001772553" lon="12.128422980585453"><ele>1239.5</ele><time>2026-05-03T16:46:19.001Z</time></trkpt><trkpt lat="46.54336840527051" lon="12.128433215703378"><ele>1237.0</ele><time>2026-05-03T16:46:20.001Z</time></trkpt><trkpt lat="46.54328337225888" lon="12.12842899916637"><ele>1234.5</ele><time>2026-05-03T16:46:21.001Z</time></trkpt><trkpt lat="46.54319899136247" lon="12.12843464776071"><ele>1232.0</ele><time>2026-05-03T16:46:22.001Z</time></trkpt><trkpt lat="46.54311673865443" lon="12.128453592233338"><ele>1229.5</ele><time>2026-05-03T16:46:23.001Z</time></trkpt><trkpt lat="46.54303460834414" lon="12.12849319669929"><ele>1227.0</ele><time>2026-05-03T16:46:24.001Z</time></trkpt><trkpt lat="46.54295181644781" lon="12.128547845151978"><ele>1226.0</ele><time>2026-05-03T16:46:25.001Z</time></trkpt><trkpt lat="46.542874219119085" lon="12.128607519763433"><ele>1225.0</ele><time>2026-05-03T16:46:26.001Z</time></trkpt><trkpt lat="46.542792366736954" lon="12.128666227535241"><ele>1224.0</ele><time>2026-05-03T16:46:27.001Z</time></trkpt><trkpt lat="46.542708529494696" lon="12.128725843769221"><ele>1223.0</ele><time>2026-05-03T16:46:28.001Z</time></trkpt><trkpt lat="46.54262572194305" lon="12.128786897833585"><ele>1222.0</ele><time>2026-05-03T16:46:29.001Z</time></trkpt><trkpt lat="46.54254216942978" lon="12.128850190689516"><ele>1222.0</ele><time>2026-05-03T16:46:30.001Z</time></trkpt><trkpt lat="46.54245552950968" lon="12.128913279244518"><ele>1222.0</ele><time>2026-05-03T16:46:31.001Z</time></trkpt><trkpt lat="46.54236554231853" lon="12.128966108995995"><ele>1222.0</ele><time>2026-05-03T16:46:32.001Z</time></trkpt><trkpt lat="46.54226816096538" lon="12.129000031998864"><ele>1222.0</ele><time>2026-05-03T16:46:33.001Z</time></trkpt><trkpt lat="46.542169329446615" lon="12.12902292634806"><ele>1222.0</ele><time>2026-05-03T16:46:34.001Z</time></trkpt><trkpt lat="46.54206984793624" lon="12.129034578065244"><ele>1221.8</ele><time>2026-05-03T16:46:35.001Z</time></trkpt><trkpt lat="46.541971265599216" lon="12.129051700578966"><ele>1221.6</ele><time>2026-05-03T16:46:36.001Z</time></trkpt><trkpt lat="46.54187569184227" lon="12.12907439352988"><ele>1221.3999999999999</ele><time>2026-05-03T16:46:37.001Z</time></trkpt><trkpt lat="46.54177833772897" lon="12.129094855635561"><ele>1221.2</ele><time>2026-05-03T16:46:38.001Z</time></trkpt><trkpt lat="46.54168264302758" lon="12.129114858747814"><ele>1221.0</ele><time>2026-05-03T16:46:39.001Z</time></trkpt><trkpt lat="46.54158778334773" lon="12.129133835378848"><ele>1220.0</ele><time>2026-05-03T16:46:40.001Z</time></trkpt><trkpt lat="46.54149399651547" lon="12.129145172700664"><ele>1219.0</ele><time>2026-05-03T16:46:41.001Z</time></trkpt><trkpt lat="46.54140203998134" lon="12.129160783356312"><ele>1218.0</ele><time>2026-05-03T16:46:42.001Z</time></trkpt><trkpt lat="46.54130798146399" lon="12.12917837842183"><ele>1217.0</ele><time>2026-05-03T16:46:43.001Z</time></trkpt><trkpt lat="46.5412173659164" lon="12.129214468539855"><ele>1216.0</ele><time>2026-05-03T16:46:44.001Z</time></trkpt><trkpt lat="46.541127335958286" lon="12.129256212955504"><ele>1216.0</ele><time>2026-05-03T16:46:45.001Z</time></trkpt><trkpt lat="46.541037261004696" lon="12.129300216850083"><ele>1216.0</ele><time>2026-05-03T16:46:46.001Z</time></trkpt><trkpt lat="46.540950737708286" lon="12.129348867583325"><ele>1216.0</ele><time>2026-05-03T16:46:47.001Z</time></trkpt><trkpt lat="46.540859971329255" lon="12.129395845163954"><ele>1216.0</ele><time>2026-05-03T16:46:48.001Z</time></trkpt><trkpt lat="46.54077211797921" lon="12.12943582453405"><ele>1216.0</ele><time>2026-05-03T16:46:49.001Z</time></trkpt><trkpt lat="46.54068370735337" lon="12.129480834081008"><ele>1216.0</ele><time>2026-05-03T16:46:50.001Z</time></trkpt><trkpt lat="46.54058756626973" lon="12.129525461064587"><ele>1216.0</ele><time>2026-05-03T16:46:51.001Z</time></trkpt><trkpt lat="46.54049707345315" lon="12.129573970429426"><ele>1216.0</ele><time>2026-05-03T16:46:52Z</time></trkpt><trkpt lat="46.540404264688235" lon="12.129626321184578"><ele>1216.0</ele><time>2026-05-03T16:46:53Z</time></trkpt><trkpt lat="46.54031561680255" lon="12.129682223943107"><ele>1216.0</ele><time>2026-05-03T16:46:54Z</time></trkpt><trkpt lat="46.540233925424936" lon="12.129753846104663"><ele>1215.8333333333333</ele><time>2026-05-03T16:46:55Z</time></trkpt><trkpt lat="46.540158989701915" lon="12.129826922196521"><ele>1215.6666666666665</ele><time>2026-05-03T16:46:56Z</time></trkpt><trkpt lat="46.540085056068726" lon="12.129906198896668"><ele>1215.5</ele><time>2026-05-03T16:46:57Z</time></trkpt><trkpt lat="46.540016063417305" lon="12.129988143789562"><ele>1215.3333333333333</ele><time>2026-05-03T16:46:58Z</time></trkpt><trkpt lat="46.53994592114422" lon="12.130065346419126"><ele>1215.1666666666667</ele><time>2026-05-03T16:46:59Z</time></trkpt><trkpt lat="46.53988130713916" lon="12.130136234293893"><ele>1215.0</ele><time>2026-05-03T16:47:00Z</time></trkpt><trkpt lat="46.53982151759175" lon="12.130214678716877"><ele>1215.0</ele><time>2026-05-03T16:47:01Z</time></trkpt><trkpt lat="46.53975816786581" lon="12.130299487894614"><ele>1215.0</ele><time>2026-05-03T16:47:02Z</time></trkpt><trkpt lat="46.539693032766245" lon="12.13037607423484"><ele>1215.0</ele><time>2026-05-03T16:47:03Z</time></trkpt><trkpt lat="46.53963130272289" lon="12.130457176841052"><ele>1215.0</ele><time>2026-05-03T16:47:04Z</time></trkpt><trkpt lat="46.539571315281655" lon="12.130533713786008"><ele>1215.0</ele><time>2026-05-03T16:47:05Z</time></trkpt><trkpt lat="46.539514208986056" lon="12.130607057670154"><ele>1215.0</ele><time>2026-05-03T16:47:06Z</time></trkpt><trkpt lat="46.53946315901867" lon="12.130684359375442"><ele>1214.0</ele><time>2026-05-03T16:47:07Z</time></trkpt><trkpt lat="46.53941656347605" lon="12.130764653382546"><ele>1213.0</ele><time>2026-05-03T16:47:08Z</time></trkpt><trkpt lat="46.53937269665949" lon="12.130845796537667"><ele>1212.0</ele><time>2026-05-03T16:47:09Z</time></trkpt><trkpt lat="46.53934192753725" lon="12.130929984415511"><ele>1211.0</ele><time>2026-05-03T16:47:10Z</time></trkpt><trkpt lat="46.53931294557703" lon="12.131029707739746"><ele>1210.0</ele><time>2026-05-03T16:47:11Z</time></trkpt><trkpt lat="46.53930734915163" lon="12.131203574759667"><ele>1209.0</ele><time>2026-05-03T16:47:13Z</time></trkpt><trkpt lat="46.53926628297353" lon="12.13137380077666"><ele>1209.0</ele><time>2026-05-03T16:47:15Z</time></trkpt><trkpt lat="46.53920652992977" lon="12.131527749676103"><ele>1209.0</ele><time>2026-05-03T16:47:17Z</time></trkpt><trkpt lat="46.53916864883581" lon="12.131601221766152"><ele>1209.0</ele><time>2026-05-03T16:47:18Z</time></trkpt><trkpt lat="46.53913603524619" lon="12.131679535292914"><ele>1209.0</ele><time>2026-05-03T16:47:19Z</time></trkpt><trkpt lat="46.53907009155188" lon="12.131831302854843"><ele>1209.0</ele><time>2026-05-03T16:47:21Z</time></trkpt><trkpt lat="46.538988102355276" lon="12.131967297755061"><ele>1207.2</ele><time>2026-05-03T16:47:23Z</time></trkpt><trkpt lat="46.538903421241756" lon="12.1320860547569"><ele>1205.4</ele><time>2026-05-03T16:47:25Z</time></trkpt><trkpt lat="46.53883144916698" lon="12.132205095085235"><ele>1203.6</ele><time>2026-05-03T16:47:27Z</time></trkpt><trkpt lat="46.53877158062223" lon="12.132326831859125"><ele>1201.8</ele><time>2026-05-03T16:47:29Z</time></trkpt><trkpt lat="46.538696603066455" lon="12.132433032457486"><ele>1200.0</ele><time>2026-05-03T16:47:31Z</time></trkpt><trkpt lat="46.538600400111484" lon="12.132549047722923"><ele>1200.0</ele><time>2026-05-03T16:47:33Z</time></trkpt><trkpt lat="46.53854993860405" lon="12.13260518098043"><ele>1200.0</ele><time>2026-05-03T16:47:34Z</time></trkpt><trkpt lat="46.53844980202872" lon="12.132698139265079"><ele>1200.0</ele><time>2026-05-03T16:47:36Z</time></trkpt><trkpt lat="46.53833688186923" lon="12.132766049510137"><ele>1200.0</ele><time>2026-05-03T16:47:38Z</time></trkpt><trkpt lat="46.53823206242877" lon="12.132845697209902"><ele>1200.0</ele><time>2026-05-03T16:47:40Z</time></trkpt><trkpt lat="46.53812295187596" lon="12.132920254803324"><ele>1200.0</ele><time>2026-05-03T16:47:42Z</time></trkpt><trkpt lat="46.53801909331805" lon="12.13300493261956"><ele>1200.0</ele><time>2026-05-03T16:47:44Z</time></trkpt><trkpt lat="46.537955899416644" lon="12.133020449798355"><ele>1200.0</ele><time>2026-05-03T16:47:45Z</time></trkpt><trkpt lat="46.53784922727143" lon="12.133104708211008"><ele>1200.0</ele><time>2026-05-03T16:47:47Z</time></trkpt><trkpt lat="46.53780592487721" lon="12.133174631613393"><ele>1200.0</ele><time>2026-05-03T16:47:48Z</time></trkpt><trkpt lat="46.53770072776013" lon="12.133264093506444"><ele>1201.0</ele><time>2026-05-03T16:47:50Z</time></trkpt><trkpt lat="46.5376196277612" lon="12.133368179668613"><ele>1202.0</ele><time>2026-05-03T16:47:52Z</time></trkpt><trkpt lat="46.537588440290925" lon="12.133258782273002"><ele>1203.0</ele><time>2026-05-03T16:47:57Z</time></trkpt><trkpt lat="46.53760274618018" lon="12.133132661580168"><ele>1204.0</ele><time>2026-05-03T16:48:00Z</time></trkpt><trkpt lat="46.53757494749875" lon="12.133016265680478"><ele>1205.0</ele><time>2026-05-03T16:48:03.001Z</time></trkpt><trkpt lat="46.53751559840239" lon="12.132913146748422"><ele>1205.0</ele><time>2026-05-03T16:48:06.001Z</time></trkpt><trkpt lat="46.53748894500737" lon="12.1328223648237"><ele>1205.0</ele><time>2026-05-03T16:48:08.001Z</time></trkpt><trkpt lat="46.53743750600191" lon="12.132751741141496"><ele>1205.0</ele><time>2026-05-03T16:48:10.001Z</time></trkpt><trkpt lat="46.53740336984214" lon="12.132669781911074"><ele>1205.0</ele><time>2026-05-03T16:48:12.001Z</time></trkpt><trkpt lat="46.53735968630802" lon="12.132581682730358"><ele>1205.0</ele><time>2026-05-03T16:48:15.001Z</time></trkpt><trkpt lat="46.537299891013554" lon="12.132507602189092"><ele>1205.0</ele><time>2026-05-03T16:48:17.001Z</time></trkpt><trkpt lat="46.53725447068031" lon="12.132424540250698"><ele>1205.0</ele><time>2026-05-03T16:48:20.001Z</time></trkpt><trkpt lat="46.53726652015133" lon="12.132314885380982"><ele>1207.3333333333335</ele><time>2026-05-03T16:48:23.001Z</time></trkpt><trkpt lat="46.53730893696011" lon="12.13224613252621"><ele>1209.6666666666667</ele><time>2026-05-03T16:48:25.001Z</time></trkpt><trkpt lat="46.537350778189804" lon="12.132169717469708"><ele>1212.0</ele><time>2026-05-03T16:48:27.001Z</time></trkpt><trkpt lat="46.53741861641158" lon="12.132116850599818"><ele>1214.3333333333333</ele><time>2026-05-03T16:48:30.001Z</time></trkpt><trkpt lat="46.53747608259646" lon="12.132048728254613"><ele>1216.6666666666665</ele><time>2026-05-03T16:48:32.001Z</time></trkpt><trkpt lat="46.53753118764571" lon="12.131970114612484"><ele>1219.0</ele><time>2026-05-03T16:48:35.001Z</time></trkpt><trkpt lat="46.53759799140447" lon="12.13187782144455"><ele>1219.0</ele><time>2026-05-03T16:48:38.001Z</time></trkpt><trkpt lat="46.53766431692931" lon="12.131798377628265"><ele>1219.0</ele><time>2026-05-03T16:48:40.001Z</time></trkpt><trkpt lat="46.53771855147191" lon="12.131730145032167"><ele>1219.0</ele><time>2026-05-03T16:48:43.001Z</time></trkpt><trkpt lat="46.53775121510145" lon="12.131644983393096"><ele>1219.0</ele><time>2026-05-03T16:48:45.001Z</time></trkpt><trkpt lat="46.537775376946676" lon="12.131536759082767"><ele>1219.0</ele><time>2026-05-03T16:48:47.001Z</time></trkpt><trkpt lat="46.53779200746695" lon="12.131427110869875"><ele>1219.0</ele><time>2026-05-03T16:48:50Z</time></trkpt><trkpt lat="46.537818785625156" lon="12.13131652396818"><ele>1219.5</ele><time>2026-05-03T16:48:52Z</time></trkpt><trkpt lat="46.53785183152872" lon="12.131197148368628"><ele>1220.0</ele><time>2026-05-03T16:48:55Z</time></trkpt><trkpt lat="46.537881317755385" lon="12.131060592584825"><ele>1220.5</ele><time>2026-05-03T16:48:58Z</time></trkpt><trkpt lat="46.53791176170741" lon="12.130922305813604"><ele>1221.0</ele><time>2026-05-03T16:49:00Z</time></trkpt><trkpt lat="46.53793130279576" lon="12.130814938163386"><ele>1221.5</ele><time>2026-05-03T16:49:02Z</time></trkpt><trkpt lat="46.53796025749417" lon="12.130718997404557"><ele>1222.0</ele><time>2026-05-03T16:49:05Z</time></trkpt><trkpt lat="46.53793168328615" lon="12.13062240384117"><ele>1223.6666666666665</ele><time>2026-05-03T16:49:09Z</time></trkpt><trkpt lat="46.537862658755465" lon="12.130606910418406"><ele>1225.3333333333333</ele><time>2026-05-03T16:49:11Z</time></trkpt><trkpt lat="46.53779848062307" lon="12.130620295857353"><ele>1227.0</ele><time>2026-05-03T16:49:13Z</time></trkpt><trkpt lat="46.537728458619405" lon="12.130630253429484"><ele>1228.6666666666667</ele><time>2026-05-03T16:49:15Z</time></trkpt><trkpt lat="46.53766331310517" lon="12.130643324993372"><ele>1230.3333333333335</ele><time>2026-05-03T16:49:17Z</time></trkpt><trkpt lat="46.53757690882893" lon="12.13067820425136"><ele>1232.0</ele><time>2026-05-03T16:49:20Z</time></trkpt><trkpt lat="46.53749262144951" lon="12.130721969086933"><ele>1231.2</ele><time>2026-05-03T16:49:22Z</time></trkpt><trkpt lat="46.53741998602604" lon="12.130768687327546"><ele>1230.4</ele><time>2026-05-03T16:49:25Z</time></trkpt><trkpt lat="46.53733631797909" lon="12.130813958208021"><ele>1229.6</ele><time>2026-05-03T16:49:28Z</time></trkpt><trkpt lat="46.537264732572694" lon="12.130842346561863"><ele>1228.8</ele><time>2026-05-03T16:49:30Z</time></trkpt><trkpt lat="46.53713698475598" lon="12.130876419370075"><ele>1228.0</ele><time>2026-05-03T16:49:32Z</time></trkpt><trkpt lat="46.53705754476758" lon="12.130861151767922"><ele>1229.0</ele><time>2026-05-03T16:49:34Z</time></trkpt><trkpt lat="46.536966612505026" lon="12.130840356995595"><ele>1230.0</ele><time>2026-05-03T16:49:36Z</time></trkpt><trkpt lat="46.53688843452593" lon="12.130809955694241"><ele>1231.0</ele><time>2026-05-03T16:49:38Z</time></trkpt><trkpt lat="46.536809794382876" lon="12.130787433797149"><ele>1232.0</ele><time>2026-05-03T16:49:40Z</time></trkpt><trkpt lat="46.5367285668945" lon="12.13076780190372"><ele>1233.0</ele><time>2026-05-03T16:49:42Z</time></trkpt><trkpt lat="46.53665793001694" lon="12.130742795815662"><ele>1234.0</ele><time>2026-05-03T16:49:44Z</time></trkpt><trkpt lat="46.536579538318364" lon="12.1307120286862"><ele>1235.0</ele><time>2026-05-03T16:49:46Z</time></trkpt><trkpt lat="46.53650953436858" lon="12.130676109188231"><ele>1236.0</ele><time>2026-05-03T16:49:48Z</time></trkpt><trkpt lat="46.53641324192494" lon="12.130645850960713"><ele>1237.0</ele><time>2026-05-03T16:49:50Z</time></trkpt><trkpt lat="46.5363455644605" lon="12.130650756818362"><ele>1238.0</ele><time>2026-05-03T16:49:51Z</time></trkpt><trkpt lat="46.53625606098046" lon="12.13061920983745"><ele>1239.0</ele><time>2026-05-03T16:49:54Z</time></trkpt><trkpt lat="46.53613827043887" lon="12.130577681832339"><ele>1239.0</ele><time>2026-05-03T16:49:56Z</time></trkpt><trkpt lat="46.53605799629049" lon="12.13053666514311"><ele>1239.0</ele><time>2026-05-03T16:49:58Z</time></trkpt><trkpt lat="46.53599177264953" lon="12.130488705670054"><ele>1239.0</ele><time>2026-05-03T16:50:00Z</time></trkpt><trkpt lat="46.53590336867806" lon="12.130423166527812"><ele>1239.0</ele><time>2026-05-03T16:50:03Z</time></trkpt><trkpt lat="46.53582431091257" lon="12.1303545510783"><ele>1239.0</ele><time>2026-05-03T16:50:05Z</time></trkpt><trkpt lat="46.53574976711044" lon="12.13029828986926"><ele>1239.0</ele><time>2026-05-03T16:50:07Z</time></trkpt><trkpt lat="46.53566928048198" lon="12.130242127541187"><ele>1239.0</ele><time>2026-05-03T16:50:09.001Z</time></trkpt><trkpt lat="46.53559364484125" lon="12.130183183620511"><ele>1239.0</ele><time>2026-05-03T16:50:11.001Z</time></trkpt><trkpt lat="46.535510137967" lon="12.130131066274323"><ele>1239.0</ele><time>2026-05-03T16:50:13.001Z</time></trkpt><trkpt lat="46.53542894284255" lon="12.13008366400743"><ele>1239.0</ele><time>2026-05-03T16:50:15.001Z</time></trkpt><trkpt lat="46.53534137043474" lon="12.130054152140842"><ele>1239.0</ele><time>2026-05-03T16:50:17.001Z</time></trkpt><trkpt lat="46.53525146552121" lon="12.130053768418124"><ele>1239.0</ele><time>2026-05-03T16:50:19.001Z</time></trkpt><trkpt lat="46.53515970116228" lon="12.130052406021978"><ele>1239.0</ele><time>2026-05-03T16:50:21.001Z</time></trkpt><trkpt lat="46.53507018903851" lon="12.130038975707487"><ele>1239.0</ele><time>2026-05-03T16:50:23.001Z</time></trkpt><trkpt lat="46.5349827199897" lon="12.13002894832819"><ele>1239.0</ele><time>2026-05-03T16:50:25.001Z</time></trkpt><trkpt lat="46.53490055586183" lon="12.12999145498214"><ele>1239.0</ele><time>2026-05-03T16:50:27.001Z</time></trkpt><trkpt lat="46.53482728848421" lon="12.129932247457006"><ele>1239.0</ele><time>2026-05-03T16:50:29.001Z</time></trkpt><trkpt lat="46.53477404070998" lon="12.12984665313722"><ele>1239.0</ele><time>2026-05-03T16:50:31.001Z</time></trkpt><trkpt lat="46.53472540842817" lon="12.129764545716407"><ele>1239.3333333333333</ele><time>2026-05-03T16:50:33.001Z</time></trkpt><trkpt lat="46.53467131381262" lon="12.129683902159545"><ele>1239.6666666666667</ele><time>2026-05-03T16:50:35.001Z</time></trkpt><trkpt lat="46.534611796951715" lon="12.129622322163085"><ele>1240.0</ele><time>2026-05-03T16:50:37.001Z</time></trkpt><trkpt lat="46.53453999154307" lon="12.129647317075255"><ele>1240.3333333333335</ele><time>2026-05-03T16:50:39.001Z</time></trkpt><trkpt lat="46.5344441711953" lon="12.129749985976588"><ele>1240.6666666666667</ele><time>2026-05-03T16:50:41Z</time></trkpt><trkpt lat="46.53437957026244" lon="12.129818310847057"><ele>1241.0</ele><time>2026-05-03T16:50:42Z</time></trkpt><trkpt lat="46.53429320930949" lon="12.129878727139301"><ele>1239.3333333333335</ele><time>2026-05-03T16:50:43Z</time></trkpt><trkpt lat="46.53421392624609" lon="12.129920897682135"><ele>1237.6666666666667</ele><time>2026-05-03T16:50:44Z</time></trkpt><trkpt lat="46.53414360088909" lon="12.12995120976095"><ele>1236.0</ele><time>2026-05-03T16:50:45Z</time></trkpt><trkpt lat="46.534070357176674" lon="12.129973143678166"><ele>1234.3333333333333</ele><time>2026-05-03T16:50:46Z</time></trkpt><trkpt lat="46.53399986457935" lon="12.129957788472224"><ele>1232.6666666666665</ele><time>2026-05-03T16:50:47Z</time></trkpt><trkpt lat="46.53390406980008" lon="12.129924772211968"><ele>1231.0</ele><time>2026-05-03T16:50:49Z</time></trkpt><trkpt lat="46.53383083574986" lon="12.129911143865924"><ele>1231.5</ele><time>2026-05-03T16:50:51Z</time></trkpt><trkpt lat="46.5337645800225" lon="12.129857630845956"><ele>1232.0</ele><time>2026-05-03T16:50:53Z</time></trkpt><trkpt lat="46.53370628322827" lon="12.12978730726658"><ele>1232.5</ele><time>2026-05-03T16:50:55Z</time></trkpt><trkpt lat="46.53365651757747" lon="12.1296960249259"><ele>1233.0</ele><time>2026-05-03T16:50:57Z</time></trkpt><trkpt lat="46.533603651779444" lon="12.129616094748247"><ele>1233.5</ele><time>2026-05-03T16:50:59Z</time></trkpt><trkpt lat="46.533546596724165" lon="12.129525822094116"><ele>1234.0</ele><time>2026-05-03T16:51:01Z</time></trkpt><trkpt lat="46.53349960343501" lon="12.129433778702307"><ele>1234.0</ele><time>2026-05-03T16:51:03Z</time></trkpt><trkpt lat="46.533431041403965" lon="12.129238281181081"><ele>1234.0</ele><time>2026-05-03T16:51:07Z</time></trkpt><trkpt lat="46.53344552981046" lon="12.12910865938412"><ele>1234.0</ele><time>2026-05-03T16:51:09Z</time></trkpt><trkpt lat="46.53344786709472" lon="12.12897711028516"><ele>1234.0</ele><time>2026-05-03T16:51:11Z</time></trkpt><trkpt lat="46.53343251798905" lon="12.128882807454602"><ele>1234.0</ele><time>2026-05-03T16:51:13Z</time></trkpt><trkpt lat="46.533420918679745" lon="12.128792203552173"><ele>1235.6000000000001</ele><time>2026-05-03T16:51:15Z</time></trkpt><trkpt lat="46.533387348674765" lon="12.128687144423928"><ele>1237.2</ele><time>2026-05-03T16:51:17Z</time></trkpt><trkpt lat="46.53336070924949" lon="12.128568761369685"><ele>1238.8000000000002</ele><time>2026-05-03T16:51:19Z</time></trkpt><trkpt lat="46.533313435674636" lon="12.128463282591115"><ele>1240.4</ele><time>2026-05-03T16:51:21Z</time></trkpt><trkpt lat="46.53323597804217" lon="12.128376433738627"><ele>1242.0</ele><time>2026-05-03T16:51:23Z</time></trkpt><trkpt lat="46.533151618507006" lon="12.128291649910398"><ele>1242.0</ele><time>2026-05-03T16:51:25Z</time></trkpt><trkpt lat="46.533060942253435" lon="12.128231452264616"><ele>1242.0</ele><time>2026-05-03T16:51:27Z</time></trkpt><trkpt lat="46.53298103671387" lon="12.128165437486102"><ele>1242.0</ele><time>2026-05-03T16:51:29Z</time></trkpt><trkpt lat="46.53291556538551" lon="12.12810841909055"><ele>1242.0</ele><time>2026-05-03T16:51:31Z</time></trkpt><trkpt lat="46.53281100259283" lon="12.128076222729222"><ele>1242.0</ele><time>2026-05-03T16:51:33Z</time></trkpt><trkpt lat="46.5327173755695" lon="12.128079136170655"><ele>1242.0</ele><time>2026-05-03T16:51:36Z</time></trkpt><trkpt lat="46.532587318049956" lon="12.12810612223333"><ele>1242.0</ele><time>2026-05-03T16:51:38Z</time></trkpt><trkpt lat="46.532500403475765" lon="12.128196366478285"><ele>1242.0</ele><time>2026-05-03T16:51:40Z</time></trkpt><trkpt lat="46.53243415688691" lon="12.128289605066065"><ele>1242.0</ele><time>2026-05-03T16:51:42Z</time></trkpt><trkpt lat="46.532375492747846" lon="12.128367898506447"><ele>1242.0</ele><time>2026-05-03T16:51:44Z</time></trkpt><trkpt lat="46.5323268003194" lon="12.128453321316679"><ele>1242.0</ele><time>2026-05-03T16:51:46Z</time></trkpt><trkpt lat="46.532266336391274" lon="12.128545722517025"><ele>1242.0</ele><time>2026-05-03T16:51:48Z</time></trkpt><trkpt lat="46.53219568137101" lon="12.128643489002394"><ele>1242.0</ele><time>2026-05-03T16:51:50Z</time></trkpt><trkpt lat="46.53211697375754" lon="12.128713985413874"><ele>1242.0</ele><time>2026-05-03T16:51:52Z</time></trkpt><trkpt lat="46.532033327078175" lon="12.128726198853462"><ele>1242.0</ele><time>2026-05-03T16:51:54Z</time></trkpt><trkpt lat="46.5319576676021" lon="12.128740602389497"><ele>1242.0</ele><time>2026-05-03T16:51:56Z</time></trkpt><trkpt lat="46.53186395673049" lon="12.128754026381793"><ele>1242.1666666666667</ele><time>2026-05-03T16:51:58Z</time></trkpt><trkpt lat="46.53176705351538" lon="12.128759635742826"><ele>1242.3333333333333</ele><time>2026-05-03T16:52:01Z</time></trkpt><trkpt lat="46.53170471963522" lon="12.128741989248851"><ele>1242.5</ele><time>2026-05-03T16:52:03Z</time></trkpt><trkpt lat="46.53160624238225" lon="12.128687974450319"><ele>1242.6666666666665</ele><time>2026-05-03T16:52:06Z</time></trkpt><trkpt lat="46.53154728531715" lon="12.128639067256382"><ele>1242.8333333333333</ele><time>2026-05-03T16:52:08Z</time></trkpt><trkpt lat="46.53147262542396" lon="12.128606243640965"><ele>1243.0</ele><time>2026-05-03T16:52:10Z</time></trkpt><trkpt lat="46.53139806233875" lon="12.128546888830193"><ele>1243.0</ele><time>2026-05-03T16:52:12Z</time></trkpt><trkpt lat="46.531333497558165" lon="12.128512121882709"><ele>1243.0</ele><time>2026-05-03T16:52:15.001Z</time></trkpt><trkpt lat="46.53123995492816" lon="12.1285150411711"><ele>1243.0</ele><time>2026-05-03T16:52:17.001Z</time></trkpt><trkpt lat="46.531187762160236" lon="12.128580443989678"><ele>1243.0</ele><time>2026-05-03T16:52:19.001Z</time></trkpt><trkpt lat="46.5310505408689" lon="12.128705323713149"><ele>1243.0</ele><time>2026-05-03T16:52:22.001Z</time></trkpt><trkpt lat="46.5309699727357" lon="12.128829034361473"><ele>1242.8333333333333</ele><time>2026-05-03T16:52:24.001Z</time></trkpt><trkpt lat="46.530922942139746" lon="12.128927216903223"><ele>1242.6666666666665</ele><time>2026-05-03T16:52:25.001Z</time></trkpt><trkpt lat="46.530896197314384" lon="12.129019239147071"><ele>1242.5</ele><time>2026-05-03T16:52:26.001Z</time></trkpt><trkpt lat="46.53087588468501" lon="12.129117819146925"><ele>1242.3333333333333</ele><time>2026-05-03T16:52:27.001Z</time></trkpt><trkpt lat="46.53084580065694" lon="12.129198636736273"><ele>1242.1666666666667</ele><time>2026-05-03T16:52:28.001Z</time></trkpt><trkpt lat="46.53079876429885" lon="12.129322426842895"><ele>1242.0</ele><time>2026-05-03T16:52:30.001Z</time></trkpt><trkpt lat="46.53071596145467" lon="12.12942491712215"><ele>1240.8</ele><time>2026-05-03T16:52:32.001Z</time></trkpt><trkpt lat="46.53058769940185" lon="12.129480136480595"><ele>1239.6</ele><time>2026-05-03T16:52:34.001Z</time></trkpt><trkpt lat="46.5305145432881" lon="12.129518440320885"><ele>1238.3999999999999</ele><time>2026-05-03T16:52:35.001Z</time></trkpt><trkpt lat="46.5304436787628" lon="12.129557718598386"><ele>1237.2</ele><time>2026-05-03T16:52:36.001Z</time></trkpt><trkpt lat="46.53037339447242" lon="12.129609546440408"><ele>1236.0</ele><time>2026-05-03T16:52:37Z</time></trkpt><trkpt lat="46.5303193172304" lon="12.129718793792577"><ele>1234.8333333333333</ele><time>2026-05-03T16:52:38Z</time></trkpt><trkpt lat="46.53025193547805" lon="12.129800105460225"><ele>1233.6666666666667</ele><time>2026-05-03T16:52:39Z</time></trkpt><trkpt lat="46.53019881105543" lon="12.129895484360091"><ele>1232.5</ele><time>2026-05-03T16:52:40Z</time></trkpt><trkpt lat="46.530143808215136" lon="12.1299748171712"><ele>1231.3333333333335</ele><time>2026-05-03T16:52:41Z</time></trkpt><trkpt lat="46.530076124507346" lon="12.130035661638562"><ele>1230.1666666666667</ele><time>2026-05-03T16:52:42Z</time></trkpt><trkpt lat="46.53000104584818" lon="12.1300968519453"><ele>1229.0</ele><time>2026-05-03T16:52:43Z</time></trkpt><trkpt lat="46.529922501085295" lon="12.13015712959753"><ele>1227.8333333333335</ele><time>2026-05-03T16:52:44Z</time></trkpt><trkpt lat="46.52984910124185" lon="12.130213939979972"><ele>1226.6666666666667</ele><time>2026-05-03T16:52:45Z</time></trkpt><trkpt lat="46.529773732288675" lon="12.13026796097187"><ele>1225.5</ele><time>2026-05-03T16:52:46Z</time></trkpt><trkpt lat="46.52969922071913" lon="12.130316456111037"><ele>1224.3333333333333</ele><time>2026-05-03T16:52:47Z</time></trkpt><trkpt lat="46.52961578000616" lon="12.130370546432191"><ele>1223.1666666666665</ele><time>2026-05-03T16:52:48Z</time></trkpt><trkpt lat="46.529536535785" lon="12.130419224869353"><ele>1222.0</ele><time>2026-05-03T16:52:49Z</time></trkpt><trkpt lat="46.52945403745169" lon="12.130451268363666"><ele>1221.0</ele><time>2026-05-03T16:52:50Z</time></trkpt><trkpt lat="46.52936657041939" lon="12.130461683752264"><ele>1220.0</ele><time>2026-05-03T16:52:51Z</time></trkpt><trkpt lat="46.529280681631846" lon="12.130470322947618"><ele>1219.0</ele><time>2026-05-03T16:52:52Z</time></trkpt><trkpt lat="46.52919423554974" lon="12.130478122744146"><ele>1218.0</ele><time>2026-05-03T16:52:53Z</time></trkpt><trkpt lat="46.52910592282294" lon="12.130486106090737"><ele>1217.0</ele><time>2026-05-03T16:52:54Z</time></trkpt><trkpt lat="46.52902028619241" lon="12.130499589284767"><ele>1216.0</ele><time>2026-05-03T16:52:55Z</time></trkpt><trkpt lat="46.528932695002446" lon="12.130527055006675"><ele>1216.0</ele><time>2026-05-03T16:52:56Z</time></trkpt><trkpt lat="46.52884929603082" lon="12.13056111162977"><ele>1216.0</ele><time>2026-05-03T16:52:57Z</time></trkpt><trkpt lat="46.52876584502294" lon="12.130618081432237"><ele>1216.0</ele><time>2026-05-03T16:52:58Z</time></trkpt><trkpt lat="46.52868615187927" lon="12.130695875393078"><ele>1216.0</ele><time>2026-05-03T16:52:59Z</time></trkpt><trkpt lat="46.52861593829278" lon="12.130797832828337"><ele>1216.0</ele><time>2026-05-03T16:53:00Z</time></trkpt><trkpt lat="46.52853893584522" lon="12.130889033046875"><ele>1213.8333333333333</ele><time>2026-05-03T16:53:01Z</time></trkpt><trkpt lat="46.528463780240514" lon="12.130942878929645"><ele>1211.6666666666665</ele><time>2026-05-03T16:53:02Z</time></trkpt><trkpt lat="46.528379405643896" lon="12.130982248450344"><ele>1209.5</ele><time>2026-05-03T16:53:03Z</time></trkpt><trkpt lat="46.52829625676374" lon="12.131012613212391"><ele>1207.3333333333333</ele><time>2026-05-03T16:53:04Z</time></trkpt><trkpt lat="46.5282102233689" lon="12.131046059988691"><ele>1205.1666666666667</ele><time>2026-05-03T16:53:05Z</time></trkpt><trkpt lat="46.528121101149196" lon="12.13108481149029"><ele>1203.0</ele><time>2026-05-03T16:53:06Z</time></trkpt><trkpt lat="46.528031830505384" lon="12.131140599550537"><ele>1203.0</ele><time>2026-05-03T16:53:07Z</time></trkpt><trkpt lat="46.527941778453304" lon="12.131196831660814"><ele>1203.0</ele><time>2026-05-03T16:53:08Z</time></trkpt><trkpt lat="46.527859871263516" lon="12.131246950955227"><ele>1203.0</ele><time>2026-05-03T16:53:09Z</time></trkpt><trkpt lat="46.52778078067196" lon="12.131290795965178"><ele>1203.0</ele><time>2026-05-03T16:53:10Z</time></trkpt><trkpt lat="46.52770184084937" lon="12.131323364718886"><ele>1203.0</ele><time>2026-05-03T16:53:11Z</time></trkpt><trkpt lat="46.52761624617824" lon="12.131365005487433"><ele>1203.0</ele><time>2026-05-03T16:53:12Z</time></trkpt><trkpt lat="46.52753433405344" lon="12.131416054097793"><ele>1201.6666666666667</ele><time>2026-05-03T16:53:13Z</time></trkpt><trkpt lat="46.527456537492355" lon="12.131465347335443"><ele>1200.3333333333333</ele><time>2026-05-03T16:53:14Z</time></trkpt><trkpt lat="46.52738042847884" lon="12.131542050123729"><ele>1199.0</ele><time>2026-05-03T16:53:15Z</time></trkpt><trkpt lat="46.527299106615" lon="12.131595385546749"><ele>1197.6666666666665</ele><time>2026-05-03T16:53:16Z</time></trkpt><trkpt lat="46.527225061636734" lon="12.131685888020032"><ele>1196.3333333333333</ele><time>2026-05-03T16:53:17Z</time></trkpt><trkpt lat="46.527154284935904" lon="12.13174876415967"><ele>1195.0</ele><time>2026-05-03T16:53:18Z</time></trkpt><trkpt lat="46.5270918295619" lon="12.131818752167755"><ele>1192.3333333333333</ele><time>2026-05-03T16:53:19Z</time></trkpt><trkpt lat="46.527033439454534" lon="12.13188349209454"><ele>1189.6666666666665</ele><time>2026-05-03T16:53:20Z</time></trkpt><trkpt lat="46.526962868275525" lon="12.131976943910152"><ele>1187.0</ele><time>2026-05-03T16:53:21Z</time></trkpt><trkpt lat="46.52691835538198" lon="12.132052652268664"><ele>1184.3333333333333</ele><time>2026-05-03T16:53:22Z</time></trkpt><trkpt lat="46.52685439176052" lon="12.132130104027112"><ele>1181.6666666666667</ele><time>2026-05-03T16:53:23Z</time></trkpt><trkpt lat="46.52679723208058" lon="12.132199317535736"><ele>1179.0</ele><time>2026-05-03T16:53:24Z</time></trkpt><trkpt lat="46.52661594703177" lon="12.132197571282157"><ele>1179.0</ele><time>2026-05-03T16:53:25Z</time></trkpt><trkpt lat="46.52657950938778" lon="12.132280900826494"><ele>1179.0</ele><time>2026-05-03T16:53:26Z</time></trkpt><trkpt lat="46.52652579007166" lon="12.132411382803763"><ele>1179.0</ele><time>2026-05-03T16:53:27Z</time></trkpt><trkpt lat="46.52648808214176" lon="12.13257409601449"><ele>1179.0</ele><time>2026-05-03T16:53:28Z</time></trkpt><trkpt lat="46.526533868126315" lon="12.132735211403794"><ele>1179.0</ele><time>2026-05-03T16:53:29Z</time></trkpt><trkpt lat="46.52651820072427" lon="12.1328263880143"><ele>1177.4</ele><time>2026-05-03T16:53:30Z</time></trkpt><trkpt lat="46.52646793790052" lon="12.132920204753804"><ele>1175.8000000000002</ele><time>2026-05-03T16:53:32Z</time></trkpt><trkpt lat="46.526341068125554" lon="12.132866537613575"><ele>1174.1999999999998</ele><time>2026-05-03T16:53:34Z</time></trkpt><trkpt lat="46.526213416235464" lon="12.132873268275079"><ele>1172.6</ele><time>2026-05-03T16:53:36Z</time></trkpt><trkpt lat="46.52614327157364" lon="12.132870775317224"><ele>1171.0</ele><time>2026-05-03T16:53:37Z</time></trkpt><trkpt lat="46.52607146126667" lon="12.132861320453884"><ele>1169.1666666666665</ele><time>2026-05-03T16:53:38Z</time></trkpt><trkpt lat="46.52600027841733" lon="12.132840087438499"><ele>1167.3333333333333</ele><time>2026-05-03T16:53:39Z</time></trkpt><trkpt lat="46.52593030823363" lon="12.13279898284673"><ele>1165.5</ele><time>2026-05-03T16:53:40Z</time></trkpt><trkpt lat="46.525867220951014" lon="12.132725833757336"><ele>1163.6666666666667</ele><time>2026-05-03T16:53:41Z</time></trkpt><trkpt lat="46.52579424801847" lon="12.132657922029018"><ele>1161.8333333333335</ele><time>2026-05-03T16:53:42Z</time></trkpt><trkpt lat="46.52573252236492" lon="12.132565875721092"><ele>1160.0</ele><time>2026-05-03T16:53:43Z</time></trkpt><trkpt lat="46.52567971566962" lon="12.132475539120788"><ele>1160.0</ele><time>2026-05-03T16:53:44Z</time></trkpt><trkpt lat="46.525613393529575" lon="12.132409157271281"><ele>1160.0</ele><time>2026-05-03T16:53:45Z</time></trkpt><trkpt lat="46.525539946121164" lon="12.132359861344675"><ele>1160.0</ele><time>2026-05-03T16:53:46Z</time></trkpt><trkpt lat="46.525454622287356" lon="12.132346551487394"><ele>1160.0</ele><time>2026-05-03T16:53:47Z</time></trkpt><trkpt lat="46.52536934514524" lon="12.132402785422371"><ele>1160.0</ele><time>2026-05-03T16:53:48Z</time></trkpt><trkpt lat="46.52529584193052" lon="12.132391471980155"><ele>1160.0</ele><time>2026-05-03T16:53:49Z</time></trkpt><trkpt lat="46.52523029272366" lon="12.132389461236734"><ele>1158.0</ele><time>2026-05-03T16:53:50Z</time></trkpt><trkpt lat="46.525122548287115" lon="12.132318608141665"><ele>1156.0</ele><time>2026-05-03T16:53:52Z</time></trkpt><trkpt lat="46.525102190415915" lon="12.132211434005159"><ele>1154.0</ele><time>2026-05-03T16:53:53Z</time></trkpt><trkpt lat="46.525079990791696" lon="12.132092079991196"><ele>1152.0</ele><time>2026-05-03T16:53:54Z</time></trkpt><trkpt lat="46.5250944040398" lon="12.131969144057035"><ele>1150.0</ele><time>2026-05-03T16:53:55Z</time></trkpt><trkpt lat="46.525111485112475" lon="12.131853930952541"><ele>1148.0</ele><time>2026-05-03T16:53:56Z</time></trkpt><trkpt lat="46.52512856436612" lon="12.131731501416747"><ele>1148.0</ele><time>2026-05-03T16:53:57Z</time></trkpt><trkpt lat="46.52512599618344" lon="12.131619536661864"><ele>1148.0</ele><time>2026-05-03T16:53:58Z</time></trkpt><trkpt lat="46.52511929933177" lon="12.131504155283023"><ele>1148.0</ele><time>2026-05-03T16:53:59Z</time></trkpt><trkpt lat="46.525051970008825" lon="12.131423542906742"><ele>1148.0</ele><time>2026-05-03T16:54:00Z</time></trkpt><trkpt lat="46.52499175657353" lon="12.13137047782724"><ele>1148.0</ele><time>2026-05-03T16:54:01Z</time></trkpt><trkpt lat="46.52491744410503" lon="12.131370815381963"><ele>1148.0</ele><time>2026-05-03T16:54:02Z</time></trkpt><trkpt lat="46.52480873256803" lon="12.131354951773886"><ele>1150.6666666666667</ele><time>2026-05-03T16:54:04Z</time></trkpt><trkpt lat="46.52471028137595" lon="12.131354647649026"><ele>1153.3333333333335</ele><time>2026-05-03T16:54:06Z</time></trkpt><trkpt lat="46.52461922159092" lon="12.131356711979292"><ele>1156.0</ele><time>2026-05-03T16:54:08Z</time></trkpt><trkpt lat="46.524601379950255" lon="12.131222829198578"><ele>1158.6666666666667</ele><time>2026-05-03T16:54:11Z</time></trkpt><trkpt lat="46.5245993694444" lon="12.13111868678731"><ele>1161.3333333333333</ele><time>2026-05-03T16:54:13Z</time></trkpt><trkpt lat="46.52467417182115" lon="12.131054132069966"><ele>1164.0</ele><time>2026-05-03T16:54:15Z</time></trkpt><trkpt lat="46.52477812691455" lon="12.131022165092194"><ele>1164.0</ele><time>2026-05-03T16:54:17Z</time></trkpt><trkpt lat="46.5248469908854" lon="12.13102485242989"><ele>1164.0</ele><time>2026-05-03T16:54:19Z</time></trkpt><trkpt lat="46.524911543300924" lon="12.131035421042931"><ele>1164.0</ele><time>2026-05-03T16:54:21.001Z</time></trkpt><trkpt lat="46.524877010969625" lon="12.131399623198279"><ele>1164.0</ele><time>2026-05-03T16:56:06.448Z</time></trkpt><trkpt lat="46.5248562462764" lon="12.13125739773056"><ele>1164.0</ele><time>2026-05-03T16:56:17.571Z</time></trkpt><trkpt lat="46.52480576780214" lon="12.13110518896057"><ele>1164.0</ele><time>2026-05-03T16:56:22.41Z</time></trkpt></trkseg></trk></gpx>